Time,TemperatureF,DewpointF,PressureIn,WindDirection,WindDirectionDegrees,WindSpeedMPH,WindSpeedGustMPH,Humidity,HourlyPrecipIn,Conditions,Clouds,dailyrainin,SoftwareType,DateUTC
2013-05-29 00:00:00,54.9,53.7,28.91,ENE,68,1.6,2.5,96,0.00,,,0.00,VWS V14.01,2013-05-29 04:00:00,
2013-05-29 00:01:00,54.9,53.7,28.91,SE,135,1.1,1.6,96,0.00,,,0.00,VWS V14.01,2013-05-29 04:01:00,
2013-05-29 00:02:00,55.0,53.9,28.91,East,90,2.5,2.5,96,0.00,,,0.00,VWS V14.01,2013-05-29 04:02:00,
2013-05-29 00:04:00,55.2,54.1,28.91,East,90,1.1,2.5,96,0.00,,,0.00,VWS V14.01,2013-05-29 04:04:00,
2013-05-29 00:05:00,55.4,54.3,28.91,ENE,68,0.0,2.0,96,0.00,,,0.00,VWS V14.01,2013-05-29 04:05:00,
2013-05-29 00:06:00,55.6,54.5,28.91,NE,45,0.0,0.0,96,0.00,,,0.00,VWS V14.01,2013-05-29 04:06:00,
2013-05-29 00:07:00,55.6,54.5,28.91,East,90,1.1,1.1,96,0.00,,,0.00,VWS V14.01,2013-05-29 04:07:00,
2013-05-29 00:08:00,55.8,54.9,28.88,East,90,0.0,1.1,97,0.00,,,0.00,VWS V14.01,2013-05-29 04:08:00,
2013-05-29 00:09:00,55.9,55.1,28.88,East,90,0.9,0.9,97,0.00,,,0.00,VWS V14.01,2013-05-29 04:09:00,
2013-05-29 00:10:00,55.9,55.1,28.88,East,90,0.0,0.9,97,0.00,,,0.00,VWS V14.01,2013-05-29 04:10:00,
2013-05-29 00:11:00,55.9,55.1,28.88,ENE,68,0.0,0.0,97,0.00,,,0.00,VWS V14.01,2013-05-29 04:11:00,
2013-05-29 00:12:00,55.9,55.1,28.88,ENE,68,0.0,0.0,97,0.00,,,0.00,VWS V14.01,2013-05-29 04:12:00,
2013-05-29 00:13:00,56.1,55.3,28.88,ENE,68,0.0,0.0,97,0.00,,,0.00,VWS V14.01,2013-05-29 04:13:00,
2013-05-29 00:14:00,56.1,55.3,28.88,ENE,68,0.0,0.0,97,0.00,,,0.00,VWS V14.01,2013-05-29 04:14:00,
2013-05-29 00:15:00,56.1,55.3,28.88,ENE,68,0.0,0.0,97,0.00,,,0.00,VWS V14.01,2013-05-29 04:15:00,
2013-05-29 00:16:00,56.1,55.3,28.88,ENE,68,0.0,0.0,97,0.00,,,0.00,VWS V14.01,2013-05-29 04:16:00,
2013-05-29 00:17:00,56.3,55.5,28.88,ENE,68,0.0,0.0,97,0.00,,,0.00,VWS V14.01,2013-05-29 04:17:00,
2013-05-29 00:18:00,56.3,55.2,28.88,ENE,68,0.0,0.0,96,0.00,,,0.00,VWS V14.01,2013-05-29 04:18:00,
2013-05-29 00:19:00,56.3,55.2,28.88,ENE,68,0.0,0.0,96,0.00,,,0.00,VWS V14.01,2013-05-29 04:19:00,
2013-05-29 00:20:00,56.5,55.4,28.88,East,90,0.0,0.0,96,0.00,,,0.00,VWS V14.01,2013-05-29 04:20:00,
2013-05-29 00:21:00,56.5,55.4,28.88,ENE,68,0.0,0.0,96,0.00,,,0.00,VWS V14.01,2013-05-29 04:21:00,
2013-05-29 00:22:00,56.5,55.4,28.91,East,90,0.0,0.0,96,0.00,,,0.00,VWS V14.01,2013-05-29 04:22:00,
2013-05-29 00:23:00,56.5,55.4,28.91,East,90,0.0,0.0,96,0.00,,,0.00,VWS V14.01,2013-05-29 04:23:00,
2013-05-29 00:24:00,56.7,55.5,28.91,East,90,0.0,0.0,96,0.00,,,0.00,VWS V14.01,2013-05-29 04:24:00,
2013-05-29 00:25:00,56.7,55.5,28.91,East,90,0.0,0.0,96,0.00,,,0.00,VWS V14.01,2013-05-29 04:25:00,
2013-05-29 00:26:00,56.7,55.5,28.91,East,90,0.0,0.0,96,0.00,,,0.00,VWS V14.01,2013-05-29 04:26:00,
2013-05-29 00:27:00,56.7,55.5,28.91,East,90,0.0,0.0,96,0.00,,,0.00,VWS V14.01,2013-05-29 04:27:00,
2013-05-29 00:28:00,56.7,55.5,28.91,East,90,0.0,0.0,96,0.00,,,0.00,VWS V14.01,2013-05-29 04:28:00,
2013-05-29 00:29:00,56.7,55.5,28.91,East,90,0.0,0.0,96,0.00,,,0.00,VWS V14.01,2013-05-29 04:29:00,
2013-05-29 00:30:00,56.8,55.7,28.91,East,90,0.0,0.0,96,0.00,,,0.00,VWS V14.01,2013-05-29 04:30:00,
2013-05-29 00:31:00,56.8,55.7,28.91,East,90,0.0,0.0,96,0.00,,,0.00,VWS V14.01,2013-05-29 04:31:00,
2013-05-29 00:32:00,56.8,55.7,28.91,East,90,0.0,0.0,96,0.00,,,0.00,VWS V14.01,2013-05-29 04:32:00,
2013-05-29 00:33:00,56.8,55.7,28.91,ESE,112,0.0,0.0,96,0.00,,,0.00,VWS V14.01,2013-05-29 04:33:00,
2013-05-29 00:34:00,57.0,56.2,28.91,ESE,112,0.0,0.0,97,0.00,,,0.00,VWS V14.01,2013-05-29 04:34:00,
2013-05-29 00:35:00,57.2,56.1,28.91,ESE,112,0.0,0.0,96,0.00,,,0.00,VWS V14.01,2013-05-29 04:35:00,
2013-05-29 00:36:00,57.2,56.1,28.91,ESE,112,0.0,0.0,96,0.00,,,0.00,VWS V14.01,2013-05-29 04:36:00,
2013-05-29 00:37:00,57.2,56.1,28.91,ESE,112,0.0,0.0,96,0.00,,,0.00,VWS V14.01,2013-05-29 04:37:00,
2013-05-29 00:38:00,57.2,56.1,28.91,ESE,112,0.0,0.0,96,0.00,,,0.00,VWS V14.01,2013-05-29 04:38:00,
2013-05-29 00:39:00,57.2,56.1,28.91,ESE,112,0.0,0.0,96,0.00,,,0.00,VWS V14.01,2013-05-29 04:39:00,
2013-05-29 00:40:00,57.2,56.1,28.91,ESE,112,0.0,0.0,96,0.00,,,0.00,VWS V14.01,2013-05-29 04:40:00,
2013-05-29 00:41:00,57.0,55.9,28.91,SSE,158,0.0,0.0,96,0.00,,,0.00,VWS V14.01,2013-05-29 04:41:00,
2013-05-29 00:42:00,54.3,52.9,28.91,ENE,68,2.9,2.9,95,0.00,,,0.25,VWS V14.01,2013-05-29 04:42:00,
2013-05-29 00:43:00,56.8,55.7,28.91,SSE,158,0.0,0.0,96,0.00,,,0.00,VWS V14.01,2013-05-29 04:43:00,
2013-05-29 00:44:00,56.8,55.7,28.91,SSE,158,0.0,0.0,96,0.00,,,0.00,VWS V14.01,2013-05-29 04:44:00,
2013-05-29 00:45:00,56.8,55.4,28.91,SSE,158,0.0,0.0,95,0.00,,,0.00,VWS V14.01,2013-05-29 04:45:00,
2013-05-29 00:46:00,56.8,55.4,28.91,SSE,158,0.0,0.0,95,0.00,,,0.00,VWS V14.01,2013-05-29 04:46:00,
2013-05-29 00:47:00,54.3,52.9,28.91,ENE,68,3.1,3.1,95,0.00,,,0.25,VWS V14.01,2013-05-29 04:47:00,
2013-05-29 00:48:00,57.0,55.6,28.91,SSE,158,0.0,0.0,95,0.00,,,0.00,VWS V14.01,2013-05-29 04:48:00,
2013-05-29 00:49:00,57.2,55.8,28.91,SSE,158,0.0,0.0,95,0.00,,,0.00,VWS V14.01,2013-05-29 04:49:00,
2013-05-29 00:50:00,57.2,55.8,28.91,SSE,158,0.0,0.0,95,0.00,,,0.00,VWS V14.01,2013-05-29 04:50:00,
2013-05-29 00:51:00,57.4,56.0,28.91,SW,225,0.0,0.0,95,0.00,,,0.00,VWS V14.01,2013-05-29 04:51:00,
2013-05-29 00:52:00,54.5,53.1,28.91,ENE,68,2.2,2.7,95,0.00,,,0.25,VWS V14.01,2013-05-29 04:52:00,
2013-05-29 00:53:00,57.4,56.0,28.91,SW,225,0.0,0.0,95,0.00,,,0.00,VWS V14.01,2013-05-29 04:53:00,
2013-05-29 00:54:00,57.4,56.0,28.91,SW,225,0.0,0.0,95,0.00,,,0.00,VWS V14.01,2013-05-29 04:54:00,
2013-05-29 00:55:00,57.4,56.0,28.91,SW,225,0.0,0.0,95,0.00,,,0.00,VWS V14.01,2013-05-29 04:55:00,
2013-05-29 00:56:00,57.6,56.1,28.91,SW,225,0.0,0.0,95,0.00,,,0.00,VWS V14.01,2013-05-29 04:56:00,
2013-05-29 00:57:00,54.5,53.1,28.91,East,90,2.9,2.9,95,0.00,,,0.25,VWS V14.01,2013-05-29 04:57:00,
2013-05-29 00:58:00,57.4,56.0,28.91,SW,225,0.0,0.0,95,0.00,,,0.00,VWS V14.01,2013-05-29 04:58:00,
2013-05-29 00:59:00,57.2,55.8,28.91,SW,225,0.0,0.0,95,0.00,,,0.00,VWS V14.01,2013-05-29 04:59:00,
2013-05-29 01:00:00,57.2,55.8,28.91,SW,225,0.0,0.0,95,0.00,,,0.00,VWS V14.01,2013-05-29 05:00:00,
2013-05-29 01:01:00,57.2,55.5,28.91,SW,225,0.0,0.0,94,0.00,,,0.00,VWS V14.01,2013-05-29 05:01:00,
2013-05-29 01:02:00,55.2,54.1,28.91,ENE,68,2.0,2.5,96,0.00,,,0.00,VWS V14.01,2013-05-29 05:02:00,
2013-05-29 01:03:00,57.2,55.5,28.91,SW,225,0.0,0.0,94,0.00,,,0.00,VWS V14.01,2013-05-29 05:03:00,
2013-05-29 01:04:00,57.2,55.5,28.91,SW,225,0.0,0.0,94,0.00,,,0.00,VWS V14.01,2013-05-29 05:04:00,
2013-05-29 01:05:00,57.2,55.5,28.91,South,180,0.0,0.0,94,0.00,,,0.00,VWS V14.01,2013-05-29 05:05:00,
2013-05-29 01:06:00,57.2,55.5,28.91,South,180,0.0,0.0,94,0.00,,,0.00,VWS V14.01,2013-05-29 05:06:00,
2013-05-29 01:07:00,55.8,54.9,28.88,East,90,0.0,1.1,97,0.00,,,0.00,VWS V14.01,2013-05-29 05:07:00,
2013-05-29 01:08:00,57.4,55.7,28.94,SW,225,0.0,0.0,94,0.00,,,0.00,VWS V14.01,2013-05-29 05:08:00,
2013-05-29 01:09:00,57.4,55.7,28.94,SW,225,0.0,0.0,94,0.00,,,0.00,VWS V14.01,2013-05-29 05:09:00,
2013-05-29 01:10:00,57.4,55.7,28.94,SSW,202,0.0,0.0,94,0.00,,,0.00,VWS V14.01,2013-05-29 05:10:00,
2013-05-29 01:12:00,56.1,55.3,28.88,ENE,68,0.0,0.0,97,0.00,,,0.00,VWS V14.01,2013-05-29 05:12:00,
2013-05-29 01:13:00,57.6,56.1,28.94,SW,225,1.6,1.6,95,0.00,,,0.00,VWS V14.01,2013-05-29 05:13:00,
2013-05-29 01:14:00,57.7,56.3,28.94,WSW,248,1.3,1.6,95,0.00,,,0.00,VWS V14.01,2013-05-29 05:14:00,
2013-05-29 01:15:00,57.7,56.3,28.94,WSW,248,1.3,1.3,95,0.00,,,0.00,VWS V14.01,2013-05-29 05:15:00,
2013-05-29 01:16:00,57.9,56.5,28.94,WSW,248,2.7,2.7,95,0.00,,,0.00,VWS V14.01,2013-05-29 05:16:00,
2013-05-29 01:17:00,56.3,55.2,28.88,ENE,68,0.0,0.0,96,0.00,,,0.00,VWS V14.01,2013-05-29 05:17:00,
2013-05-29 01:18:00,57.9,56.5,28.94,West,270,2.5,2.5,95,0.00,,,0.00,VWS V14.01,2013-05-29 05:18:00,
2013-05-29 01:19:00,57.9,56.5,28.94,West,270,1.3,2.5,95,0.00,,,0.00,VWS V14.01,2013-05-29 05:19:00,
2013-05-29 01:20:00,57.7,56.3,28.94,West,270,1.3,1.3,95,0.00,,,0.00,VWS V14.01,2013-05-29 05:20:00,
2013-05-29 01:21:00,57.7,56.3,28.94,WSW,248,2.5,2.5,95,0.00,,,0.00,VWS V14.01,2013-05-29 05:21:00,
2013-05-29 01:22:00,56.5,55.4,28.91,East,90,0.0,0.0,96,0.00,,,0.00,VWS V14.01,2013-05-29 05:22:00,
2013-05-29 01:23:00,57.7,56.3,28.91,WSW,248,2.5,2.5,95,0.00,,,0.00,VWS V14.01,2013-05-29 05:23:00,
2013-05-29 01:24:00,57.7,56.3,28.91,WSW,248,2.9,2.9,95,0.00,,,0.00,VWS V14.01,2013-05-29 05:24:00,
2013-05-29 01:25:00,57.6,56.1,28.91,WSW,248,2.9,2.9,95,0.00,,,0.00,VWS V14.01,2013-05-29 05:25:00,
2013-05-29 01:26:00,57.7,56.6,28.91,WSW,248,2.7,2.9,96,0.00,,,0.00,VWS V14.01,2013-05-29 05:26:00,
2013-05-29 01:27:00,57.7,56.6,28.91,WSW,248,4.0,4.0,96,0.00,,,0.00,VWS V14.01,2013-05-29 05:27:00,
2013-05-29 01:28:00,56.7,55.5,28.91,East,90,0.0,0.0,96,0.00,,,0.00,VWS V14.01,2013-05-29 05:28:00,
2013-05-29 01:29:00,57.9,56.8,28.91,West,270,3.1,3.6,96,0.00,,,0.00,VWS V14.01,2013-05-29 05:29:00,
2013-05-29 01:31:00,57.9,56.8,28.91,West,270,5.8,5.8,96,0.00,,,0.00,VWS V14.01,2013-05-29 05:31:00,
2013-05-29 01:32:00,58.1,57.3,28.91,WSW,248,3.6,5.8,97,0.00,,,0.00,VWS V14.01,2013-05-29 05:32:00,
2013-05-29 01:33:00,56.8,55.7,28.91,ESE,112,0.0,0.0,96,0.00,,,0.00,VWS V14.01,2013-05-29 05:33:00,
2013-05-29 01:34:00,58.1,57.3,28.91,West,270,4.3,4.3,97,0.00,,,0.00,VWS V14.01,2013-05-29 05:34:00,
2013-05-29 01:35:00,58.1,57.3,28.91,West,270,4.3,4.3,97,0.00,,,0.00,VWS V14.01,2013-05-29 05:35:00,
2013-05-29 01:36:00,58.1,57.3,28.91,WNW,292,0.0,4.3,97,0.00,,,0.00,VWS V14.01,2013-05-29 05:36:00,
2013-05-29 01:38:00,57.2,56.1,28.91,ESE,112,0.0,0.0,96,0.00,,,0.00,VWS V14.01,2013-05-29 05:38:00,
2013-05-29 01:39:00,57.9,57.1,28.88,WSW,248,1.1,3.1,97,0.00,,,0.00,VWS V14.01,2013-05-29 05:39:00,
2013-05-29 01:40:00,57.7,56.9,28.88,WSW,248,2.0,2.7,97,0.00,,,0.00,VWS V14.01,2013-05-29 05:40:00,
2013-05-29 01:41:00,57.6,56.7,28.88,West,270,2.0,2.0,97,0.00,,,0.00,VWS V14.01,2013-05-29 05:41:00,
2013-05-29 01:42:00,57.2,56.4,28.88,West,270,0.0,3.6,97,0.00,,,0.00,VWS V14.01,2013-05-29 05:42:00,
2013-05-29 01:43:00,56.8,55.7,28.91,SSE,158,0.0,0.0,96,0.00,,,0.00,VWS V14.01,2013-05-29 05:43:00,
2013-05-29 01:44:00,56.8,55.7,28.88,WSW,248,3.1,3.1,96,0.00,,,0.00,VWS V14.01,2013-05-29 05:44:00,
2013-05-29 01:45:00,56.8,55.7,28.88,WSW,248,4.9,4.9,96,0.00,,,0.00,VWS V14.01,2013-05-29 05:45:00,
2013-05-29 01:46:00,56.7,55.5,28.88,West,270,2.9,4.9,96,0.00,,,0.00,VWS V14.01,2013-05-29 05:46:00,
2013-05-29 01:47:00,56.7,55.5,28.88,WSW,248,3.1,3.1,96,0.00,,,0.00,VWS V14.01,2013-05-29 05:47:00,
2013-05-29 01:48:00,57.0,55.6,28.91,SSE,158,0.0,0.0,95,0.00,,,0.00,VWS V14.01,2013-05-29 05:48:00,
2013-05-29 01:49:00,56.3,54.9,28.88,West,270,3.1,4.0,95,0.00,,,0.00,VWS V14.01,2013-05-29 05:49:00,
2013-05-29 01:50:00,56.3,54.9,28.88,WSW,248,2.7,3.1,95,0.00,,,0.00,VWS V14.01,2013-05-29 05:50:00,
2013-05-29 01:51:00,55.9,54.5,28.88,WSW,248,3.1,4.0,95,0.00,,,0.00,VWS V14.01,2013-05-29 05:51:00,
2013-05-29 01:52:00,55.9,54.5,28.91,West,270,3.4,4.5,95,0.00,,,0.00,VWS V14.01,2013-05-29 05:52:00,
2013-05-29 01:53:00,57.4,56.0,28.91,SW,225,0.0,0.0,95,0.00,,,0.00,VWS V14.01,2013-05-29 05:53:00,
2013-05-29 01:54:00,55.6,53.9,28.91,West,270,4.7,5.8,94,0.00,,,0.00,VWS V14.01,2013-05-29 05:54:00,
2013-05-29 01:55:00,55.6,53.9,28.91,West,270,4.3,4.7,94,0.00,,,0.00,VWS V14.01,2013-05-29 05:55:00,
2013-05-29 01:56:00,55.4,53.7,28.91,WSW,248,3.8,5.8,94,0.00,,,0.00,VWS V14.01,2013-05-29 05:56:00,
2013-05-29 01:57:00,55.4,53.7,28.91,WSW,248,3.4,5.6,94,0.00,,,0.00,VWS V14.01,2013-05-29 05:57:00,
2013-05-29 01:58:00,57.4,56.0,28.91,SW,225,0.0,0.0,95,0.00,,,0.00,VWS V14.01,2013-05-29 05:58:00,
2013-05-29 02:00:00,55.2,53.8,28.91,WSW,248,4.3,4.3,95,0.00,,,0.00,VWS V14.01,2013-05-29 06:00:00,
2013-05-29 02:01:00,55.2,53.8,28.91,WSW,248,4.3,4.3,95,0.00,,,0.00,VWS V14.01,2013-05-29 06:01:00,
2013-05-29 02:02:00,55.2,53.8,28.91,WSW,248,4.3,4.3,95,0.00,,,0.00,VWS V14.01,2013-05-29 06:02:00,
2013-05-29 02:03:00,57.2,55.5,28.91,SW,225,0.0,0.0,94,0.00,,,0.00,VWS V14.01,2013-05-29 06:03:00,
2013-05-29 02:04:00,55.2,53.8,28.91,WSW,248,3.8,4.0,95,0.00,,,0.00,VWS V14.01,2013-05-29 06:04:00,
2013-05-29 02:05:00,55.2,54.1,28.91,WSW,248,3.6,4.3,96,0.00,,,0.00,VWS V14.01,2013-05-29 06:05:00,
2013-05-29 02:06:00,55.2,54.1,28.91,SSW,202,3.4,3.8,96,0.00,,,0.00,VWS V14.01,2013-05-29 06:06:00,
2013-05-29 02:07:00,55.2,54.1,28.91,WSW,248,4.5,4.5,96,0.00,,,0.00,VWS V14.01,2013-05-29 06:07:00,
2013-05-29 02:08:00,57.4,55.7,28.94,SW,225,0.0,0.0,94,0.00,,,0.00,VWS V14.01,2013-05-29 06:08:00,
2013-05-29 02:09:00,55.2,54.1,28.91,West,270,2.9,3.4,96,0.00,,,0.00,VWS V14.01,2013-05-29 06:09:00,
2013-05-29 02:10:00,55.2,54.1,28.91,WSW,248,2.7,2.9,96,0.00,,,0.00,VWS V14.01,2013-05-29 06:10:00,
2013-05-29 02:11:00,55.2,54.1,28.91,WSW,248,3.1,3.8,96,0.00,,,0.00,VWS V14.01,2013-05-29 06:11:00,
2013-05-29 02:12:00,55.2,54.4,28.91,SW,225,2.9,3.1,97,0.00,,,0.00,VWS V14.01,2013-05-29 06:12:00,
2013-05-29 02:13:00,57.6,56.1,28.94,SW,225,1.6,1.6,95,0.00,,,0.00,VWS V14.01,2013-05-29 06:13:00,
2013-05-29 02:14:00,55.0,54.2,28.91,West,270,5.6,5.8,97,0.00,,,0.00,VWS V14.01,2013-05-29 06:14:00,
2013-05-29 02:15:00,55.0,54.2,28.91,WSW,248,6.0,7.4,97,0.00,,,0.00,VWS V14.01,2013-05-29 06:15:00,
2013-05-29 02:16:00,55.0,54.2,28.91,WSW,248,6.5,6.5,97,0.00,,,0.00,VWS V14.01,2013-05-29 06:16:00,
2013-05-29 02:17:00,55.0,54.2,28.91,WSW,248,4.9,6.5,97,0.00,,,0.00,VWS V14.01,2013-05-29 06:17:00,
2013-05-29 02:18:00,57.9,56.5,28.94,West,270,2.5,2.5,95,0.00,,,0.00,VWS V14.01,2013-05-29 06:18:00,
2013-05-29 02:19:00,55.0,54.2,28.91,WSW,248,2.7,2.7,97,0.00,,,0.00,VWS V14.01,2013-05-29 06:19:00,
2013-05-29 02:20:00,55.0,54.2,28.91,West,270,3.6,4.3,97,0.00,,,0.00,VWS V14.01,2013-05-29 06:20:00,
2013-05-29 02:21:00,54.7,53.8,28.91,West,270,5.6,5.6,97,0.00,,,0.00,VWS V14.01,2013-05-29 06:21:00,
2013-05-29 02:22:00,54.7,53.8,28.91,WSW,248,4.9,5.6,97,0.00,,,0.00,VWS V14.01,2013-05-29 06:22:00,
2013-05-29 02:23:00,57.7,56.3,28.91,WSW,248,2.5,2.5,95,0.00,,,0.00,VWS V14.01,2013-05-29 06:23:00,
2013-05-29 02:24:00,54.5,53.7,28.91,WSW,248,3.1,4.9,97,0.00,,,0.00,VWS V14.01,2013-05-29 06:24:00,
2013-05-29 02:25:00,54.5,53.7,28.91,WSW,248,4.7,4.7,97,0.00,,,0.00,VWS V14.01,2013-05-29 06:25:00,
2013-05-29 02:26:00,54.5,53.7,28.91,WSW,248,3.6,4.7,97,0.00,,,0.00,VWS V14.01,2013-05-29 06:26:00,
2013-05-29 02:27:00,54.5,53.7,28.91,WSW,248,2.2,3.6,97,0.00,,,0.00,VWS V14.01,2013-05-29 06:27:00,
2013-05-29 02:28:00,57.7,56.6,28.91,West,270,2.5,3.6,96,0.00,,,0.00,VWS V14.01,2013-05-29 06:28:00,
2013-05-29 02:30:00,54.5,53.7,28.91,WSW,248,2.5,2.9,97,0.00,,,0.00,VWS V14.01,2013-05-29 06:30:00,
2013-05-29 02:31:00,54.5,53.7,28.91,West,270,3.8,4.0,97,0.00,,,0.00,VWS V14.01,2013-05-29 06:31:00,
2013-05-29 02:32:00,54.5,53.7,28.91,WSW,248,2.9,3.8,97,0.00,,,0.00,VWS V14.01,2013-05-29 06:32:00,
2013-05-29 02:33:00,58.1,57.3,28.91,WSW,248,3.8,3.8,97,0.00,,,0.00,VWS V14.01,2013-05-29 06:33:00,
2013-05-29 02:34:00,54.5,53.7,28.91,WSW,248,3.1,3.1,97,0.00,,,0.00,VWS V14.01,2013-05-29 06:34:00,
2013-05-29 02:35:00,54.5,53.7,28.91,SW,225,3.6,3.6,97,0.00,,,0.00,VWS V14.01,2013-05-29 06:35:00,
2013-05-29 02:36:00,54.5,53.7,28.91,SW,225,3.8,3.8,97,0.00,,,0.00,VWS V14.01,2013-05-29 06:36:00,
2013-05-29 02:37:00,54.5,54.0,28.91,WSW,248,2.7,3.8,98,0.00,,,0.00,VWS V14.01,2013-05-29 06:37:00,
2013-05-29 02:38:00,58.1,57.3,28.91,West,270,0.0,3.1,97,0.00,,,0.00,VWS V14.01,2013-05-29 06:38:00,
2013-05-29 02:39:00,54.5,54.0,28.91,WSW,248,3.1,4.7,98,0.00,,,0.00,VWS V14.01,2013-05-29 06:39:00,
2013-05-29 02:40:00,54.5,54.0,28.91,WSW,248,5.4,5.4,98,0.00,,,0.00,VWS V14.01,2013-05-29 06:40:00,
2013-05-29 02:41:00,54.5,54.0,28.91,WSW,248,4.5,5.4,98,0.00,,,0.00,VWS V14.01,2013-05-29 06:41:00,
2013-05-29 02:42:00,54.5,54.0,28.91,WSW,248,3.8,4.9,98,0.00,,,0.00,VWS V14.01,2013-05-29 06:42:00,
2013-05-29 02:43:00,57.0,55.9,28.88,West,270,0.9,2.2,96,0.00,,,0.00,VWS V14.01,2013-05-29 06:43:00,
2013-05-29 02:44:00,54.5,54.0,28.91,WNW,292,4.7,4.7,98,0.00,,,0.00,VWS V14.01,2013-05-29 06:44:00,
2013-05-29 02:45:00,54.5,54.0,28.91,WSW,248,5.4,6.0,98,0.00,,,0.00,VWS V14.01,2013-05-29 06:45:00,
2013-05-29 02:46:00,54.5,54.0,28.91,WSW,248,5.8,5.8,98,0.00,,,0.00,VWS V14.01,2013-05-29 06:46:00,
2013-05-29 02:48:00,56.7,55.5,28.88,WNW,292,3.1,3.1,96,0.00,,,0.00,VWS V14.01,2013-05-29 06:48:00,
2013-05-29 02:49:00,54.5,54.0,28.91,West,270,2.7,5.8,98,0.00,,,0.00,VWS V14.01,2013-05-29 06:49:00,
2013-05-29 02:50:00,54.5,54.0,28.91,WSW,248,3.6,4.9,98,0.00,,,0.00,VWS V14.01,2013-05-29 06:50:00,
2013-05-29 02:51:00,54.5,54.0,28.91,WSW,248,5.4,5.6,98,0.00,,,0.00,VWS V14.01,2013-05-29 06:51:00,
2013-05-29 02:52:00,54.3,53.8,28.91,WSW,248,6.0,6.0,98,0.00,,,0.00,VWS V14.01,2013-05-29 06:52:00,
2013-05-29 02:53:00,55.8,54.3,28.91,WSW,248,5.8,5.8,95,0.00,,,0.00,VWS V14.01,2013-05-29 06:53:00,
2013-05-29 02:54:00,54.1,53.6,28.91,WSW,248,3.6,7.4,98,0.00,,,0.00,VWS V14.01,2013-05-29 06:54:00,
2013-05-29 02:55:00,54.1,53.6,28.91,WSW,248,5.8,7.2,98,0.00,,,0.00,VWS V14.01,2013-05-29 06:55:00,
2013-05-29 02:56:00,54.1,53.6,28.91,WSW,248,7.6,7.6,98,0.00,,,0.00,VWS V14.01,2013-05-29 06:56:00,
2013-05-29 02:57:00,54.1,53.6,28.91,WSW,248,6.0,8.1,98,0.00,,,0.00,VWS V14.01,2013-05-29 06:57:00,
2013-05-29 02:58:00,55.2,53.8,28.91,WSW,248,2.0,2.5,95,0.00,,,0.00,VWS V14.01,2013-05-29 06:58:00,
2013-05-29 02:59:00,54.0,53.4,28.91,WNW,292,4.9,6.0,98,0.00,,,0.00,VWS V14.01,2013-05-29 06:59:00,
2013-05-29 03:00:00,54.0,53.4,28.91,SW,225,5.4,6.0,98,0.00,,,0.00,VWS V14.01,2013-05-29 07:00:00,
2013-05-29 03:01:00,53.8,53.2,28.91,WSW,248,5.4,5.4,98,0.00,,,0.00,VWS V14.01,2013-05-29 07:01:00,
2013-05-29 03:02:00,53.8,53.2,28.91,WSW,248,6.0,6.3,98,0.00,,,0.00,VWS V14.01,2013-05-29 07:02:00,
2013-05-29 03:03:00,55.2,53.8,28.91,WSW,248,3.6,4.0,95,0.00,,,0.00,VWS V14.01,2013-05-29 07:03:00,
2013-05-29 03:04:00,53.8,53.2,28.91,WSW,248,4.0,6.5,98,0.00,,,0.00,VWS V14.01,2013-05-29 07:04:00,
2013-05-29 03:05:00,53.8,53.2,28.91,WSW,248,5.8,8.7,98,0.00,,,0.00,VWS V14.01,2013-05-29 07:05:00,
2013-05-29 03:06:00,53.4,52.9,28.91,SW,225,5.6,8.5,98,0.00,,,0.00,VWS V14.01,2013-05-29 07:06:00,
2013-05-29 03:07:00,53.2,52.7,28.91,WSW,248,6.0,6.5,98,0.00,,,0.00,VWS V14.01,2013-05-29 07:07:00,
2013-05-29 03:08:00,55.2,54.1,28.91,SW,225,3.4,3.4,96,0.00,,,0.00,VWS V14.01,2013-05-29 07:08:00,
2013-05-29 03:09:00,53.2,52.7,28.91,SW,225,9.4,9.4,98,0.00,,,0.00,VWS V14.01,2013-05-29 07:09:00,
2013-05-29 03:10:00,53.1,52.5,28.91,SW,225,5.8,10.3,98,0.00,,,0.00,VWS V14.01,2013-05-29 07:10:00,
2013-05-29 03:11:00,53.1,52.5,28.91,WSW,248,8.7,9.8,98,0.00,,,0.00,VWS V14.01,2013-05-29 07:11:00,
2013-05-29 03:12:00,53.1,52.5,28.91,WSW,248,8.7,9.8,98,0.00,,,0.00,VWS V14.01,2013-05-29 07:12:00,
2013-05-29 03:13:00,55.0,54.2,28.91,West,270,3.8,5.8,97,0.00,,,0.00,VWS V14.01,2013-05-29 07:13:00,
2013-05-29 03:14:00,52.9,52.3,28.91,WSW,248,9.0,9.0,98,0.00,,,0.00,VWS V14.01,2013-05-29 07:14:00,
2013-05-29 03:15:00,52.7,52.2,28.91,West,270,13.0,13.0,98,0.00,,,0.00,VWS V14.01,2013-05-29 07:15:00,
2013-05-29 03:16:00,52.7,52.2,28.91,West,270,8.7,13.0,98,0.00,,,0.00,VWS V14.01,2013-05-29 07:16:00,
2013-05-29 03:17:00,52.5,52.0,28.91,WSW,248,4.3,8.7,98,0.00,,,0.00,VWS V14.01,2013-05-29 07:17:00,
2013-05-29 03:18:00,55.0,54.2,28.91,WSW,248,2.7,2.7,97,0.00,,,0.00,VWS V14.01,2013-05-29 07:18:00,
2013-05-29 03:19:00,52.3,51.8,28.91,WSW,248,10.5,10.5,98,0.00,,,0.00,VWS V14.01,2013-05-29 07:19:00,
2013-05-29 03:20:00,52.2,51.3,28.91,West,270,8.5,11.0,97,0.00,,,0.00,VWS V14.01,2013-05-29 07:20:00,
2013-05-29 03:21:00,52.0,51.2,28.91,West,270,7.8,8.5,97,0.00,,,0.00,VWS V14.01,2013-05-29 07:21:00,
2013-05-29 03:22:00,51.8,51.0,28.97,WSW,248,8.5,10.5,97,0.00,,,0.00,VWS V14.01,2013-05-29 07:22:00,
2013-05-29 03:23:00,54.7,53.8,28.91,WSW,248,2.9,4.9,97,0.00,,,0.00,VWS V14.01,2013-05-29 07:23:00,
2013-05-29 03:24:00,51.6,50.8,28.97,WSW,248,9.2,10.3,97,0.00,,,0.00,VWS V14.01,2013-05-29 07:24:00,
2013-05-29 03:25:00,51.4,50.6,28.97,WNW,292,7.4,9.2,97,0.00,,,0.00,VWS V14.01,2013-05-29 07:25:00,
2013-05-29 03:26:00,51.4,50.6,28.97,West,270,7.6,10.1,97,0.00,,,0.00,VWS V14.01,2013-05-29 07:26:00,
2013-05-29 03:27:00,51.4,50.6,28.97,WSW,248,10.5,12.1,97,0.00,,,0.00,VWS V14.01,2013-05-29 07:27:00,
2013-05-29 03:28:00,54.5,53.7,28.91,WSW,248,2.5,2.9,97,0.00,,,0.00,VWS V14.01,2013-05-29 07:28:00,
2013-05-29 03:29:00,51.3,50.4,28.97,WSW,248,4.7,11.0,97,0.00,,,0.00,VWS V14.01,2013-05-29 07:29:00,
2013-05-29 03:30:00,51.1,50.3,28.97,West,270,7.6,7.6,97,0.00,,,0.00,VWS V14.01,2013-05-29 07:30:00,
2013-05-29 03:31:00,51.1,50.3,28.97,WNW,292,8.5,8.5,97,0.00,,,0.00,VWS V14.01,2013-05-29 07:31:00,
2013-05-29 03:32:00,51.1,50.3,28.97,WSW,248,6.5,8.5,97,0.00,,,0.00,VWS V14.01,2013-05-29 07:32:00,
2013-05-29 03:33:00,51.1,50.3,28.97,West,270,7.2,7.2,97,0.00,,,0.00,VWS V14.01,2013-05-29 07:33:00,
2013-05-29 03:34:00,54.5,53.7,28.91,WSW,248,3.1,3.1,97,0.00,,,0.00,VWS V14.01,2013-05-29 07:34:00,
2013-05-29 03:35:00,50.9,50.1,28.97,WSW,248,6.0,6.0,97,0.00,,,0.00,VWS V14.01,2013-05-29 07:35:00,
2013-05-29 03:36:00,50.9,50.1,28.97,WSW,248,6.0,6.0,97,0.00,,,0.00,VWS V14.01,2013-05-29 07:36:00,
2013-05-29 03:37:00,50.9,50.1,28.97,WSW,248,8.1,8.1,97,0.00,,,0.00,VWS V14.01,2013-05-29 07:37:00,
2013-05-29 03:38:00,50.7,49.9,28.97,WSW,248,6.5,8.1,97,0.00,,,0.00,VWS V14.01,2013-05-29 07:38:00,
2013-05-29 03:39:00,54.5,54.0,28.91,SSW,202,4.7,4.7,98,0.00,,,0.00,VWS V14.01,2013-05-29 07:39:00,
2013-05-29 03:40:00,50.7,49.9,28.97,WSW,248,5.8,6.5,97,0.00,,,0.00,VWS V14.01,2013-05-29 07:40:00,
2013-05-29 03:41:00,50.5,49.7,28.97,West,270,5.6,8.5,97,0.00,,,0.00,VWS V14.01,2013-05-29 07:41:00,
2013-05-29 03:42:00,50.5,49.7,28.97,WSW,248,2.9,6.3,97,0.00,,,0.00,VWS V14.01,2013-05-29 07:42:00,
2013-05-29 03:43:00,50.5,49.7,28.97,WNW,292,4.7,6.3,97,0.00,,,0.00,VWS V14.01,2013-05-29 07:43:00,
2013-05-29 03:44:00,54.5,54.0,28.91,WSW,248,4.3,4.5,98,0.00,,,0.00,VWS V14.01,2013-05-29 07:44:00,
2013-05-29 03:45:00,50.5,50.0,28.97,WSW,248,6.9,8.5,98,0.00,,,0.00,VWS V14.01,2013-05-29 07:45:00,
2013-05-29 03:46:00,50.5,50.0,28.97,WSW,248,5.6,6.9,98,0.00,,,0.00,VWS V14.01,2013-05-29 07:46:00,
2013-05-29 03:47:00,50.5,50.0,28.97,WSW,248,5.6,5.6,98,0.00,,,0.00,VWS V14.01,2013-05-29 07:47:00,
2013-05-29 03:48:00,50.4,49.8,28.97,WSW,248,3.4,6.0,98,0.00,,,0.00,VWS V14.01,2013-05-29 07:48:00,
2013-05-29 03:49:00,54.5,54.0,28.91,West,270,2.7,5.8,98,0.00,,,0.00,VWS V14.01,2013-05-29 07:49:00,
2013-05-29 03:50:00,50.2,49.6,28.97,WSW,248,4.5,5.8,98,0.00,,,0.00,VWS V14.01,2013-05-29 07:50:00,
2013-05-29 03:51:00,50.2,49.6,28.97,WSW,248,3.4,4.5,98,0.00,,,0.00,VWS V14.01,2013-05-29 07:51:00,
2013-05-29 03:52:00,50.2,49.6,28.97,West,270,3.1,3.4,98,0.00,,,0.00,VWS V14.01,2013-05-29 07:52:00,
2013-05-29 03:53:00,50.2,49.6,28.97,West,270,3.1,3.1,98,0.00,,,0.00,VWS V14.01,2013-05-29 07:53:00,
2013-05-29 03:54:00,54.1,53.6,28.91,WSW,248,7.4,7.4,98,0.00,,,0.00,VWS V14.01,2013-05-29 07:54:00,
2013-05-29 03:55:00,50.2,49.6,28.97,WSW,248,4.9,5.6,98,0.00,,,0.00,VWS V14.01,2013-05-29 07:55:00,
2013-05-29 03:56:00,50.2,49.6,28.97,WNW,292,2.9,6.5,98,0.00,,,0.00,VWS V14.01,2013-05-29 07:56:00,
2013-05-29 03:57:00,50.2,49.6,28.97,WSW,248,5.6,6.0,98,0.00,,,0.00,VWS V14.01,2013-05-29 07:57:00,
2013-05-29 03:58:00,50.2,49.6,28.97,WSW,248,4.0,5.6,98,0.00,,,0.00,VWS V14.01,2013-05-29 07:58:00,
2013-05-29 03:59:00,54.0,53.4,28.91,WNW,292,4.9,6.0,98,0.00,,,0.00,VWS V14.01,2013-05-29 07:59:00,
2013-05-29 04:00:00,50.2,49.6,28.97,WSW,248,6.5,6.5,98,0.00,,,0.00,VWS V14.01,2013-05-29 08:00:00,
2013-05-29 04:01:00,50.0,49.5,28.97,SSW,202,4.5,6.5,98,0.00,,,0.00,VWS V14.01,2013-05-29 08:01:00,
2013-05-29 04:02:00,50.0,49.5,28.97,WSW,248,4.0,4.5,98,0.00,,,0.00,VWS V14.01,2013-05-29 08:02:00,
2013-05-29 04:03:00,50.0,49.5,28.97,WSW,248,5.8,5.8,98,0.00,,,0.00,VWS V14.01,2013-05-29 08:03:00,
2013-05-29 04:04:00,53.8,53.2,28.91,WSW,248,4.0,6.5,98,0.00,,,0.00,VWS V14.01,2013-05-29 08:04:00,
2013-05-29 04:05:00,49.8,49.3,28.97,WSW,248,9.6,10.1,98,0.00,,,0.00,VWS V14.01,2013-05-29 08:05:00,
2013-05-29 04:06:00,49.8,49.3,28.97,WSW,248,4.9,9.6,98,0.00,,,0.00,VWS V14.01,2013-05-29 08:06:00,
2013-05-29 04:07:00,49.8,49.3,28.97,WSW,248,7.8,7.8,98,0.00,,,0.00,VWS V14.01,2013-05-29 08:07:00,
2013-05-29 04:08:00,49.8,49.3,28.97,WSW,248,6.0,7.8,98,0.00,,,0.00,VWS V14.01,2013-05-29 08:08:00,
2013-05-29 04:09:00,53.2,52.7,28.91,SW,225,9.4,9.4,98,0.00,,,0.00,VWS V14.01,2013-05-29 08:09:00,
2013-05-29 04:10:00,49.6,49.1,28.97,West,270,4.3,5.6,98,0.00,,,0.00,VWS V14.01,2013-05-29 08:10:00,
2013-05-29 04:11:00,49.6,49.1,28.97,West,270,6.7,6.7,98,0.00,,,0.00,VWS V14.01,2013-05-29 08:11:00,
2013-05-29 04:12:00,49.6,49.1,28.97,WSW,248,5.6,6.7,98,0.00,,,0.00,VWS V14.01,2013-05-29 08:12:00,
2013-05-29 04:13:00,49.6,49.1,28.97,WSW,248,5.4,5.6,98,0.00,,,0.00,VWS V14.01,2013-05-29 08:13:00,
2013-05-29 04:14:00,52.9,52.3,28.91,WSW,248,9.0,9.0,98,0.00,,,0.00,VWS V14.01,2013-05-29 08:14:00,
2013-05-29 04:15:00,49.6,49.1,28.97,WSW,248,2.9,3.8,98,0.00,,,0.00,VWS V14.01,2013-05-29 08:15:00,
2013-05-29 04:16:00,49.6,49.1,28.97,WSW,248,4.9,4.9,98,0.00,,,0.00,VWS V14.01,2013-05-29 08:16:00,
2013-05-29 04:17:00,49.6,49.1,28.97,WSW,248,4.3,5.8,98,0.00,,,0.00,VWS V14.01,2013-05-29 08:17:00,
2013-05-29 04:18:00,49.6,49.1,28.97,WSW,248,4.9,5.8,98,0.00,,,0.00,VWS V14.01,2013-05-29 08:18:00,
2013-05-29 04:19:00,52.3,51.8,28.91,WSW,248,10.5,10.5,98,0.00,,,0.00,VWS V14.01,2013-05-29 08:19:00,
2013-05-29 04:20:00,49.6,49.1,28.97,WSW,248,3.8,4.0,98,0.00,,,0.00,VWS V14.01,2013-05-29 08:20:00,
2013-05-29 04:21:00,49.6,49.1,28.97,WSW,248,6.0,6.0,98,0.00,,,0.00,VWS V14.01,2013-05-29 08:21:00,
2013-05-29 04:22:00,49.6,49.1,28.97,WSW,248,4.3,6.0,98,0.00,,,0.00,VWS V14.01,2013-05-29 08:22:00,
2013-05-29 04:23:00,49.6,49.1,28.97,WSW,248,4.3,4.9,98,0.00,,,0.00,VWS V14.01,2013-05-29 08:23:00,
2013-05-29 04:24:00,51.6,50.8,28.97,WSW,248,9.2,10.3,97,0.00,,,0.00,VWS V14.01,2013-05-29 08:24:00,
2013-05-29 04:25:00,49.5,48.9,28.97,WSW,248,5.4,7.2,98,0.00,,,0.00,VWS V14.01,2013-05-29 08:25:00,
2013-05-29 04:26:00,49.5,48.9,28.97,WSW,248,6.5,6.5,98,0.00,,,0.00,VWS V14.01,2013-05-29 08:26:00,
2013-05-29 04:27:00,49.5,48.9,28.97,West,270,6.0,6.5,98,0.00,,,0.00,VWS V14.01,2013-05-29 08:27:00,
2013-05-29 04:28:00,49.5,48.9,28.97,West,270,3.8,6.0,98,0.00,,,0.00,VWS V14.01,2013-05-29 08:28:00,
2013-05-29 04:29:00,51.3,50.4,28.97,WSW,248,4.7,11.0,97,0.00,,,0.00,VWS V14.01,2013-05-29 08:29:00,
2013-05-29 04:30:00,49.5,48.9,28.97,WSW,248,6.0,7.4,98,0.00,,,0.00,VWS V14.01,2013-05-29 08:30:00,
2013-05-29 04:31:00,49.5,48.9,28.97,WSW,248,6.0,6.0,98,0.00,,,0.00,VWS V14.01,2013-05-29 08:31:00,
2013-05-29 04:32:00,49.5,48.9,28.97,WSW,248,6.0,6.0,98,0.00,,,0.00,VWS V14.01,2013-05-29 08:32:00,
2013-05-29 04:33:00,49.5,48.9,28.97,WSW,248,6.3,7.6,98,0.00,,,0.00,VWS V14.01,2013-05-29 08:33:00,
2013-05-29 04:34:00,51.1,50.3,28.97,West,270,3.8,4.3,97,0.00,,,0.00,VWS V14.01,2013-05-29 08:34:00,
2013-05-29 04:35:00,49.5,48.9,28.97,WSW,248,5.8,7.4,98,0.00,,,0.00,VWS V14.01,2013-05-29 08:35:00,
2013-05-29 04:36:00,49.5,48.9,28.97,WSW,248,4.3,5.8,98,0.00,,,0.00,VWS V14.01,2013-05-29 08:36:00,
2013-05-29 04:37:00,49.6,49.1,28.97,WSW,248,4.5,7.2,98,0.00,,,0.00,VWS V14.01,2013-05-29 08:37:00,
2013-05-29 04:38:00,49.6,49.1,28.97,West,270,4.3,4.7,98,0.00,,,0.00,VWS V14.01,2013-05-29 08:38:00,
2013-05-29 04:39:00,50.7,49.9,28.97,WSW,248,5.4,5.4,97,0.00,,,0.00,VWS V14.01,2013-05-29 08:39:00,
2013-05-29 04:41:00,49.6,49.1,28.97,SSW,202,5.6,5.8,98,0.00,,,0.00,VWS V14.01,2013-05-29 08:41:00,
2013-05-29 04:42:00,49.6,49.1,28.97,WSW,248,5.4,5.6,98,0.00,,,0.00,VWS V14.01,2013-05-29 08:42:00,
2013-05-29 04:43:00,49.6,49.1,28.97,SSW,202,3.4,5.4,98,0.00,,,0.00,VWS V14.01,2013-05-29 08:43:00,
2013-05-29 04:44:00,50.5,50.0,28.97,West,270,8.5,8.5,98,0.00,,,0.00,VWS V14.01,2013-05-29 08:44:00,
2013-05-29 04:45:00,49.8,49.3,28.97,South,180,3.6,5.4,98,0.00,,,0.00,VWS V14.01,2013-05-29 08:45:00,
2013-05-29 04:46:00,49.8,49.3,28.97,WSW,248,4.3,4.3,98,0.00,,,0.00,VWS V14.01,2013-05-29 08:46:00,
2013-05-29 04:47:00,49.8,49.3,28.97,WSW,248,5.8,6.3,98,0.00,,,0.00,VWS V14.01,2013-05-29 08:47:00,
2013-05-29 04:48:00,49.8,49.3,28.97,WSW,248,4.0,5.8,98,0.00,,,0.00,VWS V14.01,2013-05-29 08:48:00,
2013-05-29 04:49:00,50.4,49.8,28.97,WSW,248,5.6,5.8,98,0.00,,,0.00,VWS V14.01,2013-05-29 08:49:00,
2013-05-29 04:50:00,49.8,49.3,28.97,SW,225,3.8,4.9,98,0.00,,,0.00,VWS V14.01,2013-05-29 08:50:00,
2013-05-29 04:51:00,49.8,49.3,28.97,WSW,248,3.6,4.3,98,0.00,,,0.00,VWS V14.01,2013-05-29 08:51:00,
2013-05-29 04:52:00,49.8,49.3,28.97,SW,225,2.9,4.0,98,0.00,,,0.00,VWS V14.01,2013-05-29 08:52:00,
2013-05-29 04:53:00,49.8,49.3,28.97,WSW,248,5.6,5.6,98,0.00,,,0.00,VWS V14.01,2013-05-29 08:53:00,
2013-05-29 04:54:00,50.2,49.6,28.97,WNW,292,5.6,5.6,98,0.00,,,0.00,VWS V14.01,2013-05-29 08:54:00,
2013-05-29 04:55:00,49.8,49.3,28.97,WSW,248,2.0,5.6,98,0.00,,,0.00,VWS V14.01,2013-05-29 08:55:00,
2013-05-29 04:56:00,49.8,49.3,28.97,SW,225,2.7,2.7,98,0.00,,,0.00,VWS V14.01,2013-05-29 08:56:00,
2013-05-29 04:57:00,49.8,49.3,28.97,SSW,202,4.7,4.7,98,0.00,,,0.00,VWS V14.01,2013-05-29 08:57:00,
2013-05-29 04:58:00,49.8,49.3,28.97,WSW,248,3.4,4.7,98,0.00,,,0.00,VWS V14.01,2013-05-29 08:58:00,
2013-05-29 04:59:00,50.2,49.6,28.97,West,270,3.1,4.0,98,0.00,,,0.00,VWS V14.01,2013-05-29 08:59:00,
2013-05-29 05:00:00,49.8,49.3,28.97,WSW,248,3.4,4.0,98,0.00,,,0.00,VWS V14.01,2013-05-29 09:00:00,
2013-05-29 05:01:00,49.8,49.3,28.97,WSW,248,2.9,3.4,98,0.00,,,0.00,VWS V14.01,2013-05-29 09:01:00,
2013-05-29 05:02:00,49.8,49.3,28.97,WSW,248,4.5,4.5,98,0.00,,,0.00,VWS V14.01,2013-05-29 09:02:00,
2013-05-29 05:03:00,49.8,49.3,28.97,WSW,248,3.6,5.4,98,0.00,,,0.00,VWS V14.01,2013-05-29 09:03:00,
2013-05-29 05:04:00,49.8,49.3,28.97,WSW,248,3.8,6.5,98,0.00,,,0.00,VWS V14.01,2013-05-29 09:04:00,
2013-05-29 05:05:00,49.6,49.1,28.97,WSW,248,2.0,4.3,98,0.00,,,0.00,VWS V14.01,2013-05-29 09:05:00,
2013-05-29 05:06:00,49.8,49.3,28.97,SW,225,2.5,3.8,98,0.00,,,0.00,VWS V14.01,2013-05-29 09:06:00,
2013-05-29 05:07:00,49.8,49.3,28.97,WSW,248,2.5,2.5,98,0.00,,,0.00,VWS V14.01,2013-05-29 09:07:00,
2013-05-29 05:08:00,49.8,49.3,28.97,SW,225,3.8,4.3,98,0.00,,,0.00,VWS V14.01,2013-05-29 09:08:00,
2013-05-29 05:09:00,49.8,49.3,28.97,West,270,4.9,6.3,98,0.00,,,0.00,VWS V14.01,2013-05-29 09:09:00,
2013-05-29 05:10:00,49.8,49.3,28.97,SW,225,3.4,3.4,98,0.00,,,0.00,VWS V14.01,2013-05-29 09:10:00,
2013-05-29 05:11:00,49.8,49.3,28.97,SW,225,3.4,3.8,98,0.00,,,0.00,VWS V14.01,2013-05-29 09:11:00,
2013-05-29 05:12:00,49.8,49.3,28.97,South,180,3.1,4.0,98,0.00,,,0.00,VWS V14.01,2013-05-29 09:12:00,
2013-05-29 05:13:00,49.8,49.3,28.97,WSW,248,2.9,3.6,98,0.00,,,0.00,VWS V14.01,2013-05-29 09:13:00,
2013-05-29 05:14:00,49.6,49.1,28.97,WSW,248,2.9,3.8,98,0.00,,,0.00,VWS V14.01,2013-05-29 09:14:00,
2013-05-29 05:15:00,49.8,49.3,28.97,WSW,248,2.9,4.0,98,0.00,,,0.00,VWS V14.01,2013-05-29 09:15:00,
2013-05-29 05:18:00,49.8,49.3,28.97,WSW,248,2.0,3.4,98,0.00,,,0.00,VWS V14.01,2013-05-29 09:18:00,
2013-05-29 05:19:00,49.6,49.1,28.97,WSW,248,3.6,5.6,98,0.00,,,0.00,VWS V14.01,2013-05-29 09:19:00,
2013-05-29 05:20:00,49.8,49.3,28.97,WSW,248,2.0,2.9,98,0.00,,,0.00,VWS V14.01,2013-05-29 09:20:00,
2013-05-29 05:21:00,49.8,49.3,28.97,WSW,248,2.5,2.5,98,0.00,,,0.00,VWS V14.01,2013-05-29 09:21:00,
2013-05-29 05:22:00,49.8,49.3,28.97,SSW,202,3.8,3.8,98,0.00,,,0.00,VWS V14.01,2013-05-29 09:22:00,
2013-05-29 05:23:00,49.8,49.3,28.97,WSW,248,2.2,3.8,98,0.00,,,0.00,VWS V14.01,2013-05-29 09:23:00,
2013-05-29 05:24:00,49.5,48.9,28.97,WSW,248,5.6,7.2,98,0.00,,,0.00,VWS V14.01,2013-05-29 09:24:00,
2013-05-29 05:25:00,49.8,49.3,28.97,SSW,202,2.9,2.9,98,0.00,,,0.00,VWS V14.01,2013-05-29 09:25:00,
2013-05-29 05:26:00,49.8,49.3,28.97,SW,225,4.3,4.3,98,0.00,,,0.00,VWS V14.01,2013-05-29 09:26:00,
2013-05-29 05:27:00,49.8,49.3,28.97,SW,225,3.4,4.3,98,0.00,,,0.00,VWS V14.01,2013-05-29 09:27:00,
2013-05-29 05:28:00,49.8,49.3,28.97,WSW,248,4.3,4.3,98,0.00,,,0.00,VWS V14.01,2013-05-29 09:28:00,
2013-05-29 05:29:00,49.5,48.9,28.97,WSW,248,6.5,7.4,98,0.00,,,0.00,VWS V14.01,2013-05-29 09:29:00,
2013-05-29 05:30:00,49.8,49.3,28.97,WSW,248,2.7,3.1,98,0.00,,,0.00,VWS V14.01,2013-05-29 09:30:00,
2013-05-29 05:31:00,49.8,49.3,28.97,WSW,248,2.9,2.9,98,0.00,,,0.00,VWS V14.01,2013-05-29 09:31:00,
2013-05-29 05:32:00,49.8,49.3,28.97,SW,225,0.9,2.9,98,0.00,,,0.00,VWS V14.01,2013-05-29 09:32:00,
2013-05-29 05:33:00,49.8,49.3,28.97,SSW,202,3.1,4.0,98,0.00,,,0.00,VWS V14.01,2013-05-29 09:33:00,
2013-05-29 05:34:00,49.5,48.9,28.97,WSW,248,5.8,7.4,98,0.00,,,0.00,VWS V14.01,2013-05-29 09:34:00,
2013-05-29 05:35:00,50.0,49.5,28.97,SSW,202,4.3,4.3,98,0.00,,,0.00,VWS V14.01,2013-05-29 09:35:00,
2013-05-29 05:36:00,50.0,49.5,28.97,SW,225,3.4,4.3,98,0.00,,,0.00,VWS V14.01,2013-05-29 09:36:00,
2013-05-29 05:37:00,50.0,49.5,28.97,SSE,158,0.0,3.4,98,0.00,,,0.00,VWS V14.01,2013-05-29 09:37:00,
2013-05-29 05:38:00,50.0,49.5,28.97,SW,225,1.6,3.1,98,0.00,,,0.00,VWS V14.01,2013-05-29 09:38:00,
2013-05-29 05:39:00,49.6,49.1,28.97,SSW,202,5.6,5.8,98,0.00,,,0.00,VWS V14.01,2013-05-29 09:39:00,
2013-05-29 05:40:00,50.0,49.5,28.97,SW,225,2.2,3.6,98,0.00,,,0.00,VWS V14.01,2013-05-29 09:40:00,
2013-05-29 05:41:00,50.0,49.5,28.97,WSW,248,1.1,2.2,98,0.00,,,0.00,VWS V14.01,2013-05-29 09:41:00,
2013-05-29 05:42:00,50.0,49.5,28.97,SSW,202,2.5,2.5,98,0.00,,,0.00,VWS V14.01,2013-05-29 09:42:00,
2013-05-29 05:43:00,50.0,49.5,28.97,SSW,202,1.3,2.5,98,0.00,,,0.00,VWS V14.01,2013-05-29 09:43:00,
2013-05-29 05:44:00,49.8,49.3,28.97,SSW,202,5.4,5.4,98,0.00,,,0.00,VWS V14.01,2013-05-29 09:44:00,
2013-05-29 05:45:00,50.0,49.5,28.97,WSW,248,2.7,3.4,98,0.00,,,0.00,VWS V14.01,2013-05-29 09:45:00,
2013-05-29 05:46:00,50.0,49.5,28.97,WSW,248,1.6,3.1,98,0.00,,,0.00,VWS V14.01,2013-05-29 09:46:00,
2013-05-29 05:47:00,50.0,49.5,28.97,SW,225,0.0,2.5,98,0.00,,,0.00,VWS V14.01,2013-05-29 09:47:00,
2013-05-29 05:48:00,50.2,49.6,28.97,WSW,248,2.5,2.7,98,0.00,,,0.00,VWS V14.01,2013-05-29 09:48:00,
2013-05-29 05:49:00,49.8,49.3,28.97,WSW,248,2.9,4.9,98,0.00,,,0.00,VWS V14.01,2013-05-29 09:49:00,
2013-05-29 05:50:00,50.2,49.6,28.97,WSW,248,3.4,3.6,98,0.00,,,0.00,VWS V14.01,2013-05-29 09:50:00,
2013-05-29 05:51:00,50.2,49.6,28.97,SW,225,2.7,3.8,98,0.00,,,0.00,VWS V14.01,2013-05-29 09:51:00,
2013-05-29 05:52:00,50.2,49.6,28.97,SSW,202,3.6,3.6,98,0.00,,,0.00,VWS V14.01,2013-05-29 09:52:00,
2013-05-29 05:53:00,50.2,49.6,28.97,West,270,3.8,3.8,98,0.00,,,0.00,VWS V14.01,2013-05-29 09:53:00,
2013-05-29 05:54:00,49.8,49.3,28.97,WSW,248,5.6,5.6,98,0.00,,,0.00,VWS V14.01,2013-05-29 09:54:00,
2013-05-29 05:55:00,50.2,49.6,29.00,WSW,248,2.5,4.3,98,0.00,,,0.00,VWS V14.01,2013-05-29 09:55:00,
2013-05-29 05:56:00,50.2,49.6,29.00,WSW,248,5.6,5.6,98,0.00,,,0.00,VWS V14.01,2013-05-29 09:56:00,
2013-05-29 05:57:00,50.2,49.6,29.00,WSW,248,3.8,5.6,98,0.00,,,0.00,VWS V14.01,2013-05-29 09:57:00,
2013-05-29 05:58:00,50.2,49.6,29.00,SW,225,3.6,4.0,98,0.00,,,0.00,VWS V14.01,2013-05-29 09:58:00,
2013-05-29 05:59:00,49.8,49.3,28.97,SW,225,3.8,4.0,98,0.00,,,0.00,VWS V14.01,2013-05-29 09:59:00,
2013-05-29 06:00:00,50.2,49.6,29.00,WSW,248,3.1,3.8,98,0.00,,,0.00,VWS V14.01,2013-05-29 10:00:00,
2013-05-29 06:01:00,50.2,49.6,29.00,WSW,248,3.1,3.8,98,0.00,,,0.00,VWS V14.01,2013-05-29 10:01:00,
2013-05-29 06:02:00,50.2,49.6,29.00,West,270,3.6,6.3,98,0.00,,,0.00,VWS V14.01,2013-05-29 10:02:00,
2013-05-29 06:03:00,50.2,49.6,29.00,WSW,248,3.1,3.6,98,0.00,,,0.00,VWS V14.01,2013-05-29 10:03:00,
2013-05-29 06:04:00,49.6,49.1,28.97,SW,225,4.3,4.3,98,0.00,,,0.00,VWS V14.01,2013-05-29 10:04:00,
2013-05-29 06:05:00,50.2,49.6,29.00,WSW,248,2.2,5.6,98,0.00,,,0.00,VWS V14.01,2013-05-29 10:05:00,
2013-05-29 06:06:00,50.4,49.8,29.00,SW,225,3.1,3.6,98,0.00,,,0.00,VWS V14.01,2013-05-29 10:06:00,
2013-05-29 06:07:00,50.4,49.8,29.00,WSW,248,4.3,4.3,98,0.00,,,0.00,VWS V14.01,2013-05-29 10:07:00,
2013-05-29 06:08:00,50.4,49.8,29.00,WSW,248,0.0,4.3,98,0.00,,,0.00,VWS V14.01,2013-05-29 10:08:00,
2013-05-29 06:09:00,50.4,49.8,29.00,SW,225,1.3,1.3,98,0.00,,,0.00,VWS V14.01,2013-05-29 10:09:00,
2013-05-29 06:10:00,49.8,49.3,28.97,SW,225,3.4,4.7,98,0.00,,,0.00,VWS V14.01,2013-05-29 10:10:00,
2013-05-29 06:11:00,50.4,49.8,29.00,WSW,248,2.9,3.1,98,0.00,,,0.00,VWS V14.01,2013-05-29 10:11:00,
2013-05-29 06:12:00,50.5,50.0,29.00,SW,225,3.4,4.3,98,0.00,,,0.00,VWS V14.01,2013-05-29 10:12:00,
2013-05-29 06:13:00,50.5,50.0,29.00,WSW,248,2.5,3.6,98,0.00,,,0.00,VWS V14.01,2013-05-29 10:13:00,
2013-05-29 06:14:00,50.5,50.0,29.00,WSW,248,3.8,3.8,98,0.00,,,0.00,VWS V14.01,2013-05-29 10:14:00,
2013-05-29 06:15:00,49.8,49.3,28.97,WSW,248,3.6,4.0,98,0.00,,,0.00,VWS V14.01,2013-05-29 10:15:00,
2013-05-29 06:16:00,50.7,50.2,29.00,SW,225,2.7,4.5,98,0.00,,,0.00,VWS V14.01,2013-05-29 10:16:00,
2013-05-29 06:17:00,50.7,50.2,29.00,SSW,202,4.7,4.7,98,0.00,,,0.00,VWS V14.01,2013-05-29 10:17:00,
2013-05-29 06:18:00,50.7,50.2,29.00,WSW,248,3.4,4.7,98,0.00,,,0.00,VWS V14.01,2013-05-29 10:18:00,
2013-05-29 06:19:00,50.7,50.2,29.00,West,270,5.8,5.8,98,0.00,,,0.00,VWS V14.01,2013-05-29 10:19:00,
2013-05-29 06:20:00,49.8,49.3,28.97,SW,225,1.6,2.9,98,0.00,,,0.00,VWS V14.01,2013-05-29 10:20:00,
2013-05-29 06:21:00,50.7,50.2,29.00,SSW,202,2.7,3.6,98,0.00,,,0.00,VWS V14.01,2013-05-29 10:21:00,
2013-05-29 06:22:00,50.9,50.4,29.00,WSW,248,3.6,3.6,98,0.00,,,0.00,VWS V14.01,2013-05-29 10:22:00,
2013-05-29 06:23:00,50.9,50.4,29.00,SW,225,4.3,4.3,98,0.00,,,0.00,VWS V14.01,2013-05-29 10:23:00,
2013-05-29 06:24:00,50.9,50.4,29.00,SSW,202,3.8,4.3,98,0.00,,,0.00,VWS V14.01,2013-05-29 10:24:00,
2013-05-29 06:25:00,49.8,49.3,28.97,SSW,202,2.9,2.9,98,0.00,,,0.00,VWS V14.01,2013-05-29 10:25:00,
2013-05-29 06:26:00,50.9,50.4,29.00,WSW,248,3.6,4.0,98,0.00,,,0.00,VWS V14.01,2013-05-29 10:26:00,
2013-05-29 06:27:00,50.9,50.4,29.00,WSW,248,3.1,3.6,98,0.00,,,0.00,VWS V14.01,2013-05-29 10:27:00,
2013-05-29 06:28:00,50.9,50.4,29.00,SSW,202,3.4,3.4,98,0.00,,,0.00,VWS V14.01,2013-05-29 10:28:00,
2013-05-29 06:29:00,51.1,50.5,29.00,SSW,202,2.9,3.4,98,0.00,,,0.00,VWS V14.01,2013-05-29 10:29:00,
2013-05-29 06:30:00,49.8,49.3,28.97,WSW,248,2.7,3.1,98,0.00,,,0.00,VWS V14.01,2013-05-29 10:30:00,
2013-05-29 06:31:00,50.9,50.4,29.00,SSW,202,2.2,3.6,98,0.00,,,0.00,VWS V14.01,2013-05-29 10:31:00,
2013-05-29 06:32:00,51.1,50.5,29.00,SW,225,4.7,4.7,98,0.00,,,0.00,VWS V14.01,2013-05-29 10:32:00,
2013-05-29 06:33:00,51.1,50.5,29.00,SW,225,4.7,4.7,98,0.00,,,0.00,VWS V14.01,2013-05-29 10:33:00,
2013-05-29 06:34:00,51.1,50.5,29.00,South,180,2.2,4.7,98,0.00,,,0.00,VWS V14.01,2013-05-29 10:34:00,
2013-05-29 06:35:00,50.0,49.5,28.97,SSW,202,4.3,4.3,98,0.00,,,0.00,VWS V14.01,2013-05-29 10:35:00,
2013-05-29 06:36:00,50.9,50.4,29.00,SSW,202,3.1,3.6,98,0.00,,,0.00,VWS V14.01,2013-05-29 10:36:00,
2013-05-29 06:37:00,50.9,50.4,29.03,WSW,248,0.9,4.7,98,0.00,,,0.00,VWS V14.01,2013-05-29 10:37:00,
2013-05-29 06:38:00,51.1,50.5,29.03,WSW,248,2.5,2.7,98,0.00,,,0.00,VWS V14.01,2013-05-29 10:38:00,
2013-05-29 06:39:00,51.1,50.5,29.03,WSW,248,3.1,3.1,98,0.00,,,0.00,VWS V14.01,2013-05-29 10:39:00,
2013-05-29 06:40:00,50.0,49.5,28.97,SW,225,2.2,3.6,98,0.00,,,0.00,VWS V14.01,2013-05-29 10:40:00,
2013-05-29 06:41:00,50.9,50.4,29.03,SSW,202,2.9,5.6,98,0.00,,,0.00,VWS V14.01,2013-05-29 10:41:00,
2013-05-29 06:42:00,50.9,50.4,29.03,WSW,248,2.9,4.3,98,0.00,,,0.00,VWS V14.01,2013-05-29 10:42:00,
2013-05-29 06:43:00,50.9,50.4,29.03,WSW,248,4.3,4.9,98,0.00,,,0.00,VWS V14.01,2013-05-29 10:43:00,
2013-05-29 06:44:00,50.9,50.4,29.03,SW,225,3.6,4.3,98,0.00,,,0.00,VWS V14.01,2013-05-29 10:44:00,
2013-05-29 06:45:00,50.0,49.5,28.97,WSW,248,2.7,3.4,98,0.00,,,0.00,VWS V14.01,2013-05-29 10:45:00,
2013-05-29 06:46:00,50.9,50.4,29.03,WSW,248,6.3,6.3,98,0.00,,,0.00,VWS V14.01,2013-05-29 10:46:00,
2013-05-29 06:47:00,50.9,50.4,29.03,SSW,202,3.8,6.3,98,0.00,,,0.00,VWS V14.01,2013-05-29 10:47:00,
2013-05-29 06:48:00,50.9,50.4,29.03,SSW,202,2.7,4.9,98,0.00,,,0.00,VWS V14.01,2013-05-29 10:48:00,
2013-05-29 06:49:00,50.9,50.4,29.03,WSW,248,3.6,5.4,98,0.00,,,0.00,VWS V14.01,2013-05-29 10:49:00,
2013-05-29 06:50:00,50.2,49.6,28.97,WSW,248,3.4,3.6,98,0.00,,,0.00,VWS V14.01,2013-05-29 10:50:00,
2013-05-29 06:51:00,50.9,50.4,29.03,WSW,248,1.1,4.3,98,0.00,,,0.00,VWS V14.01,2013-05-29 10:51:00,
2013-05-29 06:52:00,50.9,50.4,29.03,WSW,248,3.1,3.1,98,0.00,,,0.00,VWS V14.01,2013-05-29 10:52:00,
2013-05-29 06:53:00,50.9,50.4,29.03,SW,225,3.4,3.4,98,0.00,,,0.00,VWS V14.01,2013-05-29 10:53:00,
2013-05-29 06:54:00,51.1,50.5,29.03,WSW,248,2.7,3.4,98,0.00,,,0.00,VWS V14.01,2013-05-29 10:54:00,
2013-05-29 06:55:00,50.2,49.6,29.00,WSW,248,2.5,4.3,98,0.00,,,0.00,VWS V14.01,2013-05-29 10:55:00,
2013-05-29 06:57:00,51.1,50.5,29.03,WSW,248,3.6,4.0,98,0.00,,,0.00,VWS V14.01,2013-05-29 10:57:00,
2013-05-29 06:58:00,51.1,50.5,29.03,WSW,248,3.6,4.9,98,0.00,,,0.00,VWS V14.01,2013-05-29 10:58:00,
2013-05-29 06:59:00,51.1,50.5,29.03,WSW,248,3.4,4.3,98,0.00,,,0.00,VWS V14.01,2013-05-29 10:59:00,
2013-05-29 07:00:00,50.2,49.6,29.00,WSW,248,3.8,3.8,98,0.00,,,0.00,VWS V14.01,2013-05-29 11:00:00,
2013-05-29 07:01:00,51.1,50.5,29.03,WSW,248,4.3,4.3,98,0.00,,,0.00,VWS V14.01,2013-05-29 11:01:00,
2013-05-29 07:02:00,51.3,50.7,29.03,SW,225,2.7,4.3,98,0.00,,,0.00,VWS V14.01,2013-05-29 11:02:00,
2013-05-29 07:05:00,50.2,49.6,29.00,WSW,248,2.2,5.6,98,0.00,,,0.00,VWS V14.01,2013-05-29 11:05:00,
2013-05-29 07:06:00,51.3,50.7,29.03,WSW,248,3.6,4.7,98,0.00,,,0.00,VWS V14.01,2013-05-29 11:06:00,
2013-05-29 07:07:00,51.3,50.7,29.03,WSW,248,3.4,3.6,98,0.00,,,0.00,VWS V14.01,2013-05-29 11:07:00,
2013-05-29 07:08:00,51.3,50.7,29.03,WSW,248,2.9,3.6,98,0.00,,,0.00,VWS V14.01,2013-05-29 11:08:00,
2013-05-29 07:09:00,51.3,50.7,29.03,West,270,2.9,2.9,98,0.00,,,0.00,VWS V14.01,2013-05-29 11:09:00,
2013-05-29 07:10:00,50.4,49.8,29.00,SW,225,1.3,1.3,98,0.00,,,0.00,VWS V14.01,2013-05-29 11:10:00,
2013-05-29 07:12:00,51.4,50.9,29.03,SSW,202,3.6,4.5,98,0.00,,,0.00,VWS V14.01,2013-05-29 11:12:00,
2013-05-29 07:13:00,51.4,50.9,29.03,WSW,248,2.5,3.6,98,0.00,,,0.00,VWS V14.01,2013-05-29 11:13:00,
2013-05-29 07:14:00,51.4,50.9,29.03,SW,225,2.0,2.9,98,0.00,,,0.00,VWS V14.01,2013-05-29 11:14:00,
2013-05-29 07:15:00,50.7,50.2,29.00,SSW,202,2.5,3.1,98,0.00,,,0.00,VWS V14.01,2013-05-29 11:15:00,
2013-05-29 07:16:00,51.4,50.9,29.03,SW,225,2.9,4.3,98,0.00,,,0.00,VWS V14.01,2013-05-29 11:16:00,
2013-05-29 07:17:00,51.4,50.9,29.03,WSW,248,2.7,2.9,98,0.00,,,0.00,VWS V14.01,2013-05-29 11:17:00,
2013-05-29 07:19:00,51.6,51.1,29.03,SW,225,2.7,2.7,98,0.00,,,0.00,VWS V14.01,2013-05-29 11:19:00,
2013-05-29 07:20:00,50.7,50.2,29.00,SW,225,3.6,3.6,98,0.00,,,0.00,VWS V14.01,2013-05-29 11:20:00,
2013-05-29 07:21:00,51.6,51.1,29.03,WSW,248,2.5,3.6,98,0.00,,,0.00,VWS V14.01,2013-05-29 11:21:00,
2013-05-29 07:22:00,51.6,51.1,29.03,SSW,202,3.8,3.8,98,0.00,,,0.00,VWS V14.01,2013-05-29 11:22:00,
2013-05-29 07:23:00,51.6,51.1,29.03,SSW,202,3.6,3.8,98,0.00,,,0.00,VWS V14.01,2013-05-29 11:23:00,
2013-05-29 07:24:00,51.6,51.1,29.03,SW,225,3.8,3.8,98,0.00,,,0.00,VWS V14.01,2013-05-29 11:24:00,
2013-05-29 07:25:00,50.9,50.4,29.00,SSW,202,4.0,4.0,98,0.00,,,0.00,VWS V14.01,2013-05-29 11:25:00,
2013-05-29 07:26:00,51.6,51.1,29.03,SW,225,3.4,3.4,98,0.00,,,0.00,VWS V14.01,2013-05-29 11:26:00,
2013-05-29 07:27:00,51.6,51.1,29.03,SW,225,2.2,3.4,98,0.00,,,0.00,VWS V14.01,2013-05-29 11:27:00,
2013-05-29 07:30:00,50.9,50.4,29.00,SSW,202,3.6,3.6,98,0.00,,,0.00,VWS V14.01,2013-05-29 11:30:00,
2013-05-29 07:31:00,51.8,51.3,29.03,SW,225,3.6,6.5,98,0.00,,,0.00,VWS V14.01,2013-05-29 11:31:00,
2013-05-29 07:32:00,51.6,51.1,29.03,South,180,3.4,4.0,98,0.00,,,0.00,VWS V14.01,2013-05-29 11:32:00,
2013-05-29 07:33:00,51.6,51.1,29.03,WSW,248,3.4,5.6,98,0.00,,,0.00,VWS V14.01,2013-05-29 11:33:00,
2013-05-29 07:34:00,51.6,51.1,29.03,SW,225,4.9,4.9,98,0.00,,,0.00,VWS V14.01,2013-05-29 11:34:00,
2013-05-29 07:35:00,50.9,50.4,29.00,WSW,248,2.9,2.9,98,0.00,,,0.00,VWS V14.01,2013-05-29 11:35:00,
2013-05-29 07:36:00,51.8,51.3,29.03,SW,225,3.1,3.8,98,0.00,,,0.00,VWS V14.01,2013-05-29 11:36:00,
2013-05-29 07:37:00,51.8,51.3,29.03,West,270,4.3,4.3,98,0.00,,,0.00,VWS V14.01,2013-05-29 11:37:00,
2013-05-29 07:38:00,51.8,51.3,29.03,West,270,5.4,5.4,98,0.00,,,0.00,VWS V14.01,2013-05-29 11:38:00,
2013-05-29 07:39:00,51.6,51.1,29.03,WSW,248,5.6,6.7,98,0.00,,,0.00,VWS V14.01,2013-05-29 11:39:00,
2013-05-29 07:40:00,50.9,50.4,29.03,SSW,202,5.6,5.6,98,0.00,,,0.00,VWS V14.01,2013-05-29 11:40:00,
2013-05-29 07:41:00,51.6,51.1,29.03,WSW,248,4.7,5.8,98,0.00,,,0.00,VWS V14.01,2013-05-29 11:41:00,
2013-05-29 07:42:00,51.6,51.1,29.03,SW,225,3.6,4.7,98,0.00,,,0.00,VWS V14.01,2013-05-29 11:42:00,
2013-05-29 07:43:00,51.6,51.1,29.03,WSW,248,4.9,6.0,98,0.00,,,0.00,VWS V14.01,2013-05-29 11:43:00,
2013-05-29 07:45:00,50.9,50.4,29.03,WSW,248,4.0,4.0,98,0.00,,,0.00,VWS V14.01,2013-05-29 11:45:00,
2013-05-29 07:46:00,51.8,51.3,29.03,West,270,3.1,5.8,98,0.00,,,0.00,VWS V14.01,2013-05-29 11:46:00,
2013-05-29 07:47:00,51.8,51.3,29.03,WSW,248,3.1,5.8,98,0.00,,,0.00,VWS V14.01,2013-05-29 11:47:00,
2013-05-29 07:48:00,51.8,51.3,29.03,SW,225,3.1,4.0,98,0.00,,,0.00,VWS V14.01,2013-05-29 11:48:00,
2013-05-29 07:49:00,51.8,51.3,29.03,SW,225,4.0,5.8,98,0.00,,,0.00,VWS V14.01,2013-05-29 11:49:00,
2013-05-29 07:50:00,50.9,50.4,29.03,SSW,202,4.3,4.3,98,0.00,,,0.00,VWS V14.01,2013-05-29 11:50:00,
2013-05-29 07:51:00,52.0,51.4,29.03,WSW,248,3.8,3.8,98,0.00,,,0.00,VWS V14.01,2013-05-29 11:51:00,
2013-05-29 07:52:00,52.0,51.4,29.03,West,270,7.4,7.4,98,0.00,,,0.00,VWS V14.01,2013-05-29 11:52:00,
2013-05-29 07:53:00,52.0,51.4,29.03,SW,225,6.0,7.4,98,0.00,,,0.00,VWS V14.01,2013-05-29 11:53:00,
2013-05-29 07:54:00,52.0,51.4,29.03,WSW,248,5.4,7.4,98,0.00,,,0.00,VWS V14.01,2013-05-29 11:54:00,
2013-05-29 07:55:00,51.1,50.5,29.03,WSW,248,4.0,4.0,98,0.00,,,0.00,VWS V14.01,2013-05-29 11:55:00,
2013-05-29 07:56:00,52.0,51.4,29.03,SW,225,3.8,3.8,98,0.00,,,0.00,VWS V14.01,2013-05-29 11:56:00,
2013-05-29 07:57:00,52.2,51.6,29.03,WSW,248,5.6,5.6,98,0.00,,,0.00,VWS V14.01,2013-05-29 11:57:00,
2013-05-29 07:58:00,52.2,51.6,29.03,SSW,202,5.8,5.8,98,0.00,,,0.00,VWS V14.01,2013-05-29 11:58:00,
2013-05-29 07:59:00,52.2,51.6,29.03,WSW,248,4.0,5.8,98,0.00,,,0.00,VWS V14.01,2013-05-29 11:59:00,
2013-05-29 08:00:00,51.1,50.5,29.03,WSW,248,4.3,4.3,98,0.00,,,0.00,VWS V14.01,2013-05-29 12:00:00,
2013-05-29 08:01:00,52.2,51.6,29.03,WSW,248,4.9,6.0,98,0.00,,,0.00,VWS V14.01,2013-05-29 12:01:00,
2013-05-29 08:02:00,52.2,51.6,29.03,WSW,248,6.0,6.0,98,0.00,,,0.00,VWS V14.01,2013-05-29 12:02:00,
2013-05-29 08:03:00,52.2,51.6,29.03,WSW,248,6.3,6.3,98,0.00,,,0.00,VWS V14.01,2013-05-29 12:03:00,
2013-05-29 08:04:00,52.2,51.6,29.03,WSW,248,4.3,6.3,98,0.00,,,0.00,VWS V14.01,2013-05-29 12:04:00,
2013-05-29 08:05:00,51.3,50.7,29.03,SW,225,4.0,4.7,98,0.00,,,0.00,VWS V14.01,2013-05-29 12:05:00,
2013-05-29 08:06:00,52.3,51.8,29.03,SW,225,3.1,6.0,98,0.00,,,0.00,VWS V14.01,2013-05-29 12:06:00,
2013-05-29 08:07:00,52.3,51.8,29.03,WSW,248,3.8,4.0,98,0.00,,,0.00,VWS V14.01,2013-05-29 12:07:00,
2013-05-29 08:08:00,52.3,51.8,29.03,WSW,248,4.9,5.8,98,0.00,,,0.00,VWS V14.01,2013-05-29 12:08:00,
2013-05-29 08:09:00,52.3,51.8,29.03,WSW,248,4.9,4.9,98,0.00,,,0.00,VWS V14.01,2013-05-29 12:09:00,
2013-05-29 08:10:00,51.4,50.9,29.03,SSW,202,3.1,4.0,98,0.00,,,0.00,VWS V14.01,2013-05-29 12:10:00,
2013-05-29 08:11:00,52.3,51.8,29.03,WSW,248,5.8,7.6,98,0.00,,,0.00,VWS V14.01,2013-05-29 12:11:00,
2013-05-29 08:12:00,52.3,51.8,29.03,WSW,248,3.6,5.8,98,0.00,,,0.00,VWS V14.01,2013-05-29 12:12:00,
2013-05-29 08:13:00,52.3,51.8,29.03,WSW,248,2.5,6.3,98,0.00,,,0.00,VWS V14.01,2013-05-29 12:13:00,
2013-05-29 08:14:00,52.3,51.8,29.03,West,270,4.9,5.8,98,0.00,,,0.00,VWS V14.01,2013-05-29 12:14:00,
2013-05-29 08:15:00,51.4,50.9,29.03,SW,225,3.1,4.3,98,0.00,,,0.00,VWS V14.01,2013-05-29 12:15:00,
2013-05-29 08:16:00,52.3,51.8,29.03,SSW,202,2.9,4.9,98,0.00,,,0.00,VWS V14.01,2013-05-29 12:16:00,
2013-05-29 08:17:00,52.7,52.2,29.03,WSW,248,1.3,2.9,98,0.00,,,0.00,VWS V14.01,2013-05-29 12:17:00,
2013-05-29 08:18:00,52.7,52.2,29.03,SSW,202,3.1,3.4,98,0.00,,,0.00,VWS V14.01,2013-05-29 12:18:00,
2013-05-29 08:19:00,52.7,52.2,29.03,West,270,4.3,5.6,98,0.00,,,0.00,VWS V14.01,2013-05-29 12:19:00,
2013-05-29 08:20:00,51.6,51.1,29.03,WSW,248,2.0,3.6,98,0.00,,,0.00,VWS V14.01,2013-05-29 12:20:00,
2013-05-29 08:21:00,52.5,52.0,29.03,West,270,4.9,6.0,98,0.00,,,0.00,VWS V14.01,2013-05-29 12:21:00,
2013-05-29 08:22:00,52.5,52.0,29.03,WSW,248,5.4,6.3,98,0.00,,,0.00,VWS V14.01,2013-05-29 12:22:00,
2013-05-29 08:23:00,52.5,52.0,29.03,West,270,3.8,7.4,98,0.00,,,0.00,VWS V14.01,2013-05-29 12:23:00,
2013-05-29 08:24:00,52.5,52.0,29.03,WNW,292,5.6,5.6,98,0.00,,,0.00,VWS V14.01,2013-05-29 12:24:00,
2013-05-29 08:25:00,51.6,51.1,29.03,SW,225,3.4,3.8,98,0.00,,,0.00,VWS V14.01,2013-05-29 12:25:00,
2013-05-29 08:26:00,52.7,52.2,29.03,SW,225,3.1,3.6,98,0.00,,,0.00,VWS V14.01,2013-05-29 12:26:00,
2013-05-29 08:27:00,52.7,52.2,29.03,WSW,248,2.9,3.1,98,0.00,,,0.00,VWS V14.01,2013-05-29 12:27:00,
2013-05-29 08:28:00,52.7,52.2,29.03,WSW,248,4.0,4.0,98,0.00,,,0.00,VWS V14.01,2013-05-29 12:28:00,
2013-05-29 08:29:00,52.9,52.3,29.03,SW,225,3.1,4.0,98,0.00,,,0.00,VWS V14.01,2013-05-29 12:29:00,
2013-05-29 08:30:00,51.8,51.3,29.03,South,180,6.5,6.5,98,0.00,,,0.00,VWS V14.01,2013-05-29 12:30:00,
2013-05-29 08:31:00,52.9,52.3,29.03,WSW,248,5.4,5.4,98,0.00,,,0.00,VWS V14.01,2013-05-29 12:31:00,
2013-05-29 08:32:00,52.9,52.3,29.03,WSW,248,4.0,5.4,98,0.00,,,0.00,VWS V14.01,2013-05-29 12:32:00,
2013-05-29 08:33:00,53.1,52.5,29.03,SW,225,3.8,4.0,98,0.00,,,0.00,VWS V14.01,2013-05-29 12:33:00,
2013-05-29 08:34:00,53.1,52.5,29.03,SW,225,1.6,3.8,98,0.00,,,0.00,VWS V14.01,2013-05-29 12:34:00,
2013-05-29 08:35:00,51.8,51.3,29.03,WSW,248,2.7,3.8,98,0.00,,,0.00,VWS V14.01,2013-05-29 12:35:00,
2013-05-29 08:36:00,53.1,52.5,29.03,WSW,248,4.0,5.4,98,0.00,,,0.00,VWS V14.01,2013-05-29 12:36:00,
2013-05-29 08:37:00,53.2,52.7,29.03,WSW,248,3.4,4.9,98,0.00,,,0.00,VWS V14.01,2013-05-29 12:37:00,
2013-05-29 08:38:00,53.2,52.7,29.03,SW,225,3.6,6.0,98,0.00,,,0.00,VWS V14.01,2013-05-29 12:38:00,
2013-05-29 08:39:00,53.2,52.7,29.03,SW,225,3.6,4.3,98,0.00,,,0.00,VWS V14.01,2013-05-29 12:39:00,
2013-05-29 08:40:00,51.6,51.1,29.03,West,270,4.3,5.8,98,0.00,,,0.00,VWS V14.01,2013-05-29 12:40:00,
2013-05-29 08:42:00,53.6,53.0,29.03,SW,225,3.6,3.6,98,0.00,,,0.00,VWS V14.01,2013-05-29 12:42:00,
2013-05-29 08:43:00,53.8,53.2,29.03,WSW,248,3.6,3.6,98,0.00,,,0.00,VWS V14.01,2013-05-29 12:43:00,
2013-05-29 08:44:00,53.8,53.2,29.03,WSW,248,2.7,4.5,98,0.00,,,0.00,VWS V14.01,2013-05-29 12:44:00,
2013-05-29 08:45:00,53.8,53.2,29.03,WSW,248,2.9,3.8,98,0.00,,,0.00,VWS V14.01,2013-05-29 12:45:00,
2013-05-29 08:46:00,51.8,51.3,29.03,WSW,248,3.6,5.8,98,0.00,,,0.00,VWS V14.01,2013-05-29 12:46:00,
2013-05-29 08:47:00,53.8,53.2,29.03,WSW,248,3.6,5.4,98,0.00,,,0.00,VWS V14.01,2013-05-29 12:47:00,
2013-05-29 08:48:00,53.8,53.2,29.03,WSW,248,3.6,4.3,98,0.00,,,0.00,VWS V14.01,2013-05-29 12:48:00,
2013-05-29 08:49:00,53.8,53.2,29.03,SW,225,4.0,6.3,98,0.00,,,0.00,VWS V14.01,2013-05-29 12:49:00,
2013-05-29 08:50:00,53.8,53.2,29.03,SW,225,3.8,5.6,98,0.00,,,0.00,VWS V14.01,2013-05-29 12:50:00,
2013-05-29 08:51:00,52.0,51.4,29.03,West,270,3.4,3.4,98,0.00,,,0.00,VWS V14.01,2013-05-29 12:51:00,
2013-05-29 08:52:00,53.8,53.2,29.03,WSW,248,4.3,4.3,98,0.00,,,0.00,VWS V14.01,2013-05-29 12:52:00,
2013-05-29 08:53:00,54.0,53.4,29.03,WSW,248,3.4,6.0,98,0.00,,,0.00,VWS V14.01,2013-05-29 12:53:00,
2013-05-29 08:54:00,54.0,53.4,29.03,WSW,248,3.4,3.6,98,0.00,,,0.00,VWS V14.01,2013-05-29 12:54:00,
2013-05-29 08:55:00,53.8,53.2,29.03,WSW,248,6.3,6.3,98,0.00,,,0.00,VWS V14.01,2013-05-29 12:55:00,
2013-05-29 08:56:00,52.0,51.4,29.03,SW,225,3.8,3.8,98,0.00,,,0.00,VWS V14.01,2013-05-29 12:56:00,
2013-05-29 08:57:00,54.0,53.4,29.03,WSW,248,5.4,8.5,98,0.00,,,0.00,VWS V14.01,2013-05-29 12:57:00,
2013-05-29 08:58:00,54.0,53.4,29.03,WSW,248,6.3,6.3,98,0.00,,,0.00,VWS V14.01,2013-05-29 12:58:00,
2013-05-29 08:59:00,54.0,53.4,29.03,West,270,7.6,7.6,98,0.00,,,0.00,VWS V14.01,2013-05-29 12:59:00,
2013-05-29 09:00:00,54.0,53.4,29.03,WSW,248,4.0,7.6,98,0.00,,,0.00,VWS V14.01,2013-05-29 13:00:00,
2013-05-29 09:01:00,52.2,51.6,29.03,WSW,248,4.9,6.0,98,0.00,,,0.00,VWS V14.01,2013-05-29 13:01:00,
2013-05-29 09:02:00,54.0,53.4,29.03,West,270,6.5,6.5,98,0.00,,,0.00,VWS V14.01,2013-05-29 13:02:00,
2013-05-29 09:03:00,54.0,53.4,29.03,WSW,248,4.3,6.5,98,0.00,,,0.00,VWS V14.01,2013-05-29 13:03:00,
2013-05-29 09:04:00,54.0,53.4,29.03,SSW,202,3.1,4.7,98,0.00,,,0.00,VWS V14.01,2013-05-29 13:04:00,
2013-05-29 09:05:00,54.1,53.6,29.03,SW,225,3.8,3.8,98,0.00,,,0.00,VWS V14.01,2013-05-29 13:05:00,
2013-05-29 09:06:00,52.3,51.8,29.03,SW,225,3.1,6.0,98,0.00,,,0.00,VWS V14.01,2013-05-29 13:06:00,
2013-05-29 09:07:00,54.1,53.6,29.03,WSW,248,3.4,5.8,98,0.00,,,0.00,VWS V14.01,2013-05-29 13:07:00,
2013-05-29 09:08:00,54.3,53.8,29.06,WSW,248,3.1,4.9,98,0.00,,,0.00,VWS V14.01,2013-05-29 13:08:00,
2013-05-29 09:09:00,54.3,53.8,29.06,West,270,6.0,6.0,98,0.00,,,0.00,VWS V14.01,2013-05-29 13:09:00,
2013-05-29 09:10:00,54.1,53.6,29.06,WSW,248,7.8,11.0,98,0.00,,,0.00,VWS V14.01,2013-05-29 13:10:00,
2013-05-29 09:11:00,52.3,51.8,29.03,West,270,4.9,7.6,98,0.00,,,0.00,VWS V14.01,2013-05-29 13:11:00,
2013-05-29 09:12:00,54.1,53.6,29.06,WSW,248,7.2,7.2,98,0.00,,,0.00,VWS V14.01,2013-05-29 13:12:00,
2013-05-29 09:13:00,54.3,53.8,29.06,WSW,248,8.5,8.5,98,0.00,,,0.00,VWS V14.01,2013-05-29 13:13:00,
2013-05-29 09:14:00,54.3,53.8,29.06,WSW,248,4.3,8.5,98,0.00,,,0.00,VWS V14.01,2013-05-29 13:14:00,
2013-05-29 09:15:00,54.3,53.8,29.06,WSW,248,4.9,7.4,98,0.00,,,0.00,VWS V14.01,2013-05-29 13:15:00,
2013-05-29 09:16:00,52.3,51.8,29.03,SSW,202,2.9,4.9,98,0.00,,,0.00,VWS V14.01,2013-05-29 13:16:00,
2013-05-29 09:17:00,54.5,54.0,29.06,West,270,5.8,8.1,98,0.00,,,0.00,VWS V14.01,2013-05-29 13:17:00,
2013-05-29 09:18:00,54.5,54.0,29.06,WSW,248,4.9,5.8,98,0.00,,,0.00,VWS V14.01,2013-05-29 13:18:00,
2013-05-29 09:19:00,54.5,54.0,29.06,SSW,202,6.3,8.1,98,0.00,,,0.00,VWS V14.01,2013-05-29 13:19:00,
2013-05-29 09:20:00,54.5,54.0,29.06,WSW,248,3.4,6.3,98,0.00,,,0.00,VWS V14.01,2013-05-29 13:20:00,
2013-05-29 09:21:00,52.5,52.0,29.03,WSW,248,5.8,6.0,98,0.00,,,0.00,VWS V14.01,2013-05-29 13:21:00,
2013-05-29 09:22:00,54.7,54.1,29.09,WSW,248,3.1,6.5,98,0.00,,,0.00,VWS V14.01,2013-05-29 13:22:00,
2013-05-29 09:23:00,54.7,54.1,29.09,WSW,248,4.0,5.8,98,0.00,,,0.00,VWS V14.01,2013-05-29 13:23:00,
2013-05-29 09:24:00,54.9,54.3,29.09,WSW,248,4.7,4.9,98,0.00,,,0.00,VWS V14.01,2013-05-29 13:24:00,
2013-05-29 09:25:00,54.9,54.3,29.09,South,180,3.8,6.3,98,0.00,,,0.00,VWS V14.01,2013-05-29 13:25:00,
2013-05-29 09:26:00,52.7,52.2,29.03,SW,225,3.1,3.1,98,0.00,,,0.00,VWS V14.01,2013-05-29 13:26:00,
2013-05-29 09:27:00,54.9,54.3,29.09,WSW,248,3.6,4.3,98,0.00,,,0.00,VWS V14.01,2013-05-29 13:27:00,
2013-05-29 09:28:00,54.9,54.3,29.09,SW,225,3.1,7.8,98,0.00,,,0.00,VWS V14.01,2013-05-29 13:28:00,
2013-05-29 09:29:00,54.9,54.3,29.09,SW,225,5.6,5.8,98,0.00,,,0.00,VWS V14.01,2013-05-29 13:29:00,
2013-05-29 09:30:00,54.9,54.3,29.09,WNW,292,4.3,5.6,98,0.00,,,0.00,VWS V14.01,2013-05-29 13:30:00,
2013-05-29 09:31:00,52.9,52.3,29.03,WSW,248,5.4,5.4,98,0.00,,,0.00,VWS V14.01,2013-05-29 13:31:00,
2013-05-29 09:32:00,54.9,54.3,29.09,WSW,248,5.4,7.2,98,0.00,,,0.00,VWS V14.01,2013-05-29 13:32:00,
2013-05-29 09:34:00,55.0,54.5,29.09,WSW,248,4.9,5.8,98,0.00,,,0.00,VWS V14.01,2013-05-29 13:34:00,
2013-05-29 09:35:00,55.0,54.5,29.09,WSW,248,6.0,8.5,98,0.00,,,0.00,VWS V14.01,2013-05-29 13:35:00,
2013-05-29 09:36:00,53.1,52.5,29.03,WSW,248,4.0,4.0,98,0.00,,,0.00,VWS V14.01,2013-05-29 13:36:00,
2013-05-29 09:37:00,54.9,54.3,29.06,WSW,248,5.6,7.8,98,0.00,,,0.00,VWS V14.01,2013-05-29 13:37:00,
2013-05-29 09:38:00,55.0,54.5,29.06,WNW,292,6.3,6.3,98,0.00,,,0.00,VWS V14.01,2013-05-29 13:38:00,
2013-05-29 09:39:00,55.0,54.5,29.06,SE,135,7.2,9.2,98,0.00,,,0.00,VWS V14.01,2013-05-29 13:39:00,
2013-05-29 09:40:00,54.9,54.3,29.06,WSW,248,7.8,7.8,98,0.00,,,0.00,VWS V14.01,2013-05-29 13:40:00,
2013-05-29 09:41:00,53.6,53.0,29.03,West,270,3.1,3.6,98,0.00,,,0.00,VWS V14.01,2013-05-29 13:41:00,
2013-05-29 09:42:00,55.0,54.5,29.06,West,270,5.6,6.0,98,0.00,,,0.00,VWS V14.01,2013-05-29 13:42:00,
2013-05-29 09:43:00,55.0,54.5,29.06,West,270,5.6,5.6,98,0.00,,,0.00,VWS V14.01,2013-05-29 13:43:00,
2013-05-29 09:44:00,55.0,54.5,29.06,WSW,248,7.8,7.8,98,0.00,,,0.00,VWS V14.01,2013-05-29 13:44:00,
2013-05-29 09:45:00,55.0,54.5,29.06,West,270,7.8,7.8,98,0.00,,,0.00,VWS V14.01,2013-05-29 13:45:00,
2013-05-29 09:46:00,54.0,53.4,29.03,WSW,248,5.4,5.4,98,0.00,,,0.00,VWS V14.01,2013-05-29 13:46:00,
2013-05-29 09:47:00,55.0,54.5,29.06,SSW,202,4.0,6.3,98,0.00,,,0.00,VWS V14.01,2013-05-29 13:47:00,
2013-05-29 09:48:00,55.4,54.8,29.06,WSW,248,4.0,5.6,98,0.00,,,0.00,VWS V14.01,2013-05-29 13:48:00,
2013-05-29 09:49:00,55.4,54.8,29.06,South,180,4.0,4.0,98,0.00,,,0.00,VWS V14.01,2013-05-29 13:49:00,
2013-05-29 09:50:00,55.6,55.0,29.06,WSW,248,7.4,7.4,98,0.00,,,0.00,VWS V14.01,2013-05-29 13:50:00,
2013-05-29 09:51:00,53.8,53.2,29.03,WSW,248,3.6,6.0,98,0.00,,,0.00,VWS V14.01,2013-05-29 13:51:00,
2013-05-29 09:52:00,55.8,55.2,29.06,SSE,158,4.3,7.2,98,0.00,,,0.00,VWS V14.01,2013-05-29 13:52:00,
2013-05-29 09:53:00,55.8,55.2,29.06,SW,225,7.8,7.8,98,0.00,,,0.00,VWS V14.01,2013-05-29 13:53:00,
2013-05-29 09:54:00,55.6,55.0,29.06,SW,225,5.8,7.8,98,0.00,,,0.00,VWS V14.01,2013-05-29 13:54:00,
2013-05-29 09:55:00,55.8,55.2,29.06,SW,225,8.5,8.5,98,0.00,,,0.00,VWS V14.01,2013-05-29 13:55:00,
2013-05-29 09:56:00,53.8,53.2,29.03,SW,225,8.5,8.5,98,0.00,,,0.00,VWS V14.01,2013-05-29 13:56:00,
2013-05-29 09:57:00,55.8,55.2,29.06,WSW,248,5.6,7.6,98,0.00,,,0.00,VWS V14.01,2013-05-29 13:57:00,
2013-05-29 09:58:00,55.8,55.2,29.06,SW,225,6.0,8.1,98,0.00,,,0.00,VWS V14.01,2013-05-29 13:58:00,
2013-05-29 09:59:00,55.9,55.4,29.06,SW,225,3.8,7.8,98,0.00,,,0.00,VWS V14.01,2013-05-29 13:59:00,
2013-05-29 10:00:00,55.9,55.4,29.06,WSW,248,4.9,6.3,98,0.00,,,0.00,VWS V14.01,2013-05-29 14:00:00,
2013-05-29 10:01:00,54.0,53.4,29.03,WSW,248,5.6,5.6,98,0.00,,,0.00,VWS V14.01,2013-05-29 14:01:00,
2013-05-29 10:02:00,56.1,55.6,29.06,SW,225,2.5,6.0,98,0.00,,,0.00,VWS V14.01,2013-05-29 14:02:00,
2013-05-29 10:03:00,56.3,55.8,29.06,WSW,248,4.3,4.5,98,0.00,,,0.00,VWS V14.01,2013-05-29 14:03:00,
2013-05-29 10:04:00,56.3,55.8,29.06,WSW,248,7.6,7.6,98,0.00,,,0.00,VWS V14.01,2013-05-29 14:04:00,
2013-05-29 10:05:00,56.3,55.8,29.06,West,270,4.9,8.1,98,0.00,,,0.00,VWS V14.01,2013-05-29 14:05:00,
2013-05-29 10:06:00,54.1,53.6,29.03,WSW,248,5.8,5.8,98,0.00,,,0.00,VWS V14.01,2013-05-29 14:06:00,
2013-05-29 10:07:00,56.1,55.6,29.06,WSW,248,3.6,6.3,98,0.00,,,0.00,VWS V14.01,2013-05-29 14:07:00,
2013-05-29 10:09:00,55.9,55.4,29.06,WSW,248,5.4,8.7,98,0.00,,,0.00,VWS V14.01,2013-05-29 14:09:00,
2013-05-29 10:10:00,56.1,55.6,29.06,SW,225,6.0,10.7,98,0.00,,,0.00,VWS V14.01,2013-05-29 14:10:00,
2013-05-29 10:11:00,54.1,53.6,29.06,WSW,248,7.2,7.2,98,0.00,,,0.00,VWS V14.01,2013-05-29 14:11:00,
2013-05-29 10:12:00,56.1,55.6,29.06,SSW,202,6.5,6.5,98,0.00,,,0.00,VWS V14.01,2013-05-29 14:12:00,
2013-05-29 10:13:00,55.9,55.4,29.06,SW,225,8.5,8.7,98,0.00,,,0.00,VWS V14.01,2013-05-29 14:13:00,
2013-05-29 10:14:00,55.9,55.4,29.06,SW,225,8.5,8.5,98,0.00,,,0.00,VWS V14.01,2013-05-29 14:14:00,
2013-05-29 10:15:00,56.1,55.6,29.06,SW,225,3.4,8.5,98,0.00,,,0.00,VWS V14.01,2013-05-29 14:15:00,
2013-05-29 10:16:00,54.5,54.0,29.06,West,270,5.8,8.1,98,0.00,,,0.00,VWS V14.01,2013-05-29 14:16:00,
2013-05-29 10:18:00,56.1,55.6,29.06,WSW,248,5.4,7.2,98,0.00,,,0.00,VWS V14.01,2013-05-29 14:18:00,
2013-05-29 10:19:00,56.1,55.6,29.06,SSW,202,3.4,5.4,98,0.00,,,0.00,VWS V14.01,2013-05-29 14:19:00,
2013-05-29 10:20:00,56.3,55.8,29.06,SW,225,5.6,5.6,98,0.00,,,0.00,VWS V14.01,2013-05-29 14:20:00,
2013-05-29 10:21:00,54.5,54.0,29.06,WSW,248,3.8,3.8,98,0.00,,,0.00,VWS V14.01,2013-05-29 14:21:00,
2013-05-29 10:22:00,56.3,55.8,29.06,South,180,2.7,4.3,98,0.00,,,0.00,VWS V14.01,2013-05-29 14:22:00,
2013-05-29 10:23:00,56.3,55.8,29.06,SW,225,5.8,7.8,98,0.00,,,0.00,VWS V14.01,2013-05-29 14:23:00,
2013-05-29 10:24:00,56.5,55.6,29.06,West,270,8.1,8.1,97,0.00,,,0.00,VWS V14.01,2013-05-29 14:24:00,
2013-05-29 10:25:00,56.5,55.6,29.06,SSW,202,6.3,8.1,97,0.00,,,0.00,VWS V14.01,2013-05-29 14:25:00,
2013-05-29 10:26:00,54.9,54.3,29.09,WSW,248,3.6,4.3,98,0.00,,,0.00,VWS V14.01,2013-05-29 14:26:00,
2013-05-29 10:27:00,56.5,55.6,29.06,WSW,248,5.8,5.8,97,0.00,,,0.00,VWS V14.01,2013-05-29 14:27:00,
2013-05-29 10:28:00,56.5,55.6,29.06,WSW,248,5.8,5.8,97,0.00,,,0.00,VWS V14.01,2013-05-29 14:28:00,
2013-05-29 10:29:00,56.7,55.8,29.06,West,270,4.9,7.8,97,0.00,,,0.00,VWS V14.01,2013-05-29 14:29:00,
2013-05-29 10:30:00,56.7,55.8,29.06,West,270,5.4,6.0,97,0.00,,,0.00,VWS V14.01,2013-05-29 14:30:00,
2013-05-29 10:31:00,54.9,54.3,29.09,WNW,292,3.8,4.3,98,0.00,,,0.00,VWS V14.01,2013-05-29 14:31:00,
2013-05-29 10:32:00,56.8,56.0,29.06,West,270,7.6,9.8,97,0.00,,,0.00,VWS V14.01,2013-05-29 14:32:00,
2013-05-29 10:33:00,56.8,56.0,29.06,WNW,292,7.4,7.6,97,0.00,,,0.00,VWS V14.01,2013-05-29 14:33:00,
2013-05-29 10:34:00,57.0,55.9,29.06,WSW,248,3.8,7.4,96,0.00,,,0.00,VWS V14.01,2013-05-29 14:34:00,
2013-05-29 10:35:00,57.2,56.1,29.06,WSW,248,3.1,4.9,96,0.00,,,0.00,VWS V14.01,2013-05-29 14:35:00,
2013-05-29 10:36:00,55.0,54.5,29.09,SW,225,5.4,7.8,98,0.00,,,0.00,VWS V14.01,2013-05-29 14:36:00,
2013-05-29 10:37:00,57.4,56.2,29.06,SW,225,4.3,5.6,96,0.00,,,0.00,VWS V14.01,2013-05-29 14:37:00,
2013-05-29 10:38:00,57.4,56.2,29.06,WSW,248,4.7,6.9,96,0.00,,,0.00,VWS V14.01,2013-05-29 14:38:00,
2013-05-29 10:39:00,57.4,56.2,29.06,WSW,248,4.3,5.6,96,0.00,,,0.00,VWS V14.01,2013-05-29 14:39:00,
2013-05-29 10:40:00,57.4,56.2,29.06,WSW,248,3.1,6.9,96,0.00,,,0.00,VWS V14.01,2013-05-29 14:40:00,
2013-05-29 10:41:00,55.0,54.5,29.06,SW,225,4.7,6.0,98,0.00,,,0.00,VWS V14.01,2013-05-29 14:41:00,
2013-05-29 10:42:00,57.6,56.4,29.06,WSW,248,4.7,5.8,96,0.00,,,0.00,VWS V14.01,2013-05-29 14:42:00,
2013-05-29 10:43:00,57.6,56.4,29.06,SW,225,4.0,4.7,96,0.00,,,0.00,VWS V14.01,2013-05-29 14:43:00,
2013-05-29 10:44:00,57.6,56.4,29.06,SW,225,4.0,4.9,96,0.00,,,0.00,VWS V14.01,2013-05-29 14:44:00,
2013-05-29 10:45:00,57.6,56.4,29.06,SW,225,5.8,7.4,96,0.00,,,0.00,VWS V14.01,2013-05-29 14:45:00,
2013-05-29 10:46:00,55.0,54.5,29.06,WSW,248,5.6,6.3,98,0.00,,,0.00,VWS V14.01,2013-05-29 14:46:00,
2013-05-29 10:47:00,57.6,56.1,29.06,SW,225,6.0,6.9,95,0.00,,,0.00,VWS V14.01,2013-05-29 14:47:00,
2013-05-29 10:48:00,57.6,56.1,29.06,WSW,248,3.8,6.0,95,0.00,,,0.00,VWS V14.01,2013-05-29 14:48:00,
2013-05-29 10:49:00,57.7,56.3,29.06,WSW,248,3.8,3.8,95,0.00,,,0.00,VWS V14.01,2013-05-29 14:49:00,
2013-05-29 10:50:00,57.7,56.3,29.06,WSW,248,4.3,4.9,95,0.00,,,0.00,VWS V14.01,2013-05-29 14:50:00,
2013-05-29 10:51:00,55.8,55.2,29.06,West,270,5.8,7.2,98,0.00,,,0.00,VWS V14.01,2013-05-29 14:51:00,
2013-05-29 10:52:00,58.1,56.4,29.06,WSW,248,3.6,4.7,94,0.00,,,0.00,VWS V14.01,2013-05-29 14:52:00,
2013-05-29 10:53:00,58.1,56.4,29.06,West,270,2.7,3.6,94,0.00,,,0.00,VWS V14.01,2013-05-29 14:53:00,
2013-05-29 10:54:00,58.1,56.4,29.06,WSW,248,3.4,3.4,94,0.00,,,0.00,VWS V14.01,2013-05-29 14:54:00,
2013-05-29 10:55:00,58.3,56.6,29.06,WSW,248,2.7,4.9,94,0.00,,,0.00,VWS V14.01,2013-05-29 14:55:00,
2013-05-29 10:56:00,55.8,55.2,29.06,SSW,202,5.4,7.6,98,0.00,,,0.00,VWS V14.01,2013-05-29 14:56:00,
2013-05-29 10:57:00,58.3,56.6,29.06,WSW,248,3.1,3.8,94,0.00,,,0.00,VWS V14.01,2013-05-29 14:57:00,
2013-05-29 10:58:00,58.3,56.6,29.06,WSW,248,3.1,3.1,94,0.00,,,0.00,VWS V14.01,2013-05-29 14:58:00,
2013-05-29 10:59:00,58.1,56.1,29.06,WSW,248,6.0,6.0,93,0.00,,,0.00,VWS V14.01,2013-05-29 14:59:00,
2013-05-29 11:00:00,58.1,56.1,29.06,WSW,248,4.9,6.0,93,0.00,,,0.00,VWS V14.01,2013-05-29 15:00:00,
2013-05-29 11:01:00,56.1,55.6,29.06,West,270,4.3,6.0,98,0.00,,,0.00,VWS V14.01,2013-05-29 15:01:00,
2013-05-29 11:02:00,58.1,55.8,29.06,West,270,4.0,7.2,92,0.00,,,0.00,VWS V14.01,2013-05-29 15:02:00,
2013-05-29 11:03:00,58.3,56.0,29.06,WSW,248,2.9,4.0,92,0.00,,,0.00,VWS V14.01,2013-05-29 15:03:00,
2013-05-29 11:04:00,58.5,56.2,29.06,WSW,248,6.3,6.3,92,0.00,,,0.00,VWS V14.01,2013-05-29 15:04:00,
2013-05-29 11:05:00,58.5,55.8,29.06,SSW,202,4.5,6.3,91,0.00,,,0.00,VWS V14.01,2013-05-29 15:05:00,
2013-05-29 11:06:00,56.1,55.6,29.06,South,180,3.6,6.3,98,0.00,,,0.00,VWS V14.01,2013-05-29 15:06:00,
2013-05-29 11:07:00,58.6,56.0,29.09,SW,225,3.1,4.3,91,0.00,,,0.00,VWS V14.01,2013-05-29 15:07:00,
2013-05-29 11:08:00,58.6,56.0,29.09,SW,225,4.0,4.0,91,0.00,,,0.00,VWS V14.01,2013-05-29 15:08:00,
2013-05-29 11:09:00,58.8,56.2,29.09,SW,225,3.1,4.0,91,0.00,,,0.00,VWS V14.01,2013-05-29 15:09:00,
2013-05-29 11:10:00,58.8,56.2,29.09,SW,225,3.1,3.1,91,0.00,,,0.00,VWS V14.01,2013-05-29 15:10:00,
2013-05-29 11:11:00,56.1,55.6,29.06,WSW,248,3.6,6.0,98,0.00,,,0.00,VWS V14.01,2013-05-29 15:11:00,
2013-05-29 11:12:00,59.0,56.1,29.09,West,270,3.1,4.7,90,0.00,,,0.00,VWS V14.01,2013-05-29 15:12:00,
2013-05-29 11:13:00,59.2,56.2,29.09,WSW,248,3.1,4.0,90,0.00,,,0.00,VWS V14.01,2013-05-29 15:13:00,
2013-05-29 11:14:00,59.2,56.2,29.09,SSW,202,3.8,3.8,90,0.00,,,0.00,VWS V14.01,2013-05-29 15:14:00,
2013-05-29 11:15:00,59.2,56.2,29.09,SW,225,3.6,3.8,90,0.00,,,0.00,VWS V14.01,2013-05-29 15:15:00,
2013-05-29 11:16:00,56.1,55.6,29.06,WSW,248,5.4,7.2,98,0.00,,,0.00,VWS V14.01,2013-05-29 15:16:00,
2013-05-29 11:17:00,59.2,56.0,29.09,SW,225,4.9,4.9,89,0.00,,,0.00,VWS V14.01,2013-05-29 15:17:00,
2013-05-29 11:18:00,59.2,56.0,29.09,SW,225,4.9,4.9,89,0.00,,,0.00,VWS V14.01,2013-05-29 15:18:00,
2013-05-29 11:19:00,59.2,55.6,29.09,WSW,248,4.0,7.2,88,0.00,,,0.00,VWS V14.01,2013-05-29 15:19:00,
2013-05-29 11:20:00,59.2,55.6,29.09,SW,225,2.9,4.9,88,0.00,,,0.00,VWS V14.01,2013-05-29 15:20:00,
2013-05-29 11:21:00,56.3,55.8,29.06,South,180,2.7,4.3,98,0.00,,,0.00,VWS V14.01,2013-05-29 15:21:00,
2013-05-29 11:22:00,59.4,55.8,29.09,West,270,3.1,3.4,88,0.00,,,0.00,VWS V14.01,2013-05-29 15:22:00,
2013-05-29 11:23:00,59.4,55.5,29.09,SW,225,3.4,4.3,87,0.00,,,0.00,VWS V14.01,2013-05-29 15:23:00,
2013-05-29 11:24:00,59.4,55.8,29.09,WSW,248,2.9,4.7,88,0.00,,,0.00,VWS V14.01,2013-05-29 15:24:00,
2013-05-29 11:25:00,59.5,56.0,29.09,WSW,248,4.7,4.7,88,0.00,,,0.00,VWS V14.01,2013-05-29 15:25:00,
2013-05-29 11:26:00,56.5,55.6,29.06,WSW,248,5.8,5.8,97,0.00,,,0.00,VWS V14.01,2013-05-29 15:26:00,
2013-05-29 11:27:00,59.7,55.8,29.09,South,180,2.2,4.7,87,0.00,,,0.00,VWS V14.01,2013-05-29 15:27:00,
2013-05-29 11:28:00,59.7,55.8,29.09,WSW,248,2.9,3.6,87,0.00,,,0.00,VWS V14.01,2013-05-29 15:28:00,
2013-05-29 11:29:00,59.7,55.8,29.09,SW,225,4.0,5.4,87,0.00,,,0.00,VWS V14.01,2013-05-29 15:29:00,
2013-05-29 11:30:00,59.9,55.7,29.09,SE,135,0.9,4.0,86,0.00,,,0.00,VWS V14.01,2013-05-29 15:30:00,
2013-05-29 11:31:00,60.3,56.4,29.09,SW,225,2.2,3.4,87,0.00,,,0.00,VWS V14.01,2013-05-29 15:31:00,
2013-05-29 11:32:00,56.8,56.0,29.06,WSW,248,8.5,9.8,97,0.00,,,0.00,VWS V14.01,2013-05-29 15:32:00,
2013-05-29 11:33:00,60.3,56.4,29.09,South,180,3.6,3.6,87,0.00,,,0.00,VWS V14.01,2013-05-29 15:33:00,
2013-05-29 11:34:00,60.4,55.9,29.09,South,180,4.9,4.9,85,0.00,,,0.00,VWS V14.01,2013-05-29 15:34:00,
2013-05-29 11:35:00,60.4,55.6,29.09,SSW,202,2.9,4.9,84,0.00,,,0.00,VWS V14.01,2013-05-29 15:35:00,
2013-05-29 11:36:00,60.4,55.6,29.09,South,180,1.3,4.3,84,0.00,,,0.00,VWS V14.01,2013-05-29 15:36:00,
2013-05-29 11:37:00,57.4,56.2,29.06,WSW,248,5.6,5.6,96,0.00,,,0.00,VWS V14.01,2013-05-29 15:37:00,
2013-05-29 11:38:00,60.6,55.4,29.09,West,270,6.3,8.1,83,0.00,,,0.00,VWS V14.01,2013-05-29 15:38:00,
2013-05-29 11:39:00,60.6,55.1,29.09,WSW,248,4.9,7.2,82,0.00,,,0.00,VWS V14.01,2013-05-29 15:39:00,
2013-05-29 11:40:00,60.6,54.8,29.09,West,270,6.0,6.5,81,0.00,,,0.00,VWS V14.01,2013-05-29 15:40:00,
2013-05-29 11:41:00,60.8,54.6,29.09,WSW,248,3.4,6.0,80,0.00,,,0.00,VWS V14.01,2013-05-29 15:41:00,
2013-05-29 11:42:00,57.4,56.2,29.06,WSW,248,3.1,5.8,96,0.00,,,0.00,VWS V14.01,2013-05-29 15:42:00,
2013-05-29 11:43:00,60.6,54.1,29.09,SW,225,4.3,6.0,79,0.00,,,0.00,VWS V14.01,2013-05-29 15:43:00,
2013-05-29 11:44:00,60.4,53.6,29.09,West,270,6.5,8.7,78,0.00,,,0.00,VWS V14.01,2013-05-29 15:44:00,
2013-05-29 11:45:00,60.4,53.6,29.09,WSW,248,6.5,6.5,78,0.00,,,0.00,VWS V14.01,2013-05-29 15:45:00,
2013-05-29 11:46:00,60.6,53.7,29.09,WSW,248,2.9,6.5,78,0.00,,,0.00,VWS V14.01,2013-05-29 15:46:00,
2013-05-29 11:47:00,57.6,56.1,29.06,SSW,202,6.9,6.9,95,0.00,,,0.00,VWS V14.01,2013-05-29 15:47:00,
2013-05-29 11:48:00,61.0,54.4,29.09,WSW,248,3.4,4.3,79,0.00,,,0.00,VWS V14.01,2013-05-29 15:48:00,
2013-05-29 11:49:00,61.0,54.8,29.09,SSW,202,5.8,5.8,80,0.00,,,0.00,VWS V14.01,2013-05-29 15:49:00,
2013-05-29 11:50:00,61.0,54.4,29.09,WSW,248,4.3,5.8,79,0.00,,,0.00,VWS V14.01,2013-05-29 15:50:00,
2013-05-29 11:51:00,61.0,54.4,29.09,WSW,248,4.3,5.6,79,0.00,,,0.00,VWS V14.01,2013-05-29 15:51:00,
2013-05-29 11:52:00,58.1,56.4,29.06,WSW,248,3.6,4.7,94,0.00,,,0.00,VWS V14.01,2013-05-29 15:52:00,
2013-05-29 11:53:00,61.0,54.1,29.09,WSW,248,5.4,5.4,78,0.00,,,0.00,VWS V14.01,2013-05-29 15:53:00,
2013-05-29 11:54:00,61.0,54.1,29.09,WSW,248,6.3,6.3,78,0.00,,,0.00,VWS V14.01,2013-05-29 15:54:00,
2013-05-29 11:55:00,61.0,53.4,29.09,WSW,248,7.8,8.1,76,0.00,,,0.00,VWS V14.01,2013-05-29 15:55:00,
2013-05-29 11:56:00,61.0,53.0,29.09,SSW,202,3.8,8.1,75,0.00,,,0.00,VWS V14.01,2013-05-29 15:56:00,
2013-05-29 11:57:00,58.3,56.6,29.06,WSW,248,3.1,3.8,94,0.00,,,0.00,VWS V14.01,2013-05-29 15:57:00,
2013-05-29 11:58:00,61.3,53.7,29.09,SSW,202,4.9,6.3,76,0.00,,,0.00,VWS V14.01,2013-05-29 15:58:00,
2013-05-29 11:59:00,61.3,54.1,29.09,SW,225,5.6,6.0,77,0.00,,,0.00,VWS V14.01,2013-05-29 15:59:00,
2013-05-29 12:00:00,61.5,53.9,29.09,WSW,248,4.5,5.6,76,0.00,,,0.00,VWS V14.01,2013-05-29 16:00:00,
2013-05-29 12:01:00,61.7,54.1,29.09,WSW,248,9.0,9.0,76,0.00,,,0.00,VWS V14.01,2013-05-29 16:01:00,
2013-05-29 12:02:00,58.1,55.8,29.06,West,270,4.0,7.2,92,0.00,,,0.00,VWS V14.01,2013-05-29 16:02:00,
2013-05-29 12:03:00,61.5,53.2,29.09,WSW,248,4.9,8.1,74,0.00,,,0.00,VWS V14.01,2013-05-29 16:03:00,
2013-05-29 12:04:00,61.5,53.2,29.09,WSW,248,4.9,4.9,74,0.00,,,0.00,VWS V14.01,2013-05-29 16:04:00,
2013-05-29 12:06:00,62.1,54.0,29.09,WSW,248,6.3,6.3,75,0.00,,,0.00,VWS V14.01,2013-05-29 16:06:00,
2013-05-29 12:07:00,58.6,56.0,29.09,SW,225,3.1,4.3,91,0.00,,,0.00,VWS V14.01,2013-05-29 16:07:00,
2013-05-29 12:08:00,62.1,52.9,29.09,West,270,7.6,10.5,72,0.00,,,0.00,VWS V14.01,2013-05-29 16:08:00,
2013-05-29 12:09:00,62.1,52.9,29.09,WNW,292,7.8,9.4,72,0.00,,,0.00,VWS V14.01,2013-05-29 16:09:00,
2013-05-29 12:10:00,61.9,52.8,29.09,WNW,292,7.8,12.3,72,0.00,,,0.00,VWS V14.01,2013-05-29 16:10:00,
2013-05-29 12:11:00,61.7,52.2,29.09,WSW,248,8.1,8.1,71,0.00,,,0.00,VWS V14.01,2013-05-29 16:11:00,
2013-05-29 12:12:00,59.0,56.1,29.09,West,270,3.1,4.7,90,0.00,,,0.00,VWS V14.01,2013-05-29 16:12:00,
2013-05-29 12:13:00,61.7,52.2,29.09,WSW,248,10.1,10.1,71,0.00,,,0.00,VWS V14.01,2013-05-29 16:13:00,
2013-05-29 12:14:00,61.9,52.8,29.09,WSW,248,4.7,10.1,72,0.00,,,0.00,VWS V14.01,2013-05-29 16:14:00,
2013-05-29 12:15:00,61.9,52.8,29.09,West,270,4.0,6.0,72,0.00,,,0.00,VWS V14.01,2013-05-29 16:15:00,
2013-05-29 12:16:00,61.9,52.8,29.09,SW,225,13.0,13.0,72,0.00,,,0.00,VWS V14.01,2013-05-29 16:16:00,
2013-05-29 12:17:00,59.2,56.0,29.09,SW,225,4.9,4.9,89,0.00,,,0.00,VWS V14.01,2013-05-29 16:17:00,
2013-05-29 12:18:00,61.7,52.2,29.09,WSW,248,5.8,5.8,71,0.00,,,0.00,VWS V14.01,2013-05-29 16:18:00,
2013-05-29 12:19:00,61.9,52.4,29.09,WSW,248,6.0,7.6,71,0.00,,,0.00,VWS V14.01,2013-05-29 16:19:00,
2013-05-29 12:20:00,62.1,52.6,29.09,SW,225,4.3,6.3,71,0.00,,,0.00,VWS V14.01,2013-05-29 16:20:00,
2013-05-29 12:21:00,62.1,52.6,29.09,SSW,202,4.3,6.0,71,0.00,,,0.00,VWS V14.01,2013-05-29 16:21:00,
2013-05-29 12:22:00,59.4,55.8,29.09,West,270,3.1,3.4,88,0.00,,,0.00,VWS V14.01,2013-05-29 16:22:00,
2013-05-29 12:23:00,62.1,52.9,29.12,WSW,248,7.8,13.6,72,0.00,,,0.00,VWS V14.01,2013-05-29 16:23:00,
2013-05-29 12:24:00,62.1,52.6,29.12,WNW,292,10.7,10.7,71,0.00,,,0.00,VWS V14.01,2013-05-29 16:24:00,
2013-05-29 12:25:00,61.9,52.0,29.12,SW,225,6.0,10.7,70,0.00,,,0.00,VWS V14.01,2013-05-29 16:25:00,
2013-05-29 12:26:00,61.9,52.0,29.12,WSW,248,5.6,8.7,70,0.00,,,0.00,VWS V14.01,2013-05-29 16:26:00,
2013-05-29 12:27:00,59.7,55.8,29.09,SW,225,0.0,2.2,87,0.00,,,0.00,VWS V14.01,2013-05-29 16:27:00,
2013-05-29 12:28:00,62.1,52.2,29.12,WSW,248,8.1,9.0,70,0.00,,,0.00,VWS V14.01,2013-05-29 16:28:00,
2013-05-29 12:29:00,62.2,52.3,29.12,West,270,4.9,8.1,70,0.00,,,0.00,VWS V14.01,2013-05-29 16:29:00,
2013-05-29 12:30:00,62.6,53.1,29.12,West,270,4.9,6.5,71,0.00,,,0.00,VWS V14.01,2013-05-29 16:30:00,
2013-05-29 12:31:00,62.8,53.2,29.12,West,270,7.2,7.2,71,0.00,,,0.00,VWS V14.01,2013-05-29 16:31:00,
2013-05-29 12:32:00,60.3,56.4,29.09,SSW,202,2.0,2.2,87,0.00,,,0.00,VWS V14.01,2013-05-29 16:32:00,
2013-05-29 12:33:00,62.6,52.3,29.12,WSW,248,8.1,9.6,69,0.00,,,0.00,VWS V14.01,2013-05-29 16:33:00,
2013-05-29 12:34:00,62.6,52.3,29.12,WSW,248,7.8,8.7,69,0.00,,,0.00,VWS V14.01,2013-05-29 16:34:00,
2013-05-29 12:35:00,62.6,51.9,29.12,West,270,7.2,7.8,68,0.00,,,0.00,VWS V14.01,2013-05-29 16:35:00,
2013-05-29 12:36:00,62.8,52.1,29.12,WNW,292,4.0,11.0,68,0.00,,,0.00,VWS V14.01,2013-05-29 16:36:00,
2013-05-29 12:37:00,60.6,55.8,29.09,WSW,248,8.1,8.1,84,0.00,,,0.00,VWS V14.01,2013-05-29 16:37:00,
2013-05-29 12:38:00,63.3,53.0,29.09,SSW,202,3.1,6.0,69,0.00,,,0.00,VWS V14.01,2013-05-29 16:38:00,
2013-05-29 12:39:00,63.7,53.7,29.09,WSW,248,6.5,8.1,70,0.00,,,0.00,VWS V14.01,2013-05-29 16:39:00,
2013-05-29 12:40:00,63.7,53.7,29.09,SW,225,7.4,7.4,70,0.00,,,0.00,VWS V14.01,2013-05-29 16:40:00,
2013-05-29 12:41:00,63.7,53.7,29.09,WSW,248,6.0,7.4,70,0.00,,,0.00,VWS V14.01,2013-05-29 16:41:00,
2013-05-29 12:42:00,60.6,54.1,29.09,SW,225,5.4,5.4,79,0.00,,,0.00,VWS V14.01,2013-05-29 16:42:00,
2013-05-29 12:43:00,65.5,55.0,29.09,SW,225,5.4,5.8,69,0.00,,,0.00,VWS V14.01,2013-05-29 16:43:00,
2013-05-29 12:44:00,65.8,55.0,29.09,SSW,202,5.4,5.4,68,0.00,,,0.00,VWS V14.01,2013-05-29 16:44:00,
2013-05-29 12:45:00,65.8,55.0,29.09,WSW,248,4.7,6.0,68,0.00,,,0.00,VWS V14.01,2013-05-29 16:45:00,
2013-05-29 12:46:00,65.8,53.8,29.09,West,270,7.8,7.8,65,0.00,,,0.00,VWS V14.01,2013-05-29 16:46:00,
2013-05-29 12:47:00,60.8,54.3,29.09,South,180,2.5,2.5,79,0.00,,,0.00,VWS V14.01,2013-05-29 16:47:00,
2013-05-29 12:48:00,65.7,53.2,29.09,WSW,248,5.8,8.1,64,0.00,,,0.00,VWS V14.01,2013-05-29 16:48:00,
2013-05-29 12:49:00,65.7,53.2,29.09,South,180,3.6,5.8,64,0.00,,,0.00,VWS V14.01,2013-05-29 16:49:00,
2013-05-29 12:50:00,65.3,52.4,29.09,South,180,7.8,7.8,63,0.00,,,0.00,VWS V14.01,2013-05-29 16:50:00,
2013-05-29 12:51:00,65.5,53.4,29.09,SW,225,4.3,7.8,65,0.00,,,0.00,VWS V14.01,2013-05-29 16:51:00,
2013-05-29 12:52:00,61.0,54.1,29.09,West,270,5.4,5.4,78,0.00,,,0.00,VWS V14.01,2013-05-29 16:52:00,
2013-05-29 12:53:00,65.7,53.2,29.09,West,270,6.0,7.4,64,0.00,,,0.00,VWS V14.01,2013-05-29 16:53:00,
2013-05-29 12:54:00,65.7,53.2,29.09,WSW,248,8.7,8.7,64,0.00,,,0.00,VWS V14.01,2013-05-29 16:54:00,
2013-05-29 12:55:00,65.7,53.2,29.09,West,270,3.6,8.7,64,0.00,,,0.00,VWS V14.01,2013-05-29 16:55:00,
2013-05-29 12:56:00,66.0,53.9,29.09,SSE,158,5.8,5.8,65,0.00,,,0.00,VWS V14.01,2013-05-29 16:56:00,
2013-05-29 12:57:00,61.2,53.5,29.09,WSW,248,5.6,6.3,76,0.00,,,0.00,VWS V14.01,2013-05-29 16:57:00,
2013-05-29 12:58:00,65.8,52.5,29.09,SW,225,6.5,6.5,62,0.00,,,0.00,VWS V14.01,2013-05-29 16:58:00,
2013-05-29 12:59:00,65.7,52.3,29.09,SSW,202,3.8,8.7,62,0.00,,,0.00,VWS V14.01,2013-05-29 16:59:00,
2013-05-29 13:00:00,65.5,51.7,29.09,South,180,7.8,7.8,61,0.00,,,0.00,VWS V14.01,2013-05-29 17:00:00,
2013-05-29 13:01:00,65.3,51.5,29.09,SSW,202,6.0,7.8,61,0.00,,,0.00,VWS V14.01,2013-05-29 17:01:00,
2013-05-29 13:02:00,61.5,53.2,29.09,WSW,248,5.4,8.1,74,0.00,,,0.00,VWS V14.01,2013-05-29 17:02:00,
2013-05-29 13:03:00,65.3,51.5,29.09,SW,225,2.9,6.5,61,0.00,,,0.00,VWS V14.01,2013-05-29 17:03:00,
2013-05-29 13:04:00,65.5,52.6,29.09,West,270,5.6,5.6,63,0.00,,,0.00,VWS V14.01,2013-05-29 17:04:00,
2013-05-29 13:05:00,65.5,52.6,29.09,WSW,248,5.6,5.6,63,0.00,,,0.00,VWS V14.01,2013-05-29 17:05:00,
2013-05-29 13:06:00,65.5,52.6,29.09,WSW,248,5.4,5.6,63,0.00,,,0.00,VWS V14.01,2013-05-29 17:06:00,
2013-05-29 13:07:00,62.1,53.3,29.09,WSW,248,10.5,10.5,73,0.00,,,0.00,VWS V14.01,2013-05-29 17:07:00,
2013-05-29 13:08:00,65.3,52.0,29.09,WSW,248,2.7,6.3,62,0.00,,,0.00,VWS V14.01,2013-05-29 17:08:00,
2013-05-29 13:09:00,65.3,52.0,29.09,SSE,158,2.0,4.9,62,0.00,,,0.00,VWS V14.01,2013-05-29 17:09:00,
2013-05-29 13:10:00,65.3,52.0,29.09,WNW,292,4.0,4.0,62,0.00,,,0.00,VWS V14.01,2013-05-29 17:10:00,
2013-05-29 13:11:00,65.1,52.2,29.09,SW,225,6.9,7.2,63,0.00,,,0.00,VWS V14.01,2013-05-29 17:11:00,
2013-05-29 13:12:00,61.5,51.7,29.09,WSW,248,8.5,8.5,70,0.00,,,0.00,VWS V14.01,2013-05-29 17:12:00,
2013-05-29 13:13:00,64.8,51.9,29.09,SSW,202,4.0,5.6,63,0.00,,,0.00,VWS V14.01,2013-05-29 17:13:00,
2013-05-29 13:14:00,64.8,51.9,29.09,SW,225,4.0,4.0,63,0.00,,,0.00,VWS V14.01,2013-05-29 17:14:00,
2013-05-29 13:15:00,64.6,51.7,29.09,WSW,248,4.0,5.6,63,0.00,,,0.00,VWS V14.01,2013-05-29 17:15:00,
2013-05-29 13:16:00,64.6,52.1,29.09,WSW,248,6.3,6.3,64,0.00,,,0.00,VWS V14.01,2013-05-29 17:16:00,
2013-05-29 13:17:00,61.7,52.2,29.09,WSW,248,5.8,5.8,71,0.00,,,0.00,VWS V14.01,2013-05-29 17:17:00,
2013-05-29 13:18:00,64.6,51.7,29.09,West,270,2.7,6.5,63,0.00,,,0.00,VWS V14.01,2013-05-29 17:18:00,
2013-05-29 13:19:00,64.6,51.7,29.09,WSW,248,7.2,7.2,63,0.00,,,0.00,VWS V14.01,2013-05-29 17:19:00,
2013-05-29 13:20:00,64.6,52.1,29.09,West,270,6.3,7.2,64,0.00,,,0.00,VWS V14.01,2013-05-29 17:20:00,
2013-05-29 13:21:00,64.4,52.0,29.09,WSW,248,3.8,6.3,64,0.00,,,0.00,VWS V14.01,2013-05-29 17:21:00,
2013-05-29 13:22:00,62.1,52.6,29.09,WSW,248,4.9,4.9,71,0.00,,,0.00,VWS V14.01,2013-05-29 17:22:00,
2013-05-29 13:23:00,64.2,52.2,29.09,WSW,248,4.3,8.5,65,0.00,,,0.00,VWS V14.01,2013-05-29 17:23:00,
2013-05-29 13:24:00,64.6,52.1,29.09,WSW,248,5.8,5.8,64,0.00,,,0.00,VWS V14.01,2013-05-29 17:24:00,
2013-05-29 13:25:00,64.9,52.9,29.09,SW,225,3.1,5.8,65,0.00,,,0.00,VWS V14.01,2013-05-29 17:25:00,
2013-05-29 13:26:00,64.9,52.9,29.09,SW,225,5.8,5.8,65,0.00,,,0.00,VWS V14.01,2013-05-29 17:26:00,
2013-05-29 13:27:00,62.1,52.2,29.12,WSW,248,9.0,9.0,70,0.00,,,0.00,VWS V14.01,2013-05-29 17:27:00,
2013-05-29 13:28:00,65.3,53.7,29.09,SW,225,4.7,4.9,66,0.00,,,0.00,VWS V14.01,2013-05-29 17:28:00,
2013-05-29 13:29:00,65.5,53.8,29.09,SSW,202,3.8,4.9,66,0.00,,,0.00,VWS V14.01,2013-05-29 17:29:00,
2013-05-29 13:30:00,65.5,53.8,29.09,SW,225,5.4,5.4,66,0.00,,,0.00,VWS V14.01,2013-05-29 17:30:00,
2013-05-29 13:31:00,65.5,53.8,29.09,SW,225,4.9,5.4,66,0.00,,,0.00,VWS V14.01,2013-05-29 17:31:00,
2013-05-29 13:32:00,62.8,53.2,29.12,WNW,292,8.5,9.6,71,0.00,,,0.00,VWS V14.01,2013-05-29 17:32:00,
2013-05-29 13:33:00,65.7,53.6,29.09,West,270,4.0,4.9,65,0.00,,,0.00,VWS V14.01,2013-05-29 17:33:00,
2013-05-29 13:34:00,65.8,54.2,29.09,WSW,248,7.6,7.6,66,0.00,,,0.00,VWS V14.01,2013-05-29 17:34:00,
2013-05-29 13:35:00,65.7,53.2,29.09,WSW,248,5.8,8.7,64,0.00,,,0.00,VWS V14.01,2013-05-29 17:35:00,
2013-05-29 13:36:00,65.3,52.4,29.09,West,270,10.3,10.3,63,0.00,,,0.00,VWS V14.01,2013-05-29 17:36:00,
2013-05-29 13:37:00,63.0,52.2,29.09,WNW,292,5.4,6.0,68,0.00,,,0.00,VWS V14.01,2013-05-29 17:37:00,
2013-05-29 13:38:00,65.3,52.0,29.09,SW,225,6.0,7.8,62,0.00,,,0.00,VWS V14.01,2013-05-29 17:38:00,
2013-05-29 13:39:00,65.3,51.5,29.09,WSW,248,7.8,9.8,61,0.00,,,0.00,VWS V14.01,2013-05-29 17:39:00,
2013-05-29 13:40:00,65.5,52.1,29.09,West,270,7.8,8.5,62,0.00,,,0.00,VWS V14.01,2013-05-29 17:40:00,
2013-05-29 13:41:00,65.3,51.5,29.09,WSW,248,6.3,9.6,61,0.00,,,0.00,VWS V14.01,2013-05-29 17:41:00,
2013-05-29 13:42:00,65.1,54.7,29.09,SW,225,5.8,5.8,69,0.00,,,0.00,VWS V14.01,2013-05-29 17:42:00,
2013-05-29 13:43:00,65.3,52.0,29.09,SSW,202,8.1,8.1,62,0.00,,,0.00,VWS V14.01,2013-05-29 17:43:00,
2013-05-29 13:44:00,65.3,52.0,29.09,WSW,248,7.6,8.1,62,0.00,,,0.00,VWS V14.01,2013-05-29 17:44:00,
2013-05-29 13:45:00,65.5,52.1,29.09,WSW,248,7.2,7.6,62,0.00,,,0.00,VWS V14.01,2013-05-29 17:45:00,
2013-05-29 13:46:00,65.5,52.1,29.09,NW,315,6.3,7.2,62,0.00,,,0.00,VWS V14.01,2013-05-29 17:46:00,
2013-05-29 13:47:00,65.7,53.2,29.09,SW,225,6.0,8.1,64,0.00,,,0.00,VWS V14.01,2013-05-29 17:47:00,
2013-05-29 13:48:00,65.7,52.3,29.09,West,270,3.8,6.3,62,0.00,,,0.00,VWS V14.01,2013-05-29 17:48:00,
2013-05-29 13:49:00,65.8,52.9,29.09,West,270,6.3,6.3,63,0.00,,,0.00,VWS V14.01,2013-05-29 17:49:00,
2013-05-29 13:50:00,65.8,52.0,29.09,West,270,7.4,8.1,61,0.00,,,0.00,VWS V14.01,2013-05-29 17:50:00,
2013-05-29 13:51:00,65.8,51.6,29.09,WSW,248,6.5,10.3,60,0.00,,,0.00,VWS V14.01,2013-05-29 17:51:00,
2013-05-29 13:52:00,65.5,53.4,29.09,WSW,248,6.0,6.0,65,0.00,,,0.00,VWS V14.01,2013-05-29 17:52:00,
2013-05-29 13:53:00,66.0,51.3,29.09,WSW,248,4.0,8.1,59,0.00,,,0.00,VWS V14.01,2013-05-29 17:53:00,
2013-05-29 13:54:00,66.0,51.3,29.09,WSW,248,7.6,12.3,59,0.00,,,0.00,VWS V14.01,2013-05-29 17:54:00,
2013-05-29 13:55:00,66.0,51.3,29.09,SSW,202,6.0,7.6,59,0.00,,,0.00,VWS V14.01,2013-05-29 17:55:00,
2013-05-29 13:56:00,66.4,51.2,29.09,West,270,7.6,7.6,58,0.00,,,0.00,VWS V14.01,2013-05-29 17:56:00,
2013-05-29 13:57:00,66.0,53.9,29.09,SW,225,4.3,5.8,65,0.00,,,0.00,VWS V14.01,2013-05-29 17:57:00,
2013-05-29 13:58:00,66.0,50.8,29.09,West,270,7.2,12.8,58,0.00,,,0.00,VWS V14.01,2013-05-29 17:58:00,
2013-05-29 13:59:00,66.6,52.3,29.09,WSW,248,3.8,7.8,60,0.00,,,0.00,VWS V14.01,2013-05-29 17:59:00,
2013-05-29 14:00:00,66.6,51.8,29.09,WSW,248,6.0,6.5,59,0.00,,,0.00,VWS V14.01,2013-05-29 18:00:00,
2013-05-29 14:02:00,65.3,51.5,29.09,SW,225,6.5,6.5,61,0.00,,,0.00,VWS V14.01,2013-05-29 18:02:00,
2013-05-29 14:03:00,66.7,51.5,29.09,West,270,6.0,9.8,58,0.00,,,0.00,VWS V14.01,2013-05-29 18:03:00,
2013-05-29 14:04:00,66.7,51.5,29.09,WSW,248,6.0,6.0,58,0.00,,,0.00,VWS V14.01,2013-05-29 18:04:00,
2013-05-29 14:05:00,66.9,51.2,29.09,WSW,248,4.0,7.6,57,0.00,,,0.00,VWS V14.01,2013-05-29 18:05:00,
2013-05-29 14:06:00,67.3,52.0,29.09,SW,225,4.7,4.7,58,0.00,,,0.00,VWS V14.01,2013-05-29 18:06:00,
2013-05-29 14:07:00,65.3,52.0,29.09,WSW,248,5.6,5.8,62,0.00,,,0.00,VWS V14.01,2013-05-29 18:07:00,
2013-05-29 14:08:00,67.3,52.0,29.09,West,270,6.5,6.5,58,0.00,,,0.00,VWS V14.01,2013-05-29 18:08:00,
2013-05-29 14:09:00,67.3,52.0,29.09,SW,225,6.3,6.5,58,0.00,,,0.00,VWS V14.01,2013-05-29 18:09:00,
2013-05-29 14:10:00,67.3,51.5,29.09,WSW,248,5.4,6.5,57,0.00,,,0.00,VWS V14.01,2013-05-29 18:10:00,
2013-05-29 14:11:00,67.3,51.5,29.09,SSW,202,7.2,7.2,57,0.00,,,0.00,VWS V14.01,2013-05-29 18:11:00,
2013-05-29 14:12:00,64.8,51.5,29.09,WSW,248,3.4,5.6,62,0.00,,,0.00,VWS V14.01,2013-05-29 18:12:00,
2013-05-29 14:13:00,67.5,51.7,29.09,WSW,248,3.6,3.6,57,0.00,,,0.00,VWS V14.01,2013-05-29 18:13:00,
2013-05-29 14:14:00,67.8,52.5,29.09,SSW,202,3.4,4.3,58,0.00,,,0.00,VWS V14.01,2013-05-29 18:14:00,
2013-05-29 14:15:00,67.6,52.3,29.09,SW,225,7.8,7.8,58,0.00,,,0.00,VWS V14.01,2013-05-29 18:15:00,
2013-05-29 14:16:00,67.5,51.2,29.09,SSW,202,2.9,8.1,56,0.00,,,0.00,VWS V14.01,2013-05-29 18:16:00,
2013-05-29 14:17:00,64.6,51.7,29.09,WSW,248,2.9,6.5,63,0.00,,,0.00,VWS V14.01,2013-05-29 18:17:00,
2013-05-29 14:18:00,67.1,51.4,29.09,SW,225,2.5,6.5,57,0.00,,,0.00,VWS V14.01,2013-05-29 18:18:00,
2013-05-29 14:19:00,66.7,51.5,29.09,SW,225,5.4,7.4,58,0.00,,,0.00,VWS V14.01,2013-05-29 18:19:00,
2013-05-29 14:20:00,66.7,51.5,29.09,WSW,248,8.5,8.7,58,0.00,,,0.00,VWS V14.01,2013-05-29 18:20:00,
2013-05-29 14:21:00,66.4,51.2,29.09,WSW,248,3.8,8.5,58,0.00,,,0.00,VWS V14.01,2013-05-29 18:21:00,
2013-05-29 14:22:00,64.2,52.2,29.09,WSW,248,6.3,8.5,65,0.00,,,0.00,VWS V14.01,2013-05-29 18:22:00,
2013-05-29 14:23:00,66.0,50.8,29.09,WSW,248,7.4,7.4,58,0.00,,,0.00,VWS V14.01,2013-05-29 18:23:00,
2013-05-29 14:24:00,65.8,50.7,29.09,West,270,7.8,11.0,58,0.00,,,0.00,VWS V14.01,2013-05-29 18:24:00,
2013-05-29 14:25:00,65.8,51.6,29.09,West,270,3.1,7.8,60,0.00,,,0.00,VWS V14.01,2013-05-29 18:25:00,
2013-05-29 14:26:00,65.8,51.6,29.09,WSW,248,7.6,7.6,60,0.00,,,0.00,VWS V14.01,2013-05-29 18:26:00,
2013-05-29 14:27:00,65.3,54.1,29.09,WNW,292,4.7,4.9,67,0.00,,,0.00,VWS V14.01,2013-05-29 18:27:00,
2013-05-29 14:28:00,65.7,51.4,29.09,West,270,6.0,7.8,60,0.00,,,0.00,VWS V14.01,2013-05-29 18:28:00,
2013-05-29 14:29:00,65.7,51.9,29.09,WSW,248,3.6,6.3,61,0.00,,,0.00,VWS V14.01,2013-05-29 18:29:00,
2013-05-29 14:30:00,65.7,51.9,29.09,WSW,248,6.0,7.6,61,0.00,,,0.00,VWS V14.01,2013-05-29 18:30:00,
2013-05-29 14:31:00,65.7,52.3,29.09,SSW,202,2.9,6.0,62,0.00,,,0.00,VWS V14.01,2013-05-29 18:31:00,
2013-05-29 14:32:00,65.7,52.3,29.09,SSW,202,2.9,3.1,62,0.00,,,0.00,VWS V14.01,2013-05-29 18:32:00,
2013-05-29 14:33:00,65.7,53.6,29.09,WNW,292,4.9,4.9,65,0.00,,,0.00,VWS V14.01,2013-05-29 18:33:00,
2013-05-29 14:34:00,65.7,52.3,29.09,SW,225,6.0,6.0,62,0.00,,,0.00,VWS V14.01,2013-05-29 18:34:00,
2013-05-29 14:35:00,65.7,52.3,29.09,SSW,202,3.8,7.2,62,0.00,,,0.00,VWS V14.01,2013-05-29 18:35:00,
2013-05-29 14:36:00,65.7,52.3,29.09,WSW,248,3.6,4.3,62,0.00,,,0.00,VWS V14.01,2013-05-29 18:36:00,
2013-05-29 14:37:00,65.7,52.3,29.09,West,270,3.6,5.8,62,0.00,,,0.00,VWS V14.01,2013-05-29 18:37:00,
2013-05-29 14:38:00,65.3,52.0,29.09,WSW,248,7.8,7.8,62,0.00,,,0.00,VWS V14.01,2013-05-29 18:38:00,
2013-05-29 14:39:00,65.7,52.3,29.09,WSW,248,4.3,4.3,62,0.00,,,0.00,VWS V14.01,2013-05-29 18:39:00,
2013-05-29 14:40:00,65.5,53.0,29.09,WSW,248,8.7,8.7,64,0.00,,,0.00,VWS V14.01,2013-05-29 18:40:00,
2013-05-29 14:41:00,65.5,52.6,29.09,WSW,248,3.4,8.7,63,0.00,,,0.00,VWS V14.01,2013-05-29 18:41:00,
2013-05-29 14:42:00,65.5,52.6,29.09,SSW,202,7.2,7.2,63,0.00,,,0.00,VWS V14.01,2013-05-29 18:42:00,
2013-05-29 14:43:00,65.3,52.0,29.09,SSW,202,8.1,8.1,62,0.00,,,0.00,VWS V14.01,2013-05-29 18:43:00,
2013-05-29 14:44:00,65.7,53.2,29.09,WSW,248,7.2,7.2,64,0.00,,,0.00,VWS V14.01,2013-05-29 18:44:00,
2013-05-29 14:45:00,65.8,53.3,29.09,WSW,248,4.3,7.2,64,0.00,,,0.00,VWS V14.01,2013-05-29 18:45:00,
2013-05-29 14:46:00,66.0,53.5,29.09,West,270,3.1,4.7,64,0.00,,,0.00,VWS V14.01,2013-05-29 18:46:00,
2013-05-29 14:47:00,66.4,53.8,29.09,South,180,4.0,4.3,64,0.00,,,0.00,VWS V14.01,2013-05-29 18:47:00,
2013-05-29 14:48:00,65.7,52.3,29.09,SSW,202,4.9,6.3,62,0.00,,,0.00,VWS V14.01,2013-05-29 18:48:00,
2013-05-29 14:49:00,66.2,52.8,29.09,SSW,202,6.0,8.1,62,0.00,,,0.00,VWS V14.01,2013-05-29 18:49:00,
2013-05-29 14:50:00,66.2,52.8,29.09,SW,225,2.7,6.0,62,0.00,,,0.00,VWS V14.01,2013-05-29 18:50:00,
2013-05-29 14:51:00,66.4,53.0,29.09,SW,225,2.2,4.7,62,0.00,,,0.00,VWS V14.01,2013-05-29 18:51:00,
2013-05-29 14:52:00,66.6,53.6,29.09,WSW,248,3.1,5.4,63,0.00,,,0.00,VWS V14.01,2013-05-29 18:52:00,
2013-05-29 14:53:00,66.0,51.3,29.09,WSW,248,4.0,8.1,59,0.00,,,0.00,VWS V14.01,2013-05-29 18:53:00,
2013-05-29 14:54:00,66.7,54.2,29.09,WSW,248,4.0,4.9,64,0.00,,,0.00,VWS V14.01,2013-05-29 18:54:00,
2013-05-29 14:55:00,66.7,53.3,29.09,West,270,4.3,8.7,62,0.00,,,0.00,VWS V14.01,2013-05-29 18:55:00,
2013-05-29 14:56:00,66.7,53.8,29.09,WSW,248,4.0,4.5,63,0.00,,,0.00,VWS V14.01,2013-05-29 18:56:00,
2013-05-29 14:57:00,66.9,53.9,29.09,WSW,248,3.6,5.8,63,0.00,,,0.00,VWS V14.01,2013-05-29 18:57:00,
2013-05-29 14:58:00,66.0,50.8,29.09,West,270,7.2,12.8,58,0.00,,,0.00,VWS V14.01,2013-05-29 18:58:00,
2013-05-29 14:59:00,66.9,53.0,29.09,South,180,5.6,8.7,61,0.00,,,0.00,VWS V14.01,2013-05-29 18:59:00,
2013-05-29 15:00:00,66.7,52.9,29.09,SW,225,7.8,7.8,61,0.00,,,0.00,VWS V14.01,2013-05-29 19:00:00,
2013-05-29 15:01:00,66.9,53.0,29.09,WSW,248,6.3,7.8,61,0.00,,,0.00,VWS V14.01,2013-05-29 19:01:00,
2013-05-29 15:02:00,66.9,53.0,29.09,SW,225,4.0,6.3,61,0.00,,,0.00,VWS V14.01,2013-05-29 19:02:00,
2013-05-29 15:03:00,66.7,51.5,29.09,West,270,6.0,9.8,58,0.00,,,0.00,VWS V14.01,2013-05-29 19:03:00,
2013-05-29 15:04:00,66.9,53.0,29.09,WSW,248,3.6,5.4,61,0.00,,,0.00,VWS V14.01,2013-05-29 19:04:00,
2013-05-29 15:05:00,67.1,53.7,29.09,West,270,4.9,6.3,62,0.00,,,0.00,VWS V14.01,2013-05-29 19:05:00,
2013-05-29 15:06:00,67.1,53.2,29.09,WSW,248,2.0,6.5,61,0.00,,,0.00,VWS V14.01,2013-05-29 19:06:00,
2013-05-29 15:07:00,67.3,52.9,29.09,WSW,248,6.5,6.5,60,0.00,,,0.00,VWS V14.01,2013-05-29 19:07:00,
2013-05-29 15:08:00,67.3,52.0,29.09,West,270,6.5,6.5,58,0.00,,,0.00,VWS V14.01,2013-05-29 19:08:00,
2013-05-29 15:09:00,67.5,53.1,29.09,SW,225,2.5,7.2,60,0.00,,,0.00,VWS V14.01,2013-05-29 19:09:00,
2013-05-29 15:10:00,67.5,53.1,29.09,WSW,248,2.9,8.5,60,0.00,,,0.00,VWS V14.01,2013-05-29 19:10:00,
2013-05-29 15:11:00,67.6,53.3,29.09,WSW,248,6.3,7.8,60,0.00,,,0.00,VWS V14.01,2013-05-29 19:11:00,
2013-05-29 15:12:00,68.0,53.2,29.09,West,270,3.4,6.3,59,0.00,,,0.00,VWS V14.01,2013-05-29 19:12:00,
2013-05-29 15:13:00,67.5,51.7,29.09,WSW,248,3.6,3.6,57,0.00,,,0.00,VWS V14.01,2013-05-29 19:13:00,
2013-05-29 15:14:00,68.7,52.9,29.09,SSW,202,6.0,6.5,57,0.00,,,0.00,VWS V14.01,2013-05-29 19:14:00,
2013-05-29 15:15:00,69.1,53.7,29.09,SW,225,2.9,7.8,58,0.00,,,0.00,VWS V14.01,2013-05-29 19:15:00,
2013-05-29 15:16:00,69.3,53.9,29.09,SW,225,3.6,6.0,58,0.00,,,0.00,VWS V14.01,2013-05-29 19:16:00,
2013-05-29 15:17:00,69.3,53.9,29.09,SW,225,3.6,3.6,58,0.00,,,0.00,VWS V14.01,2013-05-29 19:17:00,
2013-05-29 15:18:00,67.1,51.4,29.09,WSW,248,7.4,7.4,57,0.00,,,0.00,VWS V14.01,2013-05-29 19:18:00,
2013-05-29 15:19:00,69.6,53.2,29.09,WSW,248,6.0,7.8,56,0.00,,,0.00,VWS V14.01,2013-05-29 19:19:00,
2013-05-29 15:20:00,69.6,53.2,29.09,WSW,248,3.8,6.0,56,0.00,,,0.00,VWS V14.01,2013-05-29 19:20:00,
2013-05-29 15:21:00,70.3,55.3,29.09,SSW,202,5.6,5.8,59,0.00,,,0.00,VWS V14.01,2013-05-29 19:21:00,
2013-05-29 15:22:00,70.2,52.8,29.09,SSE,158,5.6,7.2,54,0.00,,,0.00,VWS V14.01,2013-05-29 19:22:00,
2013-05-29 15:23:00,66.0,50.8,29.09,WSW,248,7.4,7.4,58,0.00,,,0.00,VWS V14.01,2013-05-29 19:23:00,
2013-05-29 15:24:00,69.8,51.9,29.09,WSW,248,5.8,5.8,53,0.00,,,0.00,VWS V14.01,2013-05-29 19:24:00,
2013-05-29 15:25:00,69.8,51.9,29.09,SW,225,3.6,5.8,53,0.00,,,0.00,VWS V14.01,2013-05-29 19:25:00,
2013-05-29 15:26:00,69.4,51.6,29.09,WSW,248,7.4,9.0,53,0.00,,,0.00,VWS V14.01,2013-05-29 19:26:00,
2013-05-29 15:27:00,69.1,52.2,29.09,SW,225,5.6,7.4,55,0.00,,,0.00,VWS V14.01,2013-05-29 19:27:00,
2013-05-29 15:28:00,65.7,51.4,29.09,WSW,248,6.3,6.3,60,0.00,,,0.00,VWS V14.01,2013-05-29 19:28:00,
2013-05-29 15:29:00,69.3,52.4,29.09,SW,225,6.3,7.8,55,0.00,,,0.00,VWS V14.01,2013-05-29 19:29:00,
2013-05-29 15:30:00,69.4,53.6,29.09,SSE,158,2.5,6.3,57,0.00,,,0.00,VWS V14.01,2013-05-29 19:30:00,
2013-05-29 15:31:00,68.9,51.6,29.09,WSW,248,5.4,7.4,54,0.00,,,0.00,VWS V14.01,2013-05-29 19:31:00,
2013-05-29 15:32:00,68.9,51.6,29.09,West,270,6.0,7.2,54,0.00,,,0.00,VWS V14.01,2013-05-29 19:32:00,
2013-05-29 15:33:00,65.7,52.3,29.09,SSE,158,2.5,4.3,62,0.00,,,0.00,VWS V14.01,2013-05-29 19:33:00,
2013-05-29 15:34:00,68.4,52.1,29.09,SW,225,8.7,8.7,56,0.00,,,0.00,VWS V14.01,2013-05-29 19:34:00,
2013-05-29 15:35:00,68.2,51.4,29.09,WSW,248,6.0,8.7,55,0.00,,,0.00,VWS V14.01,2013-05-29 19:35:00,
2013-05-29 15:36:00,68.0,51.2,29.09,SW,225,7.4,7.4,55,0.00,,,0.00,VWS V14.01,2013-05-29 19:36:00,
2013-05-29 15:37:00,68.0,51.7,29.09,SSW,202,4.0,7.4,56,0.00,,,0.00,VWS V14.01,2013-05-29 19:37:00,
2013-05-29 15:38:00,65.7,52.3,29.09,SW,225,2.7,3.8,62,0.00,,,0.00,VWS V14.01,2013-05-29 19:38:00,
2013-05-29 15:39:00,67.8,52.0,29.09,WSW,248,3.4,5.6,57,0.00,,,0.00,VWS V14.01,2013-05-29 19:39:00,
2013-05-29 15:40:00,67.8,52.5,29.09,WSW,248,4.3,5.4,58,0.00,,,0.00,VWS V14.01,2013-05-29 19:40:00,
2013-05-29 15:41:00,67.8,52.5,29.09,WSW,248,6.3,6.3,58,0.00,,,0.00,VWS V14.01,2013-05-29 19:41:00,
2013-05-29 15:42:00,67.8,52.5,29.09,SW,225,4.9,6.3,58,0.00,,,0.00,VWS V14.01,2013-05-29 19:42:00,
2013-05-29 15:43:00,65.7,53.2,29.09,WSW,248,4.3,4.3,64,0.00,,,0.00,VWS V14.01,2013-05-29 19:43:00,
2013-05-29 15:44:00,67.5,52.7,29.09,WSW,248,3.6,3.8,59,0.00,,,0.00,VWS V14.01,2013-05-29 19:44:00,
2013-05-29 15:45:00,67.5,52.7,29.09,SW,225,2.7,4.9,59,0.00,,,0.00,VWS V14.01,2013-05-29 19:45:00,
2013-05-29 15:46:00,67.5,52.7,29.09,SSW,202,3.8,3.8,59,0.00,,,0.00,VWS V14.01,2013-05-29 19:46:00,
2013-05-29 15:47:00,67.5,52.7,29.09,WSW,248,3.1,3.8,59,0.00,,,0.00,VWS V14.01,2013-05-29 19:47:00,
2013-05-29 15:48:00,66.2,53.2,29.09,South,180,7.6,8.1,63,0.00,,,0.00,VWS V14.01,2013-05-29 19:48:00,
2013-05-29 15:49:00,66.9,52.6,29.09,WSW,248,5.8,5.8,60,0.00,,,0.00,VWS V14.01,2013-05-29 19:49:00,
2013-05-29 15:50:00,66.9,52.6,29.09,SW,225,2.9,5.8,60,0.00,,,0.00,VWS V14.01,2013-05-29 19:50:00,
2013-05-29 15:51:00,66.9,53.0,29.09,West,270,4.9,4.9,61,0.00,,,0.00,VWS V14.01,2013-05-29 19:51:00,
2013-05-29 15:52:00,66.9,53.5,29.09,WSW,248,3.6,7.2,62,0.00,,,0.00,VWS V14.01,2013-05-29 19:52:00,
2013-05-29 15:53:00,66.7,54.2,29.09,West,270,3.8,4.9,64,0.00,,,0.00,VWS V14.01,2013-05-29 19:53:00,
2013-05-29 15:54:00,66.9,53.9,29.09,SSW,202,4.5,4.5,63,0.00,,,0.00,VWS V14.01,2013-05-29 19:54:00,
2013-05-29 15:55:00,66.7,53.8,29.09,WSW,248,2.7,4.5,63,0.00,,,0.00,VWS V14.01,2013-05-29 19:55:00,
2013-05-29 15:56:00,66.7,53.8,29.09,SW,225,2.5,3.4,63,0.00,,,0.00,VWS V14.01,2013-05-29 19:56:00,
2013-05-29 15:57:00,66.7,53.8,29.09,SW,225,4.3,6.0,63,0.00,,,0.00,VWS V14.01,2013-05-29 19:57:00,
2013-05-29 15:58:00,67.1,53.7,29.09,SE,135,3.6,3.6,62,0.00,,,0.00,VWS V14.01,2013-05-29 19:58:00,
2013-05-29 15:59:00,66.6,53.6,29.09,WSW,248,4.0,4.0,63,0.00,,,0.00,VWS V14.01,2013-05-29 19:59:00,
2013-05-29 16:00:00,66.6,54.0,29.09,SSW,202,6.0,6.5,64,0.00,,,0.00,VWS V14.01,2013-05-29 20:00:00,
2013-05-29 16:01:00,66.4,53.8,29.09,WSW,248,7.6,7.6,64,0.00,,,0.00,VWS V14.01,2013-05-29 20:01:00,
2013-05-29 16:02:00,66.4,53.8,29.09,SW,225,4.3,7.6,64,0.00,,,0.00,VWS V14.01,2013-05-29 20:02:00,
2013-05-29 16:03:00,66.9,53.0,29.09,WSW,248,6.9,6.9,61,0.00,,,0.00,VWS V14.01,2013-05-29 20:03:00,
2013-05-29 16:04:00,66.4,54.3,29.09,West,270,3.1,7.4,65,0.00,,,0.00,VWS V14.01,2013-05-29 20:04:00,
2013-05-29 16:05:00,66.4,54.3,29.09,West,270,3.1,3.1,65,0.00,,,0.00,VWS V14.01,2013-05-29 20:05:00,
2013-05-29 16:06:00,66.4,54.3,29.09,West,270,4.9,4.9,65,0.00,,,0.00,VWS V14.01,2013-05-29 20:06:00,
2013-05-29 16:07:00,66.4,54.3,29.09,WSW,248,3.4,4.9,65,0.00,,,0.00,VWS V14.01,2013-05-29 20:07:00,
2013-05-29 16:08:00,67.3,52.9,29.09,WSW,248,6.5,6.5,60,0.00,,,0.00,VWS V14.01,2013-05-29 20:08:00,
2013-05-29 16:09:00,66.4,54.7,29.09,SW,225,1.3,4.9,66,0.00,,,0.00,VWS V14.01,2013-05-29 20:09:00,
2013-05-29 16:10:00,66.4,54.7,29.09,SW,225,3.4,3.4,66,0.00,,,0.00,VWS V14.01,2013-05-29 20:10:00,
2013-05-29 16:11:00,66.4,54.7,29.09,SW,225,3.4,3.4,66,0.00,,,0.00,VWS V14.01,2013-05-29 20:11:00,
2013-05-29 16:12:00,66.2,54.5,29.09,WSW,248,3.1,5.6,66,0.00,,,0.00,VWS V14.01,2013-05-29 20:12:00,
2013-05-29 16:13:00,68.0,53.2,29.09,South,180,6.5,6.5,59,0.00,,,0.00,VWS V14.01,2013-05-29 20:13:00,
2013-05-29 16:14:00,66.2,54.5,29.09,SW,225,3.1,3.1,66,0.00,,,0.00,VWS V14.01,2013-05-29 20:14:00,
2013-05-29 16:15:00,66.2,54.5,29.09,SSW,202,3.4,6.0,66,0.00,,,0.00,VWS V14.01,2013-05-29 20:15:00,
2013-05-29 16:16:00,66.2,54.5,29.09,South,180,4.0,4.0,66,0.00,,,0.00,VWS V14.01,2013-05-29 20:16:00,
2013-05-29 16:18:00,69.6,53.2,29.09,West,270,4.3,7.8,56,0.00,,,0.00,VWS V14.01,2013-05-29 20:18:00,
2013-05-29 16:19:00,66.0,54.8,29.09,SW,225,1.6,4.3,67,0.00,,,0.00,VWS V14.01,2013-05-29 20:19:00,
2013-05-29 16:20:00,66.0,54.8,29.09,WSW,248,3.6,5.4,67,0.00,,,0.00,VWS V14.01,2013-05-29 20:20:00,
2013-05-29 16:21:00,66.0,54.8,29.09,South,180,5.6,5.6,67,0.00,,,0.00,VWS V14.01,2013-05-29 20:21:00,
2013-05-29 16:22:00,66.0,54.8,29.09,SW,225,3.1,5.6,67,0.00,,,0.00,VWS V14.01,2013-05-29 20:22:00,
2013-05-29 16:23:00,70.0,52.6,29.09,SSE,158,4.3,5.6,54,0.00,,,0.00,VWS V14.01,2013-05-29 20:23:00,
2013-05-29 16:24:00,66.0,54.8,29.09,SSW,202,2.7,2.7,67,0.00,,,0.00,VWS V14.01,2013-05-29 20:24:00,
2013-05-29 16:25:00,66.0,54.8,29.09,SSW,202,2.7,2.7,67,0.00,,,0.00,VWS V14.01,2013-05-29 20:25:00,
2013-05-29 16:26:00,66.0,54.8,29.09,SW,225,5.6,5.6,67,0.00,,,0.00,VWS V14.01,2013-05-29 20:26:00,
2013-05-29 16:27:00,65.8,54.6,29.09,West,270,2.5,5.6,67,0.00,,,0.00,VWS V14.01,2013-05-29 20:27:00,
2013-05-29 16:28:00,69.3,52.9,29.09,WSW,248,4.0,4.0,56,0.00,,,0.00,VWS V14.01,2013-05-29 20:28:00,
2013-05-29 16:29:00,66.0,54.8,29.09,SSW,202,4.3,4.7,67,0.00,,,0.00,VWS V14.01,2013-05-29 20:29:00,
2013-05-29 16:30:00,65.8,54.6,29.09,SW,225,5.4,5.4,67,0.00,,,0.00,VWS V14.01,2013-05-29 20:30:00,
2013-05-29 16:31:00,65.8,54.6,29.09,SSW,202,3.8,5.4,67,0.00,,,0.00,VWS V14.01,2013-05-29 20:31:00,
2013-05-29 16:32:00,65.8,54.6,29.09,SSW,202,3.8,3.8,67,0.00,,,0.00,VWS V14.01,2013-05-29 20:32:00,
2013-05-29 16:33:00,68.4,52.1,29.09,SSW,202,4.3,4.9,56,0.00,,,0.00,VWS V14.01,2013-05-29 20:33:00,
2013-05-29 16:34:00,65.8,55.0,29.09,WSW,248,6.0,6.0,68,0.00,,,0.00,VWS V14.01,2013-05-29 20:34:00,
2013-05-29 16:35:00,65.8,55.0,29.09,SSW,202,2.7,6.0,68,0.00,,,0.00,VWS V14.01,2013-05-29 20:35:00,
2013-05-29 16:36:00,65.8,55.0,29.09,WSW,248,2.5,5.6,68,0.00,,,0.00,VWS V14.01,2013-05-29 20:36:00,
2013-05-29 16:37:00,66.0,55.2,29.06,WSW,248,3.6,3.6,68,0.00,,,0.00,VWS V14.01,2013-05-29 20:37:00,
2013-05-29 16:38:00,68.0,52.2,29.09,WSW,248,5.6,5.6,57,0.00,,,0.00,VWS V14.01,2013-05-29 20:38:00,
2013-05-29 16:39:00,66.0,55.2,29.06,SSW,202,2.2,2.9,68,0.00,,,0.00,VWS V14.01,2013-05-29 20:39:00,
2013-05-29 16:40:00,66.0,55.2,29.06,SW,225,1.3,3.1,68,0.00,,,0.00,VWS V14.01,2013-05-29 20:40:00,
2013-05-29 16:41:00,66.4,55.5,29.06,SW,225,2.7,2.7,68,0.00,,,0.00,VWS V14.01,2013-05-29 20:41:00,
2013-05-29 16:43:00,67.6,52.8,29.09,SSW,202,3.8,3.8,59,0.00,,,0.00,VWS V14.01,2013-05-29 20:43:00,
2013-05-29 16:44:00,66.6,55.7,29.06,SSW,202,2.0,2.7,68,0.00,,,0.00,VWS V14.01,2013-05-29 20:44:00,
2013-05-29 16:45:00,66.7,55.8,29.06,SW,225,2.0,2.5,68,0.00,,,0.00,VWS V14.01,2013-05-29 20:45:00,
2013-05-29 16:46:00,66.9,56.0,29.06,SSW,202,2.0,2.7,68,0.00,,,0.00,VWS V14.01,2013-05-29 20:46:00,
2013-05-29 16:47:00,67.1,56.2,29.06,WNW,292,2.0,2.7,68,0.00,,,0.00,VWS V14.01,2013-05-29 20:47:00,
2013-05-29 16:48:00,66.9,52.6,29.09,WSW,248,4.3,5.4,60,0.00,,,0.00,VWS V14.01,2013-05-29 20:48:00,
2013-05-29 16:49:00,67.6,56.7,29.06,WSW,248,2.7,4.0,68,0.00,,,0.00,VWS V14.01,2013-05-29 20:49:00,
2013-05-29 16:50:00,67.8,56.9,29.06,WSW,248,3.8,3.8,68,0.00,,,0.00,VWS V14.01,2013-05-29 20:50:00,
2013-05-29 16:51:00,67.8,56.5,29.06,West,270,3.1,4.0,67,0.00,,,0.00,VWS V14.01,2013-05-29 20:51:00,
2013-05-29 16:52:00,68.0,56.2,29.09,WSW,248,3.4,3.4,66,0.00,,,0.00,VWS V14.01,2013-05-29 20:52:00,
2013-05-29 16:53:00,66.9,53.5,29.09,WSW,248,2.7,2.7,62,0.00,,,0.00,VWS V14.01,2013-05-29 20:53:00,
2013-05-29 16:54:00,67.8,55.2,29.09,WSW,248,3.4,3.8,64,0.00,,,0.00,VWS V14.01,2013-05-29 20:54:00,
2013-05-29 16:55:00,67.8,55.2,29.09,WSW,248,5.8,5.8,64,0.00,,,0.00,VWS V14.01,2013-05-29 20:55:00,
2013-05-29 16:56:00,67.8,55.2,29.09,West,270,3.8,5.8,64,0.00,,,0.00,VWS V14.01,2013-05-29 20:56:00,
2013-05-29 16:57:00,67.8,55.2,29.09,SSW,202,4.9,4.9,64,0.00,,,0.00,VWS V14.01,2013-05-29 20:57:00,
2013-05-29 16:58:00,66.6,53.6,29.09,SW,225,2.7,2.9,63,0.00,,,0.00,VWS V14.01,2013-05-29 20:58:00,
2013-05-29 16:59:00,68.0,55.4,29.09,WSW,248,3.4,3.4,64,0.00,,,0.00,VWS V14.01,2013-05-29 20:59:00,
2013-05-29 17:00:00,68.0,55.4,29.09,WNW,292,1.6,3.4,64,0.00,,,0.00,VWS V14.01,2013-05-29 21:00:00,
2013-05-29 17:01:00,68.0,55.0,29.09,SW,225,2.5,3.6,63,0.00,,,0.00,VWS V14.01,2013-05-29 21:01:00,
2013-05-29 17:02:00,68.0,55.0,29.09,SW,225,2.0,3.1,63,0.00,,,0.00,VWS V14.01,2013-05-29 21:02:00,
2013-05-29 17:03:00,66.4,54.3,29.09,SW,225,2.9,7.4,65,0.00,,,0.00,VWS V14.01,2013-05-29 21:03:00,
2013-05-29 17:04:00,68.0,55.4,29.09,SW,225,4.0,4.3,64,0.00,,,0.00,VWS V14.01,2013-05-29 21:04:00,
2013-05-29 17:05:00,68.0,55.4,29.09,SSW,202,2.9,4.0,64,0.00,,,0.00,VWS V14.01,2013-05-29 21:05:00,
2013-05-29 17:06:00,67.6,55.0,29.09,South,180,3.8,3.8,64,0.00,,,0.00,VWS V14.01,2013-05-29 21:06:00,
2013-05-29 17:07:00,67.6,55.0,29.06,SSW,202,1.3,3.8,64,0.00,,,0.00,VWS V14.01,2013-05-29 21:07:00,
2013-05-29 17:08:00,66.4,54.7,29.09,South,180,4.9,4.9,66,0.00,,,0.00,VWS V14.01,2013-05-29 21:08:00,
2013-05-29 17:09:00,68.0,55.4,29.06,SW,225,1.3,3.1,64,0.00,,,0.00,VWS V14.01,2013-05-29 21:09:00,
2013-05-29 17:10:00,68.0,55.4,29.06,WSW,248,2.0,2.0,64,0.00,,,0.00,VWS V14.01,2013-05-29 21:10:00,
2013-05-29 17:11:00,68.4,55.7,29.06,West,270,2.0,2.5,64,0.00,,,0.00,VWS V14.01,2013-05-29 21:11:00,
2013-05-29 17:12:00,68.4,55.7,29.06,WSW,248,0.0,3.1,64,0.00,,,0.00,VWS V14.01,2013-05-29 21:12:00,
2013-05-29 17:13:00,68.5,55.9,29.06,WSW,248,1.3,2.0,64,0.00,,,0.00,VWS V14.01,2013-05-29 21:13:00,
2013-05-29 17:14:00,66.2,54.5,29.09,WSW,248,0.0,1.3,66,0.00,,,0.00,VWS V14.01,2013-05-29 21:14:00,
2013-05-29 17:15:00,68.7,56.1,29.06,WSW,248,3.6,3.6,64,0.00,,,0.00,VWS V14.01,2013-05-29 21:15:00,
2013-05-29 17:16:00,68.7,56.1,29.06,WSW,248,3.6,3.6,64,0.00,,,0.00,VWS V14.01,2013-05-29 21:16:00,
2013-05-29 17:17:00,69.1,56.4,29.06,West,270,1.6,3.6,64,0.00,,,0.00,VWS V14.01,2013-05-29 21:17:00,
2013-05-29 17:18:00,69.1,56.4,29.06,WSW,248,2.7,2.7,64,0.00,,,0.00,VWS V14.01,2013-05-29 21:18:00,
2013-05-29 17:19:00,66.0,54.8,29.09,WSW,248,4.3,4.3,67,0.00,,,0.00,VWS V14.01,2013-05-29 21:19:00,
2013-05-29 17:20:00,69.1,55.5,29.06,West,270,3.4,4.3,62,0.00,,,0.00,VWS V14.01,2013-05-29 21:20:00,
2013-05-29 17:21:00,69.1,55.5,29.06,WSW,248,2.5,3.4,62,0.00,,,0.00,VWS V14.01,2013-05-29 21:21:00,
2013-05-29 17:22:00,69.1,55.5,29.06,West,270,3.8,3.8,62,0.00,,,0.00,VWS V14.01,2013-05-29 21:22:00,
2013-05-29 17:23:00,69.1,55.5,29.06,SW,225,3.1,3.8,62,0.00,,,0.00,VWS V14.01,2013-05-29 21:23:00,
2013-05-29 17:24:00,66.0,54.8,29.09,SSW,202,2.7,2.7,67,0.00,,,0.00,VWS V14.01,2013-05-29 21:24:00,
2013-05-29 17:25:00,69.1,55.5,29.06,SSW,202,3.8,3.8,62,0.00,,,0.00,VWS V14.01,2013-05-29 21:25:00,
2013-05-29 17:26:00,69.1,55.5,29.06,SW,225,2.9,3.8,62,0.00,,,0.00,VWS V14.01,2013-05-29 21:26:00,
2013-05-29 17:27:00,69.1,56.0,29.06,West,270,2.5,3.1,63,0.00,,,0.00,VWS V14.01,2013-05-29 21:27:00,
2013-05-29 17:28:00,69.1,56.0,29.06,WSW,248,2.5,2.9,63,0.00,,,0.00,VWS V14.01,2013-05-29 21:28:00,
2013-05-29 17:29:00,66.0,54.8,29.09,SSW,202,4.3,4.7,67,0.00,,,0.00,VWS V14.01,2013-05-29 21:29:00,
2013-05-29 17:30:00,69.1,56.0,29.06,WSW,248,2.5,3.4,63,0.00,,,0.00,VWS V14.01,2013-05-29 21:30:00,
2013-05-29 17:31:00,69.1,56.0,29.06,WSW,248,2.5,5.6,63,0.00,,,0.00,VWS V14.01,2013-05-29 21:31:00,
2013-05-29 17:32:00,69.3,56.1,29.06,SW,225,3.6,4.3,63,0.00,,,0.00,VWS V14.01,2013-05-29 21:32:00,
2013-05-29 17:33:00,69.3,56.1,29.06,SSW,202,2.2,3.6,63,0.00,,,0.00,VWS V14.01,2013-05-29 21:33:00,
2013-05-29 17:34:00,65.8,55.0,29.09,WSW,248,6.0,6.0,68,0.00,,,0.00,VWS V14.01,2013-05-29 21:34:00,
2013-05-29 17:35:00,69.3,56.1,29.06,WNW,292,3.8,4.0,63,0.00,,,0.00,VWS V14.01,2013-05-29 21:35:00,
2013-05-29 17:36:00,69.3,55.7,29.06,SW,225,1.3,4.0,62,0.00,,,0.00,VWS V14.01,2013-05-29 21:36:00,
2013-05-29 17:37:00,69.4,56.3,29.06,WSW,248,4.3,4.3,63,0.00,,,0.00,VWS V14.01,2013-05-29 21:37:00,
2013-05-29 17:38:00,69.6,56.0,29.06,South,180,3.1,4.3,62,0.00,,,0.00,VWS V14.01,2013-05-29 21:38:00,
2013-05-29 17:39:00,66.0,55.2,29.06,South,180,2.9,2.9,68,0.00,,,0.00,VWS V14.01,2013-05-29 21:39:00,
2013-05-29 17:40:00,69.8,56.2,29.06,SSW,202,2.5,3.1,62,0.00,,,0.00,VWS V14.01,2013-05-29 21:40:00,
2013-05-29 17:41:00,69.8,56.2,29.06,South,180,2.7,3.6,62,0.00,,,0.00,VWS V14.01,2013-05-29 21:41:00,
2013-05-29 17:42:00,70.2,56.5,29.06,SW,225,3.4,3.4,62,0.00,,,0.00,VWS V14.01,2013-05-29 21:42:00,
2013-05-29 17:43:00,70.2,56.1,29.06,SW,225,2.7,4.0,61,0.00,,,0.00,VWS V14.01,2013-05-29 21:43:00,
2013-05-29 17:44:00,66.4,55.5,29.06,SSW,202,2.0,2.7,68,0.00,,,0.00,VWS V14.01,2013-05-29 21:44:00,
2013-05-29 17:45:00,70.2,55.6,29.06,WSW,248,5.6,5.6,60,0.00,,,0.00,VWS V14.01,2013-05-29 21:45:00,
2013-05-29 17:46:00,70.3,55.8,29.06,SSW,202,3.6,5.6,60,0.00,,,0.00,VWS V14.01,2013-05-29 21:46:00,
2013-05-29 17:47:00,70.2,55.2,29.06,SW,225,5.8,6.0,59,0.00,,,0.00,VWS V14.01,2013-05-29 21:47:00,
2013-05-29 17:48:00,70.3,55.8,29.06,WSW,248,4.0,5.8,60,0.00,,,0.00,VWS V14.01,2013-05-29 21:48:00,
2013-05-29 17:49:00,67.6,56.7,29.06,WSW,248,2.7,4.0,68,0.00,,,0.00,VWS V14.01,2013-05-29 21:49:00,
2013-05-29 17:50:00,70.3,55.8,29.06,WSW,248,3.4,5.4,60,0.00,,,0.00,VWS V14.01,2013-05-29 21:50:00,
2013-05-29 17:51:00,69.6,55.1,29.06,SW,225,2.7,4.0,60,0.00,,,0.00,VWS V14.01,2013-05-29 21:51:00,
2013-05-29 17:52:00,69.6,55.1,29.03,WSW,248,3.1,4.3,60,0.00,,,0.00,VWS V14.01,2013-05-29 21:52:00,
2013-05-29 17:53:00,69.4,55.0,29.03,West,270,4.0,4.0,60,0.00,,,0.00,VWS V14.01,2013-05-29 21:53:00,
2013-05-29 17:54:00,67.8,55.2,29.09,WSW,248,3.4,3.8,64,0.00,,,0.00,VWS V14.01,2013-05-29 21:54:00,
2013-05-29 17:55:00,69.3,55.2,29.03,SSW,202,2.9,5.6,61,0.00,,,0.00,VWS V14.01,2013-05-29 21:55:00,
2013-05-29 17:56:00,69.1,55.5,29.03,WSW,248,3.8,5.4,62,0.00,,,0.00,VWS V14.01,2013-05-29 21:56:00,
2013-05-29 17:57:00,69.1,55.5,29.03,WSW,248,3.8,3.8,62,0.00,,,0.00,VWS V14.01,2013-05-29 21:57:00,
2013-05-29 17:58:00,68.9,55.4,29.03,SSW,202,3.4,6.0,62,0.00,,,0.00,VWS V14.01,2013-05-29 21:58:00,
2013-05-29 17:59:00,68.0,55.4,29.09,WSW,248,3.4,3.4,64,0.00,,,0.00,VWS V14.01,2013-05-29 21:59:00,
2013-05-29 18:00:00,68.9,55.8,29.03,SW,225,4.3,4.3,63,0.00,,,0.00,VWS V14.01,2013-05-29 22:00:00,
2013-05-29 18:01:00,69.1,56.0,29.03,SW,225,0.0,4.3,63,0.00,,,0.00,VWS V14.01,2013-05-29 22:01:00,
2013-05-29 18:02:00,69.1,56.4,29.03,WSW,248,2.7,2.7,64,0.00,,,0.00,VWS V14.01,2013-05-29 22:02:00,
2013-05-29 18:03:00,69.1,56.4,29.03,WSW,248,2.7,4.0,64,0.00,,,0.00,VWS V14.01,2013-05-29 22:03:00,
2013-05-29 18:04:00,68.0,55.4,29.09,SW,225,4.0,4.0,64,0.00,,,0.00,VWS V14.01,2013-05-29 22:04:00,
2013-05-29 18:05:00,69.1,56.4,29.03,SSE,158,0.9,0.9,64,0.00,,,0.00,VWS V14.01,2013-05-29 22:05:00,
2013-05-29 18:06:00,69.1,56.4,29.03,SW,225,3.1,3.1,64,0.00,,,0.00,VWS V14.01,2013-05-29 22:06:00,
2013-05-29 18:07:00,68.9,56.2,29.03,SW,225,2.7,3.6,64,0.00,,,0.00,VWS V14.01,2013-05-29 22:07:00,
2013-05-29 18:08:00,68.9,56.2,29.03,WSW,248,3.8,3.8,64,0.00,,,0.00,VWS V14.01,2013-05-29 22:08:00,
2013-05-29 18:09:00,68.0,55.4,29.06,SW,225,1.1,1.3,64,0.00,,,0.00,VWS V14.01,2013-05-29 22:09:00,
2013-05-29 18:10:00,68.9,56.7,29.03,WNW,292,3.8,3.8,65,0.00,,,0.00,VWS V14.01,2013-05-29 22:10:00,
2013-05-29 18:11:00,69.1,56.8,29.03,South,180,2.5,4.3,65,0.00,,,0.00,VWS V14.01,2013-05-29 22:11:00,
2013-05-29 18:12:00,69.1,56.8,29.03,SSW,202,0.9,3.8,65,0.00,,,0.00,VWS V14.01,2013-05-29 22:12:00,
2013-05-29 18:13:00,69.4,57.2,29.03,SSW,202,2.2,2.2,65,0.00,,,0.00,VWS V14.01,2013-05-29 22:13:00,
2013-05-29 18:14:00,68.7,56.1,29.06,West,270,0.0,1.1,64,0.00,,,0.00,VWS V14.01,2013-05-29 22:14:00,
2013-05-29 18:15:00,69.8,57.1,29.03,NW,315,2.9,4.0,64,0.00,,,0.00,VWS V14.01,2013-05-29 22:15:00,
2013-05-29 18:16:00,70.2,57.4,29.03,WSW,248,3.1,4.3,64,0.00,,,0.00,VWS V14.01,2013-05-29 22:16:00,
2013-05-29 18:17:00,70.3,57.6,29.03,WSW,248,1.6,3.1,64,0.00,,,0.00,VWS V14.01,2013-05-29 22:17:00,
2013-05-29 18:18:00,70.3,57.6,29.03,SSW,202,2.9,3.8,64,0.00,,,0.00,VWS V14.01,2013-05-29 22:18:00,
2013-05-29 18:19:00,69.3,56.1,29.06,SSW,202,2.9,3.1,63,0.00,,,0.00,VWS V14.01,2013-05-29 22:19:00,
2013-05-29 18:20:00,70.5,57.3,29.03,WSW,248,0.9,4.3,63,0.00,,,0.00,VWS V14.01,2013-05-29 22:20:00,
2013-05-29 18:21:00,70.5,56.9,29.03,West,270,3.1,3.1,62,0.00,,,0.00,VWS V14.01,2013-05-29 22:21:00,
2013-05-29 18:22:00,70.5,56.9,29.03,West,270,3.1,3.1,62,0.00,,,0.00,VWS V14.01,2013-05-29 22:22:00,
2013-05-29 18:23:00,70.5,56.9,29.03,West,270,3.1,3.1,62,0.00,,,0.00,VWS V14.01,2013-05-29 22:23:00,
2013-05-29 18:24:00,69.1,55.5,29.06,SSW,202,1.6,2.0,62,0.00,,,0.00,VWS V14.01,2013-05-29 22:24:00,
2013-05-29 18:25:00,70.3,56.3,29.03,SW,225,3.1,5.4,61,0.00,,,0.00,VWS V14.01,2013-05-29 22:25:00,
2013-05-29 18:26:00,70.2,55.6,29.03,WSW,248,3.4,4.3,60,0.00,,,0.00,VWS V14.01,2013-05-29 22:26:00,
2013-05-29 18:27:00,70.2,55.6,29.03,WSW,248,4.0,4.3,60,0.00,,,0.00,VWS V14.01,2013-05-29 22:27:00,
2013-05-29 18:28:00,70.2,55.6,29.03,WSW,248,2.7,4.0,60,0.00,,,0.00,VWS V14.01,2013-05-29 22:28:00,
2013-05-29 18:29:00,69.1,55.5,29.06,WSW,248,1.6,3.4,62,0.00,,,0.00,VWS V14.01,2013-05-29 22:29:00,
2013-05-29 18:30:00,70.3,56.3,29.03,WSW,248,2.2,2.5,61,0.00,,,0.00,VWS V14.01,2013-05-29 22:30:00,
2013-05-29 18:31:00,70.5,56.4,29.03,SSE,158,0.0,2.2,61,0.00,,,0.00,VWS V14.01,2013-05-29 22:31:00,
2013-05-29 18:33:00,70.5,56.4,29.03,SSE,158,0.0,0.0,61,0.00,,,0.00,VWS V14.01,2013-05-29 22:33:00,
2013-05-29 18:34:00,69.4,56.3,29.06,West,270,1.3,1.3,63,0.00,,,0.00,VWS V14.01,2013-05-29 22:34:00,
2013-05-29 18:35:00,70.5,56.4,29.03,SW,225,0.9,4.0,61,0.00,,,0.00,VWS V14.01,2013-05-29 22:35:00,
2013-05-29 18:36:00,70.3,56.3,29.03,SSE,158,0.0,0.9,61,0.00,,,0.00,VWS V14.01,2013-05-29 22:36:00,
2013-05-29 18:37:00,70.3,56.3,29.03,South,180,0.0,1.3,61,0.00,,,0.00,VWS V14.01,2013-05-29 22:37:00,
2013-05-29 18:38:00,70.3,56.3,29.03,South,180,0.0,1.1,61,0.00,,,0.00,VWS V14.01,2013-05-29 22:38:00,
2013-05-29 18:39:00,69.8,56.2,29.06,SSW,202,2.5,3.1,62,0.00,,,0.00,VWS V14.01,2013-05-29 22:39:00,
2013-05-29 18:40:00,70.3,56.3,29.03,SW,225,2.0,4.0,61,0.00,,,0.00,VWS V14.01,2013-05-29 22:40:00,
2013-05-29 18:41:00,70.2,55.6,29.03,WSW,248,2.9,3.8,60,0.00,,,0.00,VWS V14.01,2013-05-29 22:41:00,
2013-05-29 18:42:00,70.2,55.6,29.03,West,270,3.4,3.6,60,0.00,,,0.00,VWS V14.01,2013-05-29 22:42:00,
2013-05-29 18:43:00,70.2,55.6,29.03,SW,225,2.0,4.3,60,0.00,,,0.00,VWS V14.01,2013-05-29 22:43:00,
2013-05-29 18:44:00,70.2,55.6,29.06,WSW,248,4.3,4.3,60,0.00,,,0.00,VWS V14.01,2013-05-29 22:44:00,
2013-05-29 18:45:00,70.2,55.6,29.03,West,270,1.3,4.3,60,0.00,,,0.00,VWS V14.01,2013-05-29 22:45:00,
2013-05-29 18:46:00,70.2,55.6,29.03,West,270,1.3,1.3,60,0.00,,,0.00,VWS V14.01,2013-05-29 22:46:00,
2013-05-29 18:47:00,70.2,55.6,29.03,WSW,248,1.1,1.3,60,0.00,,,0.00,VWS V14.01,2013-05-29 22:47:00,
2013-05-29 18:49:00,70.3,55.8,29.06,WSW,248,5.4,5.4,60,0.00,,,0.00,VWS V14.01,2013-05-29 22:49:00,
2013-05-29 18:54:00,69.3,55.2,29.03,SW,225,4.3,4.3,61,0.00,,,0.00,VWS V14.01,2013-05-29 22:54:00,
2013-05-29 18:55:00,70.0,55.9,29.00,WSW,248,2.9,2.9,61,0.00,,,40.96,VWS V14.01,2013-05-29 22:55:00,
2013-05-29 18:56:00,70.0,55.9,29.00,SSW,202,0.0,0.9,61,0.00,,,40.96,VWS V14.01,2013-05-29 22:56:00,
2013-05-29 18:57:00,70.0,55.9,29.00,SSW,202,0.0,0.0,61,0.00,,,40.96,VWS V14.01,2013-05-29 22:57:00,
2013-05-29 18:58:00,70.0,55.9,29.00,SSW,202,2.0,3.1,61,0.00,,,40.96,VWS V14.01,2013-05-29 22:58:00,
2013-05-29 18:59:00,68.9,55.8,29.03,SSW,202,1.3,3.6,63,0.00,,,0.00,VWS V14.01,2013-05-29 22:59:00,
2013-05-29 19:00:00,69.8,55.8,29.00,SW,225,2.0,2.0,61,0.00,,,40.96,VWS V14.01,2013-05-29 23:00:00,
2013-05-29 19:01:00,69.8,55.8,29.00,West,270,3.1,3.1,61,0.00,,,40.96,VWS V14.01,2013-05-29 23:01:00,
2013-05-29 19:02:00,69.8,55.8,29.00,SSW,202,0.0,3.4,61,0.00,,,40.96,VWS V14.01,2013-05-29 23:02:00,
2013-05-29 19:03:00,69.6,55.6,29.00,SSW,202,2.2,2.2,61,0.00,,,40.96,VWS V14.01,2013-05-29 23:03:00,
2013-05-29 19:04:00,69.1,56.4,29.03,SW,225,0.9,0.9,64,0.00,,,0.00,VWS V14.01,2013-05-29 23:04:00,
2013-05-29 19:05:00,69.6,56.0,29.00,West,270,1.3,1.3,62,0.00,,,40.96,VWS V14.01,2013-05-29 23:05:00,
2013-05-29 19:06:00,69.6,56.0,29.03,WNW,292,0.0,2.2,62,0.00,,,40.96,VWS V14.01,2013-05-29 23:06:00,
2013-05-29 19:07:00,69.8,56.2,29.03,WNW,292,0.0,0.0,62,0.00,,,40.96,VWS V14.01,2013-05-29 23:07:00,
2013-05-29 19:08:00,69.8,56.2,29.03,WNW,292,0.0,0.0,62,0.00,,,40.96,VWS V14.01,2013-05-29 23:08:00,
2013-05-29 19:09:00,68.9,56.7,29.03,WSW,248,1.1,3.6,65,0.00,,,0.00,VWS V14.01,2013-05-29 23:09:00,
2013-05-29 19:10:00,69.8,56.2,29.03,WNW,292,0.0,0.0,62,0.00,,,40.96,VWS V14.01,2013-05-29 23:10:00,
2013-05-29 19:11:00,69.8,56.2,29.03,WNW,292,0.0,0.0,62,0.00,,,40.96,VWS V14.01,2013-05-29 23:11:00,
2013-05-29 19:12:00,69.8,56.2,29.03,WNW,292,0.0,0.0,62,0.00,,,40.96,VWS V14.01,2013-05-29 23:12:00,
2013-05-29 19:13:00,69.6,56.5,29.03,WNW,292,0.0,0.0,63,0.00,,,40.96,VWS V14.01,2013-05-29 23:13:00,
2013-05-29 19:14:00,69.8,57.1,29.03,SW,225,1.6,4.0,64,0.00,,,0.00,VWS V14.01,2013-05-29 23:14:00,
2013-05-29 19:15:00,69.6,56.5,29.03,WNW,292,0.0,0.0,63,0.00,,,40.96,VWS V14.01,2013-05-29 23:15:00,
2013-05-29 19:16:00,69.4,56.3,29.03,WNW,292,0.0,0.0,63,0.00,,,40.96,VWS V14.01,2013-05-29 23:16:00,
2013-05-29 19:17:00,69.4,56.3,29.03,WNW,292,0.0,0.0,63,0.00,,,40.96,VWS V14.01,2013-05-29 23:17:00,
2013-05-29 19:18:00,69.4,56.3,29.03,WNW,292,0.0,0.0,63,0.00,,,40.96,VWS V14.01,2013-05-29 23:18:00,
2013-05-29 19:19:00,70.5,57.3,29.03,West,270,3.6,4.3,63,0.00,,,0.00,VWS V14.01,2013-05-29 23:19:00,
2013-05-29 19:20:00,69.3,55.7,29.03,WNW,292,0.0,0.0,62,0.00,,,40.96,VWS V14.01,2013-05-29 23:20:00,
2013-05-29 19:22:00,68.9,55.4,29.00,WNW,292,0.0,0.0,62,0.00,,,40.96,VWS V14.01,2013-05-29 23:22:00,
2013-05-29 19:23:00,68.7,55.2,29.00,WNW,292,0.0,0.0,62,0.00,,,40.96,VWS V14.01,2013-05-29 23:23:00,
2013-05-29 19:24:00,70.3,56.7,29.03,WSW,248,4.0,5.4,62,0.00,,,0.00,VWS V14.01,2013-05-29 23:24:00,
2013-05-29 19:25:00,68.7,55.2,29.00,WNW,292,0.0,0.0,62,0.00,,,40.96,VWS V14.01,2013-05-29 23:25:00,
2013-05-29 19:26:00,68.7,55.2,29.00,WNW,292,0.0,0.0,62,0.00,,,40.96,VWS V14.01,2013-05-29 23:26:00,
2013-05-29 19:27:00,68.5,55.0,29.00,WNW,292,0.0,0.0,62,0.00,,,40.96,VWS V14.01,2013-05-29 23:27:00,
2013-05-29 19:28:00,68.5,55.5,29.00,WNW,292,0.0,0.0,63,0.00,,,40.96,VWS V14.01,2013-05-29 23:28:00,
2013-05-29 19:29:00,70.3,56.3,29.03,WSW,248,2.2,2.5,61,0.00,,,0.00,VWS V14.01,2013-05-29 23:29:00,
2013-05-29 19:30:00,68.5,55.5,29.00,WNW,292,0.0,0.0,63,0.00,,,40.96,VWS V14.01,2013-05-29 23:30:00,
2013-05-29 19:31:00,68.4,55.3,29.00,WNW,292,0.0,0.0,63,0.00,,,40.96,VWS V14.01,2013-05-29 23:31:00,
2013-05-29 19:32:00,68.4,55.3,29.00,WNW,292,0.0,0.0,63,0.00,,,40.96,VWS V14.01,2013-05-29 23:32:00,
2013-05-29 19:33:00,68.2,55.1,29.00,WNW,292,0.0,0.0,63,0.00,,,40.96,VWS V14.01,2013-05-29 23:33:00,
2013-05-29 19:34:00,70.5,56.4,29.03,South,180,4.0,4.0,61,0.00,,,0.00,VWS V14.01,2013-05-29 23:34:00,
2013-05-29 19:35:00,68.0,55.0,29.00,NW,315,0.0,0.0,63,0.00,,,40.96,VWS V14.01,2013-05-29 23:35:00,
2013-05-29 19:36:00,68.0,55.0,29.00,NW,315,0.0,0.0,63,0.00,,,40.96,VWS V14.01,2013-05-29 23:36:00,
2013-05-29 19:37:00,68.0,55.0,29.03,NW,315,0.0,0.0,63,0.00,,,40.96,VWS V14.01,2013-05-29 23:37:00,
2013-05-29 19:38:00,67.8,55.2,29.03,NW,315,0.0,0.0,64,0.00,,,40.96,VWS V14.01,2013-05-29 23:38:00,
2013-05-29 19:39:00,70.3,56.3,29.03,SSW,202,4.0,4.0,61,0.00,,,0.00,VWS V14.01,2013-05-29 23:39:00,
2013-05-29 19:41:00,67.6,55.5,29.03,NW,315,0.0,0.0,65,0.00,,,40.96,VWS V14.01,2013-05-29 23:41:00,
2013-05-29 19:42:00,67.5,55.3,29.03,NW,315,0.0,0.0,65,0.00,,,40.96,VWS V14.01,2013-05-29 23:42:00,
2013-05-29 19:43:00,67.5,55.3,29.03,NW,315,0.0,0.0,65,0.00,,,40.96,VWS V14.01,2013-05-29 23:43:00,
2013-05-29 19:44:00,70.2,55.6,29.03,WSW,248,3.4,4.3,60,0.00,,,0.00,VWS V14.01,2013-05-29 23:44:00,
2013-05-29 19:45:00,67.3,55.5,29.03,NW,315,0.0,0.0,66,0.00,,,40.96,VWS V14.01,2013-05-29 23:45:00,
2013-05-29 19:46:00,67.3,55.5,29.03,NW,315,0.0,0.0,66,0.00,,,40.96,VWS V14.01,2013-05-29 23:46:00,
2013-05-29 19:47:00,67.1,55.4,29.03,NW,315,0.0,0.0,66,0.00,,,40.96,VWS V14.01,2013-05-29 23:47:00,
2013-05-29 19:48:00,67.1,55.4,29.03,NW,315,0.0,0.0,66,0.00,,,40.96,VWS V14.01,2013-05-29 23:48:00,
2013-05-29 19:49:00,70.0,55.9,29.03,WSW,248,3.6,4.0,61,0.00,,,0.00,VWS V14.01,2013-05-29 23:49:00,
2013-05-29 19:50:00,66.9,55.2,29.03,East,90,0.0,0.0,66,0.00,,,40.96,VWS V14.01,2013-05-29 23:50:00,
2013-05-29 19:51:00,66.9,55.2,29.03,East,90,0.0,1.1,66,0.00,,,40.96,VWS V14.01,2013-05-29 23:51:00,
2013-05-29 19:52:00,66.7,55.5,29.03,East,90,0.0,0.0,67,0.00,,,40.96,VWS V14.01,2013-05-29 23:52:00,
2013-05-29 19:53:00,66.6,55.3,29.03,East,90,0.0,0.0,67,0.00,,,40.96,VWS V14.01,2013-05-29 23:53:00,
2013-05-29 19:54:00,66.4,55.5,29.03,East,90,1.3,1.3,68,40.96,,,40.96,VWS V14.01,2013-05-29 23:54:00,
2013-05-29 19:55:00,66.4,55.5,29.03,East,90,0.0,0.0,68,0.00,,,40.96,VWS V14.01,2013-05-29 23:55:00,
2013-05-29 19:56:00,66.2,55.3,29.03,East,90,0.0,0.0,68,0.00,,,40.96,VWS V14.01,2013-05-29 23:56:00,
2013-05-29 19:58:00,66.2,55.7,29.03,East,90,0.0,0.0,69,0.00,,,40.96,VWS V14.01,2013-05-29 23:58:00,
2013-05-29 19:59:00,66.0,55.6,29.03,East,90,0.0,0.0,69,0.00,,,40.96,VWS V14.01,2013-05-29 23:59:00,
2013-05-29 20:00:00,65.8,55.4,29.03,East,90,0.0,0.0,69,0.00,,,40.96,VWS V14.01,2013-05-30 00:00:00,
2013-05-29 20:01:00,65.8,55.4,29.03,East,90,0.0,0.0,69,0.00,,,40.96,VWS V14.01,2013-05-30 00:01:00,
2013-05-29 20:02:00,65.7,55.6,29.03,ESE,112,0.0,0.0,70,0.00,,,40.96,VWS V14.01,2013-05-30 00:02:00,
2013-05-29 20:03:00,65.7,55.6,29.03,ESE,112,0.0,0.0,70,0.00,,,40.96,VWS V14.01,2013-05-30 00:03:00,
2013-05-29 20:04:00,65.7,55.6,29.03,ESE,112,0.0,0.0,70,0.00,,,40.96,VWS V14.01,2013-05-30 00:04:00,
2013-05-29 20:05:00,65.5,55.5,29.03,ESE,112,0.0,0.0,70,0.00,,,40.96,VWS V14.01,2013-05-30 00:05:00,
2013-05-29 20:06:00,65.5,55.5,29.03,ESE,112,0.0,0.0,70,0.00,,,40.96,VWS V14.01,2013-05-30 00:06:00,
2013-05-29 20:07:00,65.5,55.5,29.03,ESE,112,0.0,0.0,70,0.00,,,40.96,VWS V14.01,2013-05-30 00:07:00,
2013-05-29 20:08:00,65.3,55.3,29.03,ESE,112,0.0,0.0,70,0.00,,,40.96,VWS V14.01,2013-05-30 00:08:00,
2013-05-29 20:09:00,65.1,55.5,29.03,ESE,112,0.0,0.0,71,0.00,,,40.96,VWS V14.01,2013-05-30 00:09:00,
2013-05-29 20:10:00,65.1,55.5,29.03,ESE,112,0.0,0.0,71,0.00,,,40.96,VWS V14.01,2013-05-30 00:10:00,
2013-05-29 20:11:00,64.9,55.3,29.03,ESE,112,0.0,0.0,71,0.00,,,40.96,VWS V14.01,2013-05-30 00:11:00,
2013-05-29 20:12:00,64.9,55.3,29.03,ESE,112,0.0,0.0,71,0.00,,,40.96,VWS V14.01,2013-05-30 00:12:00,
2013-05-29 20:13:00,64.8,55.2,29.03,ESE,112,0.0,0.0,71,0.00,,,40.96,VWS V14.01,2013-05-30 00:13:00,
2013-05-29 20:14:00,64.8,55.5,29.03,ESE,112,0.0,0.0,72,0.00,,,40.96,VWS V14.01,2013-05-30 00:14:00,
2013-05-29 20:16:00,64.6,55.4,29.03,ESE,112,0.0,0.0,72,0.00,,,40.96,VWS V14.01,2013-05-30 00:16:00,
2013-05-29 20:17:00,64.6,55.4,29.03,ESE,112,0.0,0.0,72,0.00,,,40.96,VWS V14.01,2013-05-30 00:17:00,
2013-05-29 20:18:00,64.2,55.4,29.03,ESE,112,0.0,0.0,73,0.00,,,40.96,VWS V14.01,2013-05-30 00:18:00,
2013-05-29 20:19:00,64.2,55.4,29.03,ESE,112,0.0,0.0,73,0.00,,,40.96,VWS V14.01,2013-05-30 00:19:00,
2013-05-29 20:20:00,64.0,55.6,29.03,ESE,112,0.0,0.0,74,0.00,,,40.96,VWS V14.01,2013-05-30 00:20:00,
2013-05-29 20:21:00,64.0,55.6,29.03,ESE,112,0.0,0.0,74,0.00,,,40.96,VWS V14.01,2013-05-30 00:21:00,
2013-05-29 20:22:00,63.9,55.8,29.03,ESE,112,0.0,0.0,75,0.00,,,40.96,VWS V14.01,2013-05-30 00:22:00,
2013-05-29 20:23:00,63.7,55.6,29.03,ESE,112,0.0,0.0,75,0.00,,,40.96,VWS V14.01,2013-05-30 00:23:00,
2013-05-29 20:24:00,63.7,55.6,29.03,ESE,112,0.0,0.0,75,0.00,,,40.96,VWS V14.01,2013-05-30 00:24:00,
2013-05-29 20:25:00,63.7,56.0,29.03,ESE,112,0.0,0.0,76,0.00,,,40.96,VWS V14.01,2013-05-30 00:25:00,
2013-05-29 20:26:00,63.5,55.4,29.03,ESE,112,0.0,0.0,75,0.00,,,40.96,VWS V14.01,2013-05-30 00:26:00,
2013-05-29 20:27:00,63.5,55.4,29.03,ESE,112,0.0,0.0,75,0.00,,,40.96,VWS V14.01,2013-05-30 00:27:00,
2013-05-29 20:28:00,63.5,55.4,29.03,ESE,112,0.0,0.0,75,0.00,,,40.96,VWS V14.01,2013-05-30 00:28:00,
2013-05-29 20:29:00,63.5,55.8,29.03,ESE,112,0.0,0.0,76,0.00,,,40.96,VWS V14.01,2013-05-30 00:29:00,
2013-05-29 20:30:00,63.5,55.4,29.03,ESE,112,0.0,0.0,75,0.00,,,40.96,VWS V14.01,2013-05-30 00:30:00,
2013-05-29 20:31:00,63.5,55.4,29.03,ESE,112,0.0,0.0,75,0.00,,,40.96,VWS V14.01,2013-05-30 00:31:00,
2013-05-29 20:32:00,63.5,55.8,29.03,ESE,112,0.0,0.0,76,0.00,,,40.96,VWS V14.01,2013-05-30 00:32:00,
2013-05-29 20:33:00,63.5,55.8,29.03,ESE,112,0.0,0.0,76,0.00,,,40.96,VWS V14.01,2013-05-30 00:33:00,
2013-05-29 20:34:00,63.3,55.6,29.03,ESE,112,0.0,0.0,76,0.00,,,40.96,VWS V14.01,2013-05-30 00:34:00,
2013-05-29 20:35:00,63.3,55.6,29.03,ESE,112,0.0,0.0,76,0.00,,,40.96,VWS V14.01,2013-05-30 00:35:00,
2013-05-29 20:36:00,63.3,55.6,29.03,ESE,112,0.0,0.0,76,0.00,,,40.96,VWS V14.01,2013-05-30 00:36:00,
2013-05-29 20:37:00,63.3,55.6,29.03,ESE,112,0.0,0.0,76,0.00,,,40.96,VWS V14.01,2013-05-30 00:37:00,
2013-05-29 20:38:00,63.1,55.8,29.03,ESE,112,0.0,0.0,77,0.00,,,40.96,VWS V14.01,2013-05-30 00:38:00,
2013-05-29 20:39:00,63.1,55.8,29.03,ESE,112,0.0,0.0,77,0.00,,,40.96,VWS V14.01,2013-05-30 00:39:00,
2013-05-29 20:40:00,63.0,55.7,29.03,ESE,112,0.0,0.0,77,0.00,,,40.96,VWS V14.01,2013-05-30 00:40:00,
2013-05-29 20:41:00,63.0,55.7,29.03,ESE,112,0.0,0.0,77,0.00,,,40.96,VWS V14.01,2013-05-30 00:41:00,
2013-05-29 20:42:00,63.0,55.7,29.03,ESE,112,0.0,0.0,77,0.00,,,40.96,VWS V14.01,2013-05-30 00:42:00,
2013-05-29 20:43:00,63.0,55.7,29.03,ESE,112,0.0,0.0,77,0.00,,,40.96,VWS V14.01,2013-05-30 00:43:00,
2013-05-29 20:44:00,62.8,55.8,29.03,ESE,112,0.0,0.0,78,0.00,,,40.96,VWS V14.01,2013-05-30 00:44:00,
2013-05-29 20:45:00,62.8,55.8,29.03,ESE,112,0.0,0.0,78,0.00,,,40.96,VWS V14.01,2013-05-30 00:45:00,
2013-05-29 20:46:00,62.8,55.8,29.03,ESE,112,0.0,0.0,78,0.00,,,40.96,VWS V14.01,2013-05-30 00:46:00,
2013-05-29 20:47:00,62.6,56.0,29.03,ESE,112,0.0,0.0,79,0.00,,,40.96,VWS V14.01,2013-05-30 00:47:00,
2013-05-29 20:48:00,62.6,56.0,29.03,ESE,112,0.0,0.0,79,0.00,,,40.96,VWS V14.01,2013-05-30 00:48:00,
2013-05-29 20:49:00,62.6,56.0,29.03,ESE,112,0.0,0.0,79,0.00,,,40.96,VWS V14.01,2013-05-30 00:49:00,
2013-05-29 20:50:00,62.6,56.0,29.03,ESE,112,0.0,0.0,79,0.00,,,40.96,VWS V14.01,2013-05-30 00:50:00,
2013-05-29 20:51:00,62.4,56.2,29.03,ESE,112,0.0,0.0,80,0.00,,,40.96,VWS V14.01,2013-05-30 00:51:00,
2013-05-29 20:52:00,62.4,56.2,29.03,ESE,112,0.0,0.0,80,0.00,,,40.96,VWS V14.01,2013-05-30 00:52:00,
2013-05-29 20:53:00,62.4,56.5,29.03,ESE,112,0.0,0.0,81,0.00,,,40.96,VWS V14.01,2013-05-30 00:53:00,
2013-05-29 20:54:00,62.4,56.5,29.03,ESE,112,1.1,1.1,81,0.00,,,40.96,VWS V14.01,2013-05-30 00:54:00,
2013-05-29 20:55:00,62.4,56.5,29.03,ESE,112,0.0,1.3,81,0.00,,,40.96,VWS V14.01,2013-05-30 00:55:00,
2013-05-29 20:56:00,62.4,56.5,29.03,East,90,0.0,0.0,81,0.00,,,40.96,VWS V14.01,2013-05-30 00:56:00,
2013-05-29 20:57:00,62.4,56.5,29.03,East,90,0.0,0.0,81,0.00,,,40.96,VWS V14.01,2013-05-30 00:57:00,
2013-05-29 20:58:00,62.4,56.5,29.03,East,90,0.0,0.0,81,0.00,,,40.96,VWS V14.01,2013-05-30 00:58:00,
2013-05-29 20:59:00,62.4,56.5,29.03,East,90,0.0,0.0,81,0.00,,,40.96,VWS V14.01,2013-05-30 00:59:00,
2013-05-29 21:01:00,62.4,56.9,29.03,East,90,0.0,0.0,82,0.00,,,40.96,VWS V14.01,2013-05-30 01:01:00,
2013-05-29 21:02:00,62.4,56.9,29.03,East,90,0.0,0.0,82,0.00,,,40.96,VWS V14.01,2013-05-30 01:02:00,
2013-05-29 21:03:00,62.4,56.9,29.03,East,90,0.0,0.0,82,0.00,,,40.96,VWS V14.01,2013-05-30 01:03:00,
2013-05-29 21:04:00,62.4,56.9,29.03,East,90,0.0,0.0,82,0.00,,,40.96,VWS V14.01,2013-05-30 01:04:00,
2013-05-29 21:05:00,62.4,56.9,29.03,East,90,0.0,0.0,82,0.00,,,40.96,VWS V14.01,2013-05-30 01:05:00,
2013-05-29 21:06:00,62.4,56.9,29.03,East,90,0.0,0.0,82,0.00,,,40.96,VWS V14.01,2013-05-30 01:06:00,
2013-05-29 21:07:00,62.4,56.9,29.03,East,90,0.0,0.0,82,0.00,,,40.96,VWS V14.01,2013-05-30 01:07:00,
2013-05-29 21:08:00,62.4,56.9,29.03,East,90,0.0,0.0,82,0.00,,,40.96,VWS V14.01,2013-05-30 01:08:00,
2013-05-29 21:09:00,62.2,56.7,29.03,East,90,0.0,0.0,82,0.00,,,40.96,VWS V14.01,2013-05-30 01:09:00,
2013-05-29 21:10:00,62.2,57.0,29.03,East,90,0.0,0.0,83,0.00,,,40.96,VWS V14.01,2013-05-30 01:10:00,
2013-05-29 21:11:00,62.2,56.7,29.03,East,90,0.0,0.0,82,0.00,,,40.96,VWS V14.01,2013-05-30 01:11:00,
2013-05-29 21:12:00,62.4,56.9,29.03,ESE,112,0.0,0.0,82,0.00,,,40.96,VWS V14.01,2013-05-30 01:12:00,
2013-05-29 21:13:00,62.4,56.9,29.03,East,90,0.0,0.9,82,0.00,,,40.96,VWS V14.01,2013-05-30 01:13:00,
2013-05-29 21:14:00,62.6,57.0,29.03,East,90,0.0,1.1,82,0.00,,,40.96,VWS V14.01,2013-05-30 01:14:00,
2013-05-29 21:15:00,62.6,57.0,29.03,ESE,112,0.9,1.1,82,0.00,,,40.96,VWS V14.01,2013-05-30 01:15:00,
2013-05-29 21:16:00,62.6,57.4,29.03,ESE,112,1.3,2.9,83,0.00,,,40.96,VWS V14.01,2013-05-30 01:16:00,
2013-05-29 21:17:00,62.6,57.4,29.03,ESE,112,0.0,0.0,83,0.00,,,40.96,VWS V14.01,2013-05-30 01:17:00,
2013-05-29 21:18:00,62.6,57.4,29.03,ESE,112,0.0,0.0,83,0.00,,,40.96,VWS V14.01,2013-05-30 01:18:00,
2013-05-29 21:19:00,62.6,57.4,29.03,ESE,112,0.0,0.0,83,0.00,,,40.96,VWS V14.01,2013-05-30 01:19:00,
2013-05-29 21:20:00,62.8,57.5,29.03,ESE,112,0.0,0.0,83,0.00,,,40.96,VWS V14.01,2013-05-30 01:20:00,
2013-05-29 21:21:00,62.6,57.4,29.03,ESE,112,0.0,0.0,83,0.00,,,40.96,VWS V14.01,2013-05-30 01:21:00,
2013-05-29 21:23:00,62.6,57.4,29.03,ESE,112,0.0,0.0,83,0.00,,,40.96,VWS V14.01,2013-05-30 01:23:00,
2013-05-29 21:24:00,62.6,57.4,29.03,ESE,112,0.0,0.0,83,0.00,,,40.96,VWS V14.01,2013-05-30 01:24:00,
2013-05-29 21:25:00,62.4,57.2,29.03,ESE,112,0.0,0.0,83,0.00,,,40.96,VWS V14.01,2013-05-30 01:25:00,
2013-05-29 21:26:00,62.4,57.2,29.03,ESE,112,0.0,0.0,83,0.00,,,40.96,VWS V14.01,2013-05-30 01:26:00,
2013-05-29 21:27:00,62.4,57.2,29.03,ESE,112,0.0,0.0,83,0.00,,,40.96,VWS V14.01,2013-05-30 01:27:00,
2013-05-29 21:28:00,62.4,57.2,29.03,ESE,112,0.0,0.0,83,0.00,,,40.96,VWS V14.01,2013-05-30 01:28:00,
2013-05-29 21:29:00,62.2,57.0,29.03,ESE,112,0.0,0.0,83,0.00,,,40.96,VWS V14.01,2013-05-30 01:29:00,
2013-05-29 21:30:00,62.2,57.0,29.03,ESE,112,0.0,0.0,83,0.00,,,40.96,VWS V14.01,2013-05-30 01:30:00,
2013-05-29 21:31:00,62.1,56.8,29.03,ESE,112,0.0,0.0,83,0.00,,,40.96,VWS V14.01,2013-05-30 01:31:00,
2013-05-29 21:32:00,62.1,56.8,29.03,ENE,68,0.0,0.0,83,0.00,,,40.96,VWS V14.01,2013-05-30 01:32:00,
2013-05-29 21:33:00,62.1,56.8,29.03,ENE,68,0.0,0.0,83,0.00,,,40.96,VWS V14.01,2013-05-30 01:33:00,
2013-05-29 21:34:00,62.1,56.8,29.03,East,90,0.9,1.1,83,0.00,,,40.96,VWS V14.01,2013-05-30 01:34:00,
2013-05-29 21:35:00,62.1,56.8,29.03,East,90,1.1,1.3,83,0.00,,,40.96,VWS V14.01,2013-05-30 01:35:00,
2013-05-29 21:36:00,62.1,57.2,29.06,East,90,0.0,1.1,84,0.00,,,40.96,VWS V14.01,2013-05-30 01:36:00,
2013-05-29 21:37:00,62.2,57.7,29.06,East,90,1.1,1.1,85,0.00,,,40.96,VWS V14.01,2013-05-30 01:37:00,
2013-05-29 21:38:00,62.2,57.7,29.06,East,90,0.0,1.3,85,0.00,,,40.96,VWS V14.01,2013-05-30 01:38:00,
2013-05-29 21:39:00,62.2,57.7,29.06,East,90,0.0,1.3,85,0.00,,,40.96,VWS V14.01,2013-05-30 01:39:00,
2013-05-29 21:40:00,62.2,58.0,29.06,East,90,0.0,0.9,86,0.00,,,40.96,VWS V14.01,2013-05-30 01:40:00,
2013-05-29 21:41:00,62.2,57.7,29.06,East,90,0.0,0.0,85,0.00,,,40.96,VWS V14.01,2013-05-30 01:41:00,
2013-05-29 21:42:00,62.1,57.5,29.06,East,90,0.0,0.0,85,0.00,,,40.96,VWS V14.01,2013-05-30 01:42:00,
2013-05-29 21:43:00,62.1,57.8,29.06,East,90,0.0,1.3,86,0.00,,,40.96,VWS V14.01,2013-05-30 01:43:00,
2013-05-29 21:44:00,62.1,57.8,29.06,East,90,0.0,1.3,86,0.00,,,40.96,VWS V14.01,2013-05-30 01:44:00,
2013-05-29 21:45:00,62.1,57.8,29.06,East,90,0.9,0.9,86,0.00,,,40.96,VWS V14.01,2013-05-30 01:45:00,
2013-05-29 21:46:00,61.9,57.7,29.06,East,90,2.7,2.7,86,0.00,,,40.96,VWS V14.01,2013-05-30 01:46:00,
2013-05-29 21:47:00,61.9,58.0,29.06,East,90,0.0,2.5,87,0.00,,,40.96,VWS V14.01,2013-05-30 01:47:00,
2013-05-29 21:48:00,61.7,57.8,29.06,East,90,0.9,2.7,87,0.00,,,40.96,VWS V14.01,2013-05-30 01:48:00,
2013-05-29 21:49:00,61.7,57.5,29.06,East,90,0.0,0.0,86,0.00,,,40.96,VWS V14.01,2013-05-30 01:49:00,
2013-05-29 21:50:00,61.5,57.0,29.06,East,90,0.0,0.0,85,0.00,,,40.96,VWS V14.01,2013-05-30 01:50:00,
2013-05-29 21:51:00,61.3,56.8,29.03,East,90,0.0,0.0,85,0.00,,,40.96,VWS V14.01,2013-05-30 01:51:00,
2013-05-29 21:52:00,61.3,56.8,29.03,East,90,0.0,0.0,85,0.00,,,40.96,VWS V14.01,2013-05-30 01:52:00,
2013-05-29 21:53:00,61.2,56.6,29.03,East,90,0.0,0.0,85,0.00,,,40.96,VWS V14.01,2013-05-30 01:53:00,
2013-05-29 21:54:00,61.2,56.6,29.03,East,90,0.0,0.0,85,0.00,,,40.96,VWS V14.01,2013-05-30 01:54:00,
2013-05-29 21:55:00,61.0,56.5,29.03,East,90,0.0,0.0,85,0.00,,,40.96,VWS V14.01,2013-05-30 01:55:00,
2013-05-29 21:56:00,61.0,56.5,29.03,East,90,0.0,0.0,85,0.00,,,40.96,VWS V14.01,2013-05-30 01:56:00,
2013-05-29 21:57:00,61.0,56.5,29.03,East,90,0.0,0.0,85,0.00,,,40.96,VWS V14.01,2013-05-30 01:57:00,
2013-05-29 21:58:00,60.8,56.3,29.03,East,90,0.0,0.0,85,0.00,,,40.96,VWS V14.01,2013-05-30 01:58:00,
2013-05-29 21:59:00,60.8,56.3,29.03,East,90,0.0,0.0,85,0.00,,,40.96,VWS V14.01,2013-05-30 01:59:00,
2013-05-29 22:00:00,60.6,56.1,29.03,East,90,0.0,0.0,85,0.00,,,40.96,VWS V14.01,2013-05-30 02:00:00,
2013-05-29 22:01:00,60.6,56.1,29.03,East,90,0.0,0.0,85,0.00,,,40.96,VWS V14.01,2013-05-30 02:01:00,
2013-05-29 22:03:00,60.6,56.1,29.03,East,90,0.0,0.0,85,0.00,,,40.96,VWS V14.01,2013-05-30 02:03:00,
2013-05-29 22:04:00,60.4,56.2,29.03,East,90,0.0,0.0,86,0.00,,,40.96,VWS V14.01,2013-05-30 02:04:00,
2013-05-29 22:05:00,60.4,56.2,29.03,East,90,0.0,0.0,86,0.00,,,40.96,VWS V14.01,2013-05-30 02:05:00,
2013-05-29 22:06:00,60.4,56.2,29.03,East,90,0.0,0.9,86,0.00,,,40.96,VWS V14.01,2013-05-30 02:06:00,
2013-05-29 22:07:00,60.4,56.6,29.03,East,90,0.0,0.0,87,0.00,,,40.96,VWS V14.01,2013-05-30 02:07:00,
2013-05-29 22:08:00,60.4,56.6,29.03,East,90,2.9,2.9,87,0.00,,,40.96,VWS V14.01,2013-05-30 02:08:00,
2013-05-29 22:09:00,60.4,56.6,29.03,ENE,68,0.9,2.9,87,0.00,,,40.96,VWS V14.01,2013-05-30 02:09:00,
2013-05-29 22:10:00,60.6,56.7,29.03,ENE,68,0.0,0.9,87,0.00,,,40.96,VWS V14.01,2013-05-30 02:10:00,
2013-05-29 22:11:00,60.6,56.7,29.03,ESE,112,0.0,0.0,87,0.00,,,40.96,VWS V14.01,2013-05-30 02:11:00,
2013-05-29 22:12:00,60.4,56.6,29.03,East,90,0.0,0.0,87,0.00,,,40.96,VWS V14.01,2013-05-30 02:12:00,
2013-05-29 22:13:00,60.4,56.6,29.03,East,90,0.0,0.0,87,0.00,,,40.96,VWS V14.01,2013-05-30 02:13:00,
2013-05-29 22:14:00,60.4,56.6,29.03,East,90,0.0,0.0,87,0.00,,,40.96,VWS V14.01,2013-05-30 02:14:00,
2013-05-29 22:15:00,60.4,56.6,29.03,East,90,0.0,0.0,87,0.00,,,40.96,VWS V14.01,2013-05-30 02:15:00,
2013-05-29 22:16:00,60.4,56.6,29.03,East,90,0.0,0.0,87,0.00,,,40.96,VWS V14.01,2013-05-30 02:16:00,
2013-05-29 22:17:00,60.4,56.6,29.03,East,90,0.0,0.0,87,0.00,,,40.96,VWS V14.01,2013-05-30 02:17:00,
2013-05-29 22:18:00,60.4,56.9,29.03,East,90,0.0,0.0,88,0.00,,,40.96,VWS V14.01,2013-05-30 02:18:00,
2013-05-29 22:19:00,60.4,56.6,29.03,ENE,68,0.0,0.0,87,0.00,,,40.96,VWS V14.01,2013-05-30 02:19:00,
2013-05-29 22:20:00,60.4,56.9,29.03,East,90,1.1,1.1,88,0.00,,,40.96,VWS V14.01,2013-05-30 02:20:00,
2013-05-29 22:21:00,60.4,56.9,29.03,East,90,0.0,1.6,88,0.00,,,40.96,VWS V14.01,2013-05-30 02:21:00,
2013-05-29 22:22:00,60.4,56.9,29.03,East,90,0.0,0.0,88,0.00,,,40.96,VWS V14.01,2013-05-30 02:22:00,
2013-05-29 22:23:00,60.4,56.9,29.03,NE,45,2.0,2.0,88,0.00,,,40.96,VWS V14.01,2013-05-30 02:23:00,
2013-05-29 22:24:00,60.4,56.9,29.03,NE,45,0.9,2.0,88,0.00,,,40.96,VWS V14.01,2013-05-30 02:24:00,
2013-05-29 22:25:00,60.4,56.9,29.03,East,90,1.1,1.1,88,0.00,,,40.96,VWS V14.01,2013-05-30 02:25:00,
2013-05-29 22:26:00,60.4,57.2,29.03,East,90,1.6,2.5,89,0.00,,,40.96,VWS V14.01,2013-05-30 02:26:00,
2013-05-29 22:27:00,60.4,57.2,29.03,East,90,0.9,2.2,89,0.00,,,40.96,VWS V14.01,2013-05-30 02:27:00,
2013-05-29 22:28:00,60.4,57.2,29.03,ENE,68,0.0,0.9,89,0.00,,,40.96,VWS V14.01,2013-05-30 02:28:00,
2013-05-29 22:29:00,60.4,57.2,29.03,ENE,68,0.0,1.3,89,0.00,,,40.96,VWS V14.01,2013-05-30 02:29:00,
2013-05-29 22:30:00,60.4,57.2,29.03,ENE,68,0.0,0.0,89,0.00,,,40.96,VWS V14.01,2013-05-30 02:30:00,
2013-05-29 22:31:00,60.3,56.7,29.03,ENE,68,0.0,0.0,88,0.00,,,40.96,VWS V14.01,2013-05-30 02:31:00,
2013-05-29 22:32:00,60.3,56.7,29.03,ENE,68,0.0,0.0,88,0.00,,,40.96,VWS V14.01,2013-05-30 02:32:00,
2013-05-29 22:33:00,60.4,57.2,29.03,East,90,0.9,1.3,89,0.00,,,40.96,VWS V14.01,2013-05-30 02:33:00,
2013-05-29 22:34:00,60.4,57.5,29.03,East,90,2.2,2.2,90,0.00,,,40.96,VWS V14.01,2013-05-30 02:34:00,
2013-05-29 22:35:00,60.4,57.5,29.03,East,90,1.3,2.9,90,0.00,,,40.96,VWS V14.01,2013-05-30 02:35:00,
2013-05-29 22:36:00,60.4,57.5,29.03,East,90,2.7,2.7,90,0.00,,,40.96,VWS V14.01,2013-05-30 02:36:00,
2013-05-29 22:37:00,60.4,57.8,29.00,East,90,0.9,2.7,91,0.00,,,40.96,VWS V14.01,2013-05-30 02:37:00,
2013-05-29 22:38:00,60.4,57.8,29.00,East,90,1.1,2.9,91,0.00,,,40.96,VWS V14.01,2013-05-30 02:38:00,
2013-05-29 22:40:00,60.4,57.8,29.00,ESE,112,2.9,2.9,91,0.00,,,40.96,VWS V14.01,2013-05-30 02:40:00,
2013-05-29 22:41:00,60.4,57.8,29.00,ESE,112,2.9,2.9,91,0.00,,,40.96,VWS V14.01,2013-05-30 02:41:00,
2013-05-29 22:42:00,60.3,57.6,29.00,ESE,112,2.0,2.9,91,0.00,,,40.96,VWS V14.01,2013-05-30 02:42:00,
2013-05-29 22:43:00,60.3,57.6,29.00,East,90,2.7,2.7,91,0.00,,,40.96,VWS V14.01,2013-05-30 02:43:00,
2013-05-29 22:44:00,60.3,57.6,29.00,East,90,1.3,2.7,91,0.00,,,40.96,VWS V14.01,2013-05-30 02:44:00,
2013-05-29 22:45:00,60.3,57.6,29.00,ESE,112,0.9,1.3,91,0.00,,,40.96,VWS V14.01,2013-05-30 02:45:00,
2013-05-29 22:46:00,60.4,57.8,29.00,East,90,2.5,2.9,91,0.00,,,40.96,VWS V14.01,2013-05-30 02:46:00,
2013-05-29 22:47:00,60.4,57.8,29.00,East,90,3.4,3.4,91,0.00,,,40.96,VWS V14.01,2013-05-30 02:47:00,
2013-05-29 22:48:00,60.4,58.1,29.00,ENE,68,0.0,0.0,92,0.00,,,40.96,VWS V14.01,2013-05-30 02:48:00,
2013-05-29 22:50:00,60.4,57.8,29.00,NE,45,1.6,1.6,91,0.00,,,40.96,VWS V14.01,2013-05-30 02:50:00,
2013-05-29 22:51:00,60.4,57.8,29.00,ESE,112,0.9,2.5,91,0.00,,,40.96,VWS V14.01,2013-05-30 02:51:00,
2013-05-29 22:52:00,60.4,57.8,29.03,ENE,68,1.3,3.1,91,0.00,,,40.96,VWS V14.01,2013-05-30 02:52:00,
2013-05-29 22:53:00,60.4,57.8,29.03,ESE,112,2.7,2.7,91,0.00,,,40.96,VWS V14.01,2013-05-30 02:53:00,
2013-05-29 22:54:00,60.4,57.8,29.03,SE,135,2.2,2.9,91,0.00,,,40.96,VWS V14.01,2013-05-30 02:54:00,
2013-05-29 22:55:00,60.4,57.8,29.03,ENE,68,2.0,2.2,91,0.00,,,40.96,VWS V14.01,2013-05-30 02:55:00,
2013-05-29 22:57:00,60.4,57.8,29.03,NE,45,0.9,2.5,91,0.00,,,40.96,VWS V14.01,2013-05-30 02:57:00,
2013-05-29 22:58:00,60.6,58.6,29.03,East,90,2.0,2.9,93,0.00,,,40.96,VWS V14.01,2013-05-30 02:58:00,
2013-05-29 22:59:00,60.6,58.3,29.03,ENE,68,1.6,2.0,92,0.00,,,40.96,VWS V14.01,2013-05-30 02:59:00,
2013-05-29 23:00:00,60.6,58.3,29.03,ESE,112,1.3,2.5,92,0.00,,,40.96,VWS V14.01,2013-05-30 03:00:00,
2013-05-29 23:01:00,60.6,58.6,29.03,ESE,112,2.0,2.0,93,0.00,,,40.96,VWS V14.01,2013-05-30 03:01:00,
2013-05-29 23:02:00,60.6,58.6,29.03,ENE,68,1.3,2.5,93,0.00,,,40.96,VWS V14.01,2013-05-30 03:02:00,
2013-05-29 23:03:00,60.6,58.6,29.03,ENE,68,0.0,2.7,93,0.00,,,40.96,VWS V14.01,2013-05-30 03:03:00,
2013-05-29 23:04:00,60.6,58.6,29.03,ESE,112,1.3,2.0,93,0.00,,,40.96,VWS V14.01,2013-05-30 03:04:00,
2013-05-29 23:05:00,60.6,58.6,29.03,East,90,2.0,2.2,93,0.00,,,40.96,VWS V14.01,2013-05-30 03:05:00,
2013-05-29 23:06:00,60.6,58.6,29.03,East,90,2.0,3.6,93,0.00,,,40.96,VWS V14.01,2013-05-30 03:06:00,
2013-05-29 23:15:00,60.6,58.6,29.00,East,90,2.0,3.4,93,0.00,,,40.96,VWS V14.01,2013-05-30 03:15:00,
2013-05-29 23:16:00,60.6,58.6,29.00,East,90,1.3,2.7,93,0.00,,,40.96,VWS V14.01,2013-05-30 03:16:00,
2013-05-29 23:18:00,60.6,58.6,29.00,East,90,3.1,3.1,93,0.00,,,40.96,VWS V14.01,2013-05-30 03:18:00,
2013-05-29 23:19:00,61.0,59.2,29.00,South,180,3.4,3.4,94,0.00,,,40.96,VWS V14.01,2013-05-30 03:19:00,
2013-05-29 23:20:00,61.2,59.4,29.00,SE,135,2.5,3.6,94,0.00,,,40.96,VWS V14.01,2013-05-30 03:20:00,
2013-05-29 23:21:00,61.3,59.6,29.00,SE,135,3.8,5.6,94,0.00,,,40.96,VWS V14.01,2013-05-30 03:21:00,
2013-05-29 23:22:00,61.5,59.8,29.00,SE,135,2.5,3.8,94,0.00,,,40.96,VWS V14.01,2013-05-30 03:22:00,
2013-05-29 23:23:00,61.7,60.0,29.00,SSE,158,2.5,2.5,94,0.00,,,40.96,VWS V14.01,2013-05-30 03:23:00,
2013-05-29 23:24:00,61.9,60.1,29.00,South,180,0.0,4.0,94,0.00,,,40.96,VWS V14.01,2013-05-30 03:24:00,
2013-05-29 23:25:00,61.9,60.4,29.00,SSE,158,1.6,4.3,95,0.00,,,40.96,VWS V14.01,2013-05-30 03:25:00,
2013-05-29 23:26:00,62.1,60.6,29.00,SSE,158,2.0,2.0,95,0.00,,,40.96,VWS V14.01,2013-05-30 03:26:00,
2013-05-29 23:27:00,62.2,60.8,29.00,ESE,112,0.0,2.0,95,0.00,,,40.96,VWS V14.01,2013-05-30 03:27:00,
2013-05-29 23:28:00,62.2,60.8,29.00,SW,225,3.1,3.1,95,0.00,,,40.96,VWS V14.01,2013-05-30 03:28:00,
2013-05-29 23:29:00,62.4,61.0,29.00,WSW,248,0.0,3.1,95,0.00,,,40.96,VWS V14.01,2013-05-30 03:29:00,
2013-05-29 23:30:00,62.4,61.0,29.00,South,180,0.0,0.0,95,0.00,,,40.96,VWS V14.01,2013-05-30 03:30:00,
2013-05-29 23:31:00,62.4,61.0,29.00,SSE,158,2.5,2.5,95,0.00,,,40.96,VWS V14.01,2013-05-30 03:31:00,
2013-05-29 23:32:00,62.6,61.2,29.00,South,180,4.9,4.9,95,0.00,,,40.96,VWS V14.01,2013-05-30 03:32:00,
2013-05-29 23:33:00,62.6,61.2,29.00,SSE,158,1.3,4.9,95,0.00,,,40.96,VWS V14.01,2013-05-30 03:33:00,
2013-05-29 23:34:00,63.0,61.5,29.00,SSE,158,2.5,2.5,95,0.00,,,40.96,VWS V14.01,2013-05-30 03:34:00,
2013-05-29 23:35:00,63.0,61.5,29.00,WSW,248,2.9,2.9,95,0.00,,,40.96,VWS V14.01,2013-05-30 03:35:00,
2013-05-29 23:36:00,63.1,61.7,29.00,SSE,158,4.0,4.0,95,0.00,,,40.96,VWS V14.01,2013-05-30 03:36:00,
2013-05-29 23:37:00,63.1,61.7,29.03,South,180,2.5,4.0,95,0.00,,,40.96,VWS V14.01,2013-05-30 03:37:00,
2013-05-29 23:38:00,63.3,61.9,29.03,SE,135,1.6,2.7,95,0.00,,,40.96,VWS V14.01,2013-05-30 03:38:00,
2013-05-29 23:39:00,63.3,61.9,29.03,SSW,202,2.0,4.9,95,0.00,,,40.96,VWS V14.01,2013-05-30 03:39:00,
2013-05-29 23:41:00,63.7,62.2,29.03,SSW,202,0.9,2.7,95,0.00,,,40.96,VWS V14.01,2013-05-30 03:41:00,
2013-05-29 23:42:00,63.7,62.2,29.03,SSW,202,0.0,2.7,95,0.00,,,40.96,VWS V14.01,2013-05-30 03:42:00,
2013-05-29 23:43:00,63.7,62.2,29.03,SSW,202,0.0,0.0,95,0.00,,,40.96,VWS V14.01,2013-05-30 03:43:00,
2013-05-29 23:44:00,63.9,62.4,29.03,SW,225,2.0,2.0,95,0.00,,,40.96,VWS V14.01,2013-05-30 03:44:00,
2013-05-29 23:45:00,63.9,62.4,29.03,SSE,158,2.9,3.4,95,0.00,,,40.96,VWS V14.01,2013-05-30 03:45:00,
2013-05-29 23:46:00,64.0,62.6,29.03,South,180,0.0,3.1,95,0.00,,,40.96,VWS V14.01,2013-05-30 03:46:00,
2013-05-29 23:47:00,64.0,62.6,29.03,SSE,158,2.7,2.9,95,0.00,,,40.96,VWS V14.01,2013-05-30 03:47:00,
2013-05-29 23:49:00,64.4,62.6,29.03,SW,225,6.0,6.0,94,0.00,,,40.96,VWS V14.01,2013-05-30 03:49:00,
2013-05-29 23:50:00,64.4,62.6,29.03,SW,225,0.9,6.0,94,0.00,,,40.96,VWS V14.01,2013-05-30 03:50:00,
2013-05-29 23:51:00,60.4,57.8,29.00,ESE,112,0.9,2.5,91,0.00,,,40.96,VWS V14.01,2013-05-30 03:51:00,
2013-05-29 23:52:00,64.6,62.8,29.03,SSE,158,4.3,4.3,94,0.00,,,40.96,VWS V14.01,2013-05-30 03:52:00,
2013-05-29 23:53:00,64.6,62.8,29.03,South,180,0.0,4.3,94,0.00,,,40.96,VWS V14.01,2013-05-30 03:53:00,
2013-05-29 23:54:00,64.6,62.8,29.03,SW,225,0.0,4.0,94,0.00,,,40.96,VWS V14.01,2013-05-30 03:54:00,
2013-05-29 23:56:00,64.8,63.0,29.03,SW,225,1.3,1.3,94,0.00,,,40.96,VWS V14.01,2013-05-30 03:56:00,
2013-05-29 23:57:00,60.4,57.8,29.03,East,90,2.5,2.7,91,0.00,,,40.96,VWS V14.01,2013-05-30 03:57:00,
2013-05-29 23:58:00,64.9,62.9,29.03,ENE,68,2.2,3.6,93,0.00,,,40.96,VWS V14.01,2013-05-30 03:58:00,
2013-05-29 23:59:00,64.9,62.9,29.03,SE,135,1.6,3.6,93,0.00,,,40.96,VWS V14.01,2013-05-30 03:59:00,